<?xml version='1.0' encoding='UTF-8'?><gpx version="1.1" creator="JPX - https://github.com/jenetics/jpx" xmlns="http://www.topografix.com/GPX/1/1"><trk><trkseg><trkpt lat="43.12681793744359" lon="10.688525008909902"><ele>117.16666666666667</ele><time>2026-03-29T07:51:00Z</time></trkpt><trkpt lat="43.12687293479859" lon="10.688661824118153"><ele>116.33333333333334</ele><time>2026-03-29T07:51:02Z</time></trkpt><trkpt lat="43.126883007390816" lon="10.688794096458345"><ele>115.5</ele><time>2026-03-29T07:51:04Z</time></trkpt><trkpt lat="43.12685785801883" lon="10.688878505899735"><ele>114.66666666666666</ele><time>2026-03-29T07:51:06Z</time></trkpt><trkpt lat="43.1268439735073" lon="10.68898365052455"><ele>113.83333333333333</ele><time>2026-03-29T07:51:09Z</time></trkpt><trkpt lat="43.1268607842091" lon="10.689104401342842"><ele>113.0</ele><time>2026-03-29T07:51:12Z</time></trkpt><trkpt lat="43.12687056431574" lon="10.689210162596597"><ele>112.99999999999999</ele><time>2026-03-29T07:51:14Z</time></trkpt><trkpt lat="43.126815890747785" lon="10.689309816664457"><ele>113.0</ele><time>2026-03-29T07:51:17Z</time></trkpt><trkpt lat="43.126776229291536" lon="10.689383840229572"><ele>113.0</ele><time>2026-03-29T07:51:19Z</time></trkpt><trkpt lat="43.12681972609702" lon="10.689450430486382"><ele>113.0</ele><time>2026-03-29T07:51:21Z</time></trkpt><trkpt lat="43.12686449093976" lon="10.689542384497408"><ele>112.99999999999999</ele><time>2026-03-29T07:51:23Z</time></trkpt><trkpt lat="43.12684447681404" lon="10.689681614954745"><ele>113.0</ele><time>2026-03-29T07:51:25Z</time></trkpt><trkpt lat="43.12680949246533" lon="10.689795215958267"><ele>112.28571428571429</ele><time>2026-03-29T07:51:27Z</time></trkpt><trkpt lat="43.12675738108204" lon="10.689878969311916"><ele>111.57142857142857</ele><time>2026-03-29T07:51:29Z</time></trkpt><trkpt lat="43.126736475191834" lon="10.68996324079602"><ele>110.85714285714286</ele><time>2026-03-29T07:51:47Z</time></trkpt><trkpt lat="43.12670225497407" lon="10.690065194801067"><ele>110.14285714285714</ele><time>2026-03-29T07:51:53Z</time></trkpt><trkpt lat="43.12666009476447" lon="10.690148668544484"><ele>109.42857142857142</ele><time>2026-03-29T07:52:01Z</time></trkpt><trkpt lat="43.12658877927941" lon="10.690149632311426"><ele>108.71428571428571</ele><time>2026-03-29T07:52:06Z</time></trkpt><trkpt lat="43.12652602264059" lon="10.69012003316495"><ele>108.0</ele><time>2026-03-29T07:52:09Z</time></trkpt><trkpt lat="43.12645576139494" lon="10.690053113693088"><ele>108.0</ele><time>2026-03-29T07:52:12Z</time></trkpt><trkpt lat="43.12639034323258" lon="10.690040947871882"><ele>108.0</ele><time>2026-03-29T07:52:14Z</time></trkpt><trkpt lat="43.126302994950336" lon="10.690039303701866"><ele>108.0</ele><time>2026-03-29T07:52:16Z</time></trkpt><trkpt lat="43.126235071627164" lon="10.690045806416611"><ele>108.0</ele><time>2026-03-29T07:52:18Z</time></trkpt><trkpt lat="43.12617954064919" lon="10.690092519199094"><ele>108.0</ele><time>2026-03-29T07:52:21Z</time></trkpt><trkpt lat="43.12612783973083" lon="10.690145236948313"><ele>108.0</ele><time>2026-03-29T07:52:24Z</time></trkpt><trkpt lat="43.126189509772935" lon="10.690123132625871"><ele>108.0</ele><time>2026-03-29T07:54:03Z</time></trkpt><trkpt lat="43.12624281266335" lon="10.690068060691623"><ele>108.0</ele><time>2026-03-29T07:54:06Z</time></trkpt><trkpt lat="43.12630768332534" lon="10.690035470731992"><ele>108.0</ele><time>2026-03-29T07:54:11Z</time></trkpt><trkpt lat="43.12639785672176" lon="10.690038831780736"><ele>108.0</ele><time>2026-03-29T07:54:13Z</time></trkpt><trkpt lat="43.1264648324544" lon="10.69005298759648"><ele>108.0</ele><time>2026-03-29T07:54:15Z</time></trkpt><trkpt lat="43.12654350919468" lon="10.690115262164838"><ele>108.0</ele><time>2026-03-29T07:54:18Z</time></trkpt><trkpt lat="43.12662604076686" lon="10.690144199639409"><ele>108.0</ele><time>2026-03-29T07:54:21Z</time></trkpt><trkpt lat="43.12669025259346" lon="10.690094387315636"><ele>107.33333333333333</ele><time>2026-03-29T07:54:24Z</time></trkpt><trkpt lat="43.12671701788945" lon="10.690004766216813"><ele>106.66666666666666</ele><time>2026-03-29T07:54:27Z</time></trkpt><trkpt lat="43.126747362048" lon="10.68992744241276"><ele>106.0</ele><time>2026-03-29T07:54:30Z</time></trkpt><trkpt lat="43.12676921917902" lon="10.689827079304003"><ele>105.33333333333333</ele><time>2026-03-29T07:54:32Z</time></trkpt><trkpt lat="43.1268322785204" lon="10.689720591323471"><ele>104.66666666666666</ele><time>2026-03-29T07:54:34Z</time></trkpt><trkpt lat="43.1268693557539" lon="10.689574774647545"><ele>104.0</ele><time>2026-03-29T07:54:36Z</time></trkpt><trkpt lat="43.12686862999179" lon="10.689458862976364"><ele>105.49999999999999</ele><time>2026-03-29T07:54:38Z</time></trkpt><trkpt lat="43.12679528396255" lon="10.68936169164905"><ele>107.0</ele><time>2026-03-29T07:54:40Z</time></trkpt><trkpt lat="43.12681995890775" lon="10.689226928245006"><ele>108.5</ele><time>2026-03-29T07:54:43Z</time></trkpt><trkpt lat="43.126861487532715" lon="10.689135437603623"><ele>110.0</ele><time>2026-03-29T07:54:45Z</time></trkpt><trkpt lat="43.12683807440495" lon="10.68903809430068"><ele>111.49999999999999</ele><time>2026-03-29T07:54:47Z</time></trkpt><trkpt lat="43.12683160668899" lon="10.688950463399362"><ele>113.0</ele><time>2026-03-29T07:54:48Z</time></trkpt><trkpt lat="43.1268566539448" lon="10.68877546225495"><ele>112.99999999999999</ele><time>2026-03-29T07:54:50Z</time></trkpt><trkpt lat="43.1268682903287" lon="10.688685215138714"><ele>113.0</ele><time>2026-03-29T07:54:51Z</time></trkpt><trkpt lat="43.126848601262374" lon="10.688590714385382"><ele>113.0</ele><time>2026-03-29T07:54:53Z</time></trkpt><trkpt lat="43.1267851077469" lon="10.688482885629975"><ele>113.0</ele><time>2026-03-29T07:54:55Z</time></trkpt><trkpt lat="43.12672819780905" lon="10.688397161972524"><ele>112.99999999999999</ele><time>2026-03-29T07:54:57Z</time></trkpt><trkpt lat="43.126674266143716" lon="10.688331008274309"><ele>113.0</ele><time>2026-03-29T07:55:00Z</time></trkpt><trkpt lat="43.12658210184342" lon="10.688296663158917"><ele>113.80000000000001</ele><time>2026-03-29T07:55:04Z</time></trkpt><trkpt lat="43.126512650373506" lon="10.68819362734908"><ele>114.60000000000001</ele><time>2026-03-29T07:55:06Z</time></trkpt><trkpt lat="43.1264798638791" lon="10.688119130269836"><ele>115.39999999999999</ele><time>2026-03-29T07:55:07Z</time></trkpt><trkpt lat="43.126403489112256" lon="10.687995580174876"><ele>116.19999999999999</ele><time>2026-03-29T07:55:09Z</time></trkpt><trkpt lat="43.1262998735261" lon="10.687938462951932"><ele>117.0</ele><time>2026-03-29T07:55:11Z</time></trkpt><trkpt lat="43.126203417224055" lon="10.687923214342627"><ele>117.0</ele><time>2026-03-29T07:55:13Z</time></trkpt><trkpt lat="43.12614897279672" lon="10.687870926398102"><ele>117.00000000000001</ele><time>2026-03-29T07:55:14Z</time></trkpt><trkpt lat="43.12609026783134" lon="10.687824692848535"><ele>117.0</ele><time>2026-03-29T07:55:15Z</time></trkpt><trkpt lat="43.12603557470023" lon="10.687776596820129"><ele>117.0</ele><time>2026-03-29T07:55:16Z</time></trkpt><trkpt lat="43.12598163337464" lon="10.687712803877485"><ele>117.00000000000001</ele><time>2026-03-29T07:55:17Z</time></trkpt><trkpt lat="43.12592621734954" lon="10.687656054093702"><ele>117.0</ele><time>2026-03-29T07:55:18Z</time></trkpt><trkpt lat="43.125840393751716" lon="10.687573961683503"><ele>117.0</ele><time>2026-03-29T07:55:20Z</time></trkpt><trkpt lat="43.12579976618459" lon="10.68745722996478"><ele>119.19999999999999</ele><time>2026-03-29T07:55:22Z</time></trkpt><trkpt lat="43.12579957343548" lon="10.687344824736343"><ele>121.39999999999999</ele><time>2026-03-29T07:55:24Z</time></trkpt><trkpt lat="43.12583321803145" lon="10.687177583496627"><ele>123.60000000000001</ele><time>2026-03-29T07:55:26Z</time></trkpt><trkpt lat="43.12585988584923" lon="10.687050102777627"><ele>125.80000000000001</ele><time>2026-03-29T07:55:27Z</time></trkpt><trkpt lat="43.125868057111454" lon="10.686931177365608"><ele>128.0</ele><time>2026-03-29T07:55:28Z</time></trkpt><trkpt lat="43.1258852552307" lon="10.686810606831274"><ele>128.28571428571428</ele><time>2026-03-29T07:55:29Z</time></trkpt><trkpt lat="43.125902209000174" lon="10.68670443245208"><ele>128.57142857142856</ele><time>2026-03-29T07:55:30Z</time></trkpt><trkpt lat="43.125901927599" lon="10.686611267507084"><ele>128.85714285714286</ele><time>2026-03-29T07:55:31Z</time></trkpt><trkpt lat="43.12587269565132" lon="10.686516059720377"><ele>129.14285714285714</ele><time>2026-03-29T07:55:32Z</time></trkpt><trkpt lat="43.1257941214304" lon="10.686459616514236"><ele>129.42857142857144</ele><time>2026-03-29T07:55:33Z</time></trkpt><trkpt lat="43.12577436271869" lon="10.686377279749742"><ele>129.71428571428572</ele><time>2026-03-29T07:55:34Z</time></trkpt><trkpt lat="43.12575581755276" lon="10.68628479086742"><ele>130.0</ele><time>2026-03-29T07:55:35Z</time></trkpt><trkpt lat="43.12577737191795" lon="10.686160107705721"><ele>130.8</ele><time>2026-03-29T07:55:36Z</time></trkpt><trkpt lat="43.125775348649434" lon="10.686032642554991"><ele>131.6</ele><time>2026-03-29T07:55:37Z</time></trkpt><trkpt lat="43.125773506990754" lon="10.685916618938498"><ele>132.4</ele><time>2026-03-29T07:55:38Z</time></trkpt><trkpt lat="43.12575950942495" lon="10.685796448723204"><ele>133.2</ele><time>2026-03-29T07:55:39Z</time></trkpt><trkpt lat="43.125771830130915" lon="10.68566627099928"><ele>134.0</ele><time>2026-03-29T07:55:40Z</time></trkpt><trkpt lat="43.12577348841141" lon="10.685525025749643"><ele>134.0</ele><time>2026-03-29T07:55:41Z</time></trkpt><trkpt lat="43.12577717220395" lon="10.685385156258704"><ele>134.0</ele><time>2026-03-29T07:55:42Z</time></trkpt><trkpt lat="43.125787256838734" lon="10.685262284315252"><ele>134.0</ele><time>2026-03-29T07:55:43Z</time></trkpt><trkpt lat="43.12581976258517" lon="10.685134694610602"><ele>134.0</ele><time>2026-03-29T07:55:44Z</time></trkpt><trkpt lat="43.125842856656945" lon="10.68502034482771"><ele>134.0</ele><time>2026-03-29T07:55:45Z</time></trkpt><trkpt lat="43.125847074587035" lon="10.68491881013572"><ele>135.2</ele><time>2026-03-29T07:55:46Z</time></trkpt><trkpt lat="43.125853886261154" lon="10.684735454253858"><ele>136.4</ele><time>2026-03-29T07:55:48Z</time></trkpt><trkpt lat="43.12587344134584" lon="10.68464977858893"><ele>137.6</ele><time>2026-03-29T07:55:49Z</time></trkpt><trkpt lat="43.125880463083455" lon="10.684538576280417"><ele>138.8</ele><time>2026-03-29T07:55:51Z</time></trkpt><trkpt lat="43.125870299844834" lon="10.684435080229605"><ele>140.0</ele><time>2026-03-29T07:55:53Z</time></trkpt><trkpt lat="43.125816208883585" lon="10.684328144499348"><ele>140.0</ele><time>2026-03-29T07:55:55Z</time></trkpt><trkpt lat="43.12578078379931" lon="10.684237816862193"><ele>140.0</ele><time>2026-03-29T07:55:57Z</time></trkpt><trkpt lat="43.12580159337083" lon="10.684130952886298"><ele>140.0</ele><time>2026-03-29T07:56:00Z</time></trkpt><trkpt lat="43.125788706551106" lon="10.684241377433622"><ele>140.0</ele><time>2026-03-29T07:56:31Z</time></trkpt><trkpt lat="43.12580844225415" lon="10.684361818664282"><ele>140.0</ele><time>2026-03-29T07:56:33Z</time></trkpt><trkpt lat="43.12585116174878" lon="10.68447525069388"><ele>140.0</ele><time>2026-03-29T07:56:36Z</time></trkpt><trkpt lat="43.125878954910235" lon="10.684553746007511"><ele>140.0</ele><time>2026-03-29T07:56:38Z</time></trkpt><trkpt lat="43.12587530337665" lon="10.684681818168094"><ele>140.0</ele><time>2026-03-29T07:56:41Z</time></trkpt><trkpt lat="43.1258626171273" lon="10.684794120050782"><ele>140.0</ele><time>2026-03-29T07:56:43Z</time></trkpt><trkpt lat="43.12584502847459" lon="10.684947848363395"><ele>140.0</ele><time>2026-03-29T07:56:45Z</time></trkpt><trkpt lat="43.1258244015085" lon="10.685083391047979"><ele>140.0</ele><time>2026-03-29T07:56:47Z</time></trkpt><trkpt lat="43.12579889594098" lon="10.685203624444828"><ele>139.14285714285714</ele><time>2026-03-29T07:56:49Z</time></trkpt><trkpt lat="43.12581785102553" lon="10.685294179776054"><ele>138.28571428571428</ele><time>2026-03-29T07:56:51Z</time></trkpt><trkpt lat="43.12584726919939" lon="10.685387274149278"><ele>137.42857142857144</ele><time>2026-03-29T07:56:54Z</time></trkpt><trkpt lat="43.12591422954431" lon="10.685438471963085"><ele>136.57142857142856</ele><time>2026-03-29T07:56:57Z</time></trkpt><trkpt lat="43.125971171339295" lon="10.685475359158913"><ele>135.71428571428572</ele><time>2026-03-29T07:56:59Z</time></trkpt><trkpt lat="43.126035892583886" lon="10.685498026131707"><ele>134.85714285714286</ele><time>2026-03-29T07:57:02Z</time></trkpt><trkpt lat="43.12611587061499" lon="10.685519722496052"><ele>134.0</ele><time>2026-03-29T07:58:11Z</time></trkpt><trkpt lat="43.12621843158387" lon="10.685536918666884"><ele>134.0</ele><time>2026-03-29T07:58:13Z</time></trkpt><trkpt lat="43.12631750379499" lon="10.6855834452927"><ele>134.0</ele><time>2026-03-29T07:58:15Z</time></trkpt><trkpt lat="43.12642147047093" lon="10.685618203275698"><ele>134.0</ele><time>2026-03-29T07:58:17Z</time></trkpt><trkpt lat="43.12652326585769" lon="10.685659147524408"><ele>134.0</ele><time>2026-03-29T07:58:19Z</time></trkpt><trkpt lat="43.12663146669695" lon="10.685730276786707"><ele>134.0</ele><time>2026-03-29T07:58:21Z</time></trkpt><trkpt lat="43.12668646958943" lon="10.685775536054422"><ele>131.2</ele><time>2026-03-29T07:58:22Z</time></trkpt><trkpt lat="43.12678859969582" lon="10.685869871609318"><ele>128.4</ele><time>2026-03-29T07:58:24Z</time></trkpt><trkpt lat="43.126886193229865" lon="10.6859687182692"><ele>125.6</ele><time>2026-03-29T07:58:26Z</time></trkpt><trkpt lat="43.12696258098754" lon="10.686066516353"><ele>122.8</ele><time>2026-03-29T07:58:28Z</time></trkpt><trkpt lat="43.12701713728414" lon="10.686132143603563"><ele>120.0</ele><time>2026-03-29T07:58:30Z</time></trkpt><trkpt lat="43.12691702360209" lon="10.686188710678728"><ele>119.6</ele><time>2026-03-29T07:58:34Z</time></trkpt><trkpt lat="43.12704294004703" lon="10.686163214491671"><ele>119.2</ele><time>2026-03-29T07:58:39Z</time></trkpt><trkpt lat="43.12705901195974" lon="10.686274165245303"><ele>118.80000000000001</ele><time>2026-03-29T07:59:48Z</time></trkpt><trkpt lat="43.12711368723765" lon="10.68637802685476"><ele>118.4</ele><time>2026-03-29T07:59:51Z</time></trkpt><trkpt lat="43.12715977377226" lon="10.686481183159216"><ele>118.0</ele><time>2026-03-29T07:59:53Z</time></trkpt><trkpt lat="43.12723210022854" lon="10.686565261499"><ele>118.00000000000001</ele><time>2026-03-29T07:59:55Z</time></trkpt><trkpt lat="43.1273032011797" lon="10.68663993609974"><ele>118.0</ele><time>2026-03-29T07:59:57Z</time></trkpt><trkpt lat="43.127385062071816" lon="10.686710280171708"><ele>118.0</ele><time>2026-03-29T07:59:59Z</time></trkpt><trkpt lat="43.127453347680635" lon="10.686749312502034"><ele>118.0</ele><time>2026-03-29T08:00:01Z</time></trkpt><trkpt lat="43.12751238201861" lon="10.686782114140202"><ele>118.00000000000001</ele><time>2026-03-29T08:00:03Z</time></trkpt><trkpt lat="43.12757542293846" lon="10.68680442981767"><ele>118.0</ele><time>2026-03-29T08:00:05Z</time></trkpt><trkpt lat="43.12765258817793" lon="10.686853300521689"><ele>116.0</ele><time>2026-03-29T08:00:08Z</time></trkpt><trkpt lat="43.127716707647245" lon="10.686810589677144"><ele>114.00000000000001</ele><time>2026-03-29T08:00:10Z</time></trkpt><trkpt lat="43.12780744367426" lon="10.686776485841797"><ele>112.00000000000001</ele><time>2026-03-29T08:00:12Z</time></trkpt><trkpt lat="43.1278778925317" lon="10.686773091570902"><ele>110.0</ele><time>2026-03-29T08:00:13Z</time></trkpt><trkpt lat="43.127984815572276" lon="10.686743800155897"><ele>108.0</ele><time>2026-03-29T08:00:15Z</time></trkpt><trkpt lat="43.12809872060603" lon="10.686688501297308"><ele>108.0</ele><time>2026-03-29T08:00:17Z</time></trkpt><trkpt lat="43.12813810531025" lon="10.686601140538365"><ele>108.0</ele><time>2026-03-29T08:00:18Z</time></trkpt><trkpt lat="43.12819389554613" lon="10.686519288383783"><ele>108.0</ele><time>2026-03-29T08:00:19Z</time></trkpt><trkpt lat="43.12825301666061" lon="10.686472529885695"><ele>108.0</ele><time>2026-03-29T08:00:20Z</time></trkpt><trkpt lat="43.12831644353016" lon="10.686414685064523"><ele>108.0</ele><time>2026-03-29T08:00:21Z</time></trkpt><trkpt lat="43.128435730999904" lon="10.686338571365473"><ele>108.0</ele><time>2026-03-29T08:00:23Z</time></trkpt><trkpt lat="43.12853468372449" lon="10.686357645532567"><ele>107.60000000000001</ele><time>2026-03-29T08:00:24Z</time></trkpt><trkpt lat="43.12863216261297" lon="10.68638176221199"><ele>107.20000000000002</ele><time>2026-03-29T08:00:25Z</time></trkpt><trkpt lat="43.128721362090126" lon="10.68640504306029"><ele>106.8</ele><time>2026-03-29T08:00:26Z</time></trkpt><trkpt lat="43.12882659888016" lon="10.686405349937278"><ele>106.4</ele><time>2026-03-29T08:00:28Z</time></trkpt><trkpt lat="43.12888688732108" lon="10.686507946049284"><ele>106.0</ele><time>2026-03-29T08:01:33Z</time></trkpt><trkpt lat="43.12890541742724" lon="10.686651078613753"><ele>106.0</ele><time>2026-03-29T08:01:34Z</time></trkpt><trkpt lat="43.12889942986447" lon="10.68683176835573"><ele>106.0</ele><time>2026-03-29T08:01:35Z</time></trkpt><trkpt lat="43.12889274968767" lon="10.687018021771099"><ele>106.0</ele><time>2026-03-29T08:01:36Z</time></trkpt><trkpt lat="43.12888781934576" lon="10.687240016336066"><ele>106.0</ele><time>2026-03-29T08:01:37Z</time></trkpt><trkpt lat="43.12889892515867" lon="10.687473668632178"><ele>106.0</ele><time>2026-03-29T08:01:38Z</time></trkpt><trkpt lat="43.128888810264655" lon="10.687713739679918"><ele>106.0</ele><time>2026-03-29T08:01:39Z</time></trkpt><trkpt lat="43.12888056090998" lon="10.688003157107987"><ele>106.0</ele><time>2026-03-29T08:01:40Z</time></trkpt><trkpt lat="43.12887013941576" lon="10.688332438533227"><ele>105.0</ele><time>2026-03-29T08:01:41Z</time></trkpt><trkpt lat="43.128875434784945" lon="10.688640746779853"><ele>104.0</ele><time>2026-03-29T08:01:42Z</time></trkpt><trkpt lat="43.12886057545038" lon="10.688906356613114"><ele>103.0</ele><time>2026-03-29T08:01:43Z</time></trkpt><trkpt lat="43.12884652051547" lon="10.689168426127596"><ele>103.0</ele><time>2026-03-29T08:01:44Z</time></trkpt><trkpt lat="43.1288439299192" lon="10.689396199817876"><ele>103.0</ele><time>2026-03-29T08:01:45Z</time></trkpt><trkpt lat="43.128839809658004" lon="10.689611156078316"><ele>103.0</ele><time>2026-03-29T08:01:46Z</time></trkpt><trkpt lat="43.128828207286965" lon="10.689820408947801"><ele>102.5</ele><time>2026-03-29T08:01:47Z</time></trkpt><trkpt lat="43.12881439131827" lon="10.690009807644401"><ele>102.0</ele><time>2026-03-29T08:01:48Z</time></trkpt><trkpt lat="43.12879013326083" lon="10.690175078775196"><ele>101.5</ele><time>2026-03-29T08:01:49Z</time></trkpt><trkpt lat="43.12876008268879" lon="10.690359035170365"><ele>101.0</ele><time>2026-03-29T08:01:50Z</time></trkpt><trkpt lat="43.12871452598166" lon="10.690568908922392"><ele>101.0</ele><time>2026-03-29T08:01:51Z</time></trkpt><trkpt lat="43.12865106470254" lon="10.690804520254266"><ele>101.0</ele><time>2026-03-29T08:01:52Z</time></trkpt><trkpt lat="43.128587835073944" lon="10.691031758500603"><ele>101.0</ele><time>2026-03-29T08:01:53Z</time></trkpt><trkpt lat="43.12851238084741" lon="10.691259357253116"><ele>100.66666666666666</ele><time>2026-03-29T08:01:54Z</time></trkpt><trkpt lat="43.128431373115305" lon="10.691486429302058"><ele>100.33333333333334</ele><time>2026-03-29T08:01:55Z</time></trkpt><trkpt lat="43.1283524642675" lon="10.691713906600143"><ele>100.0</ele><time>2026-03-29T08:01:56Z</time></trkpt><trkpt lat="43.12827618931439" lon="10.69192653794924"><ele>99.33333333333334</ele><time>2026-03-29T08:01:57Z</time></trkpt><trkpt lat="43.12820056028775" lon="10.692132002497843"><ele>98.66666666666666</ele><time>2026-03-29T08:01:58Z</time></trkpt><trkpt lat="43.128127060299136" lon="10.692302612964244"><ele>98.0</ele><time>2026-03-29T08:01:59Z</time></trkpt><trkpt lat="43.12806227546834" lon="10.692488807643901"><ele>98.0</ele><time>2026-03-29T08:02:00Z</time></trkpt><trkpt lat="43.12798293109117" lon="10.692647385501983"><ele>98.0</ele><time>2026-03-29T08:02:01Z</time></trkpt><trkpt lat="43.12790601585716" lon="10.692837374761563"><ele>98.0</ele><time>2026-03-29T08:02:02Z</time></trkpt><trkpt lat="43.127822603538014" lon="10.693043783689518"><ele>98.0</ele><time>2026-03-29T08:02:03Z</time></trkpt><trkpt lat="43.12773414741252" lon="10.69325299331205"><ele>98.0</ele><time>2026-03-29T08:02:04Z</time></trkpt><trkpt lat="43.12765282481176" lon="10.693444892934632"><ele>98.0</ele><time>2026-03-29T08:02:05Z</time></trkpt><trkpt lat="43.127588395693444" lon="10.693639841559143"><ele>98.0</ele><time>2026-03-29T08:02:06Z</time></trkpt><trkpt lat="43.12750040948435" lon="10.693815505087889"><ele>98.0</ele><time>2026-03-29T08:02:07Z</time></trkpt><trkpt lat="43.12742575497129" lon="10.693999259925103"><ele>98.0</ele><time>2026-03-29T08:02:08Z</time></trkpt><trkpt lat="43.12735963013023" lon="10.69420109093784"><ele>97.0</ele><time>2026-03-29T08:02:09Z</time></trkpt><trkpt lat="43.12727455768202" lon="10.694389710819832"><ele>96.0</ele><time>2026-03-29T08:02:10Z</time></trkpt><trkpt lat="43.12719412358517" lon="10.69457631623556"><ele>95.0</ele><time>2026-03-29T08:02:11Z</time></trkpt><trkpt lat="43.127112051043994" lon="10.694766547345832"><ele>94.66666666666667</ele><time>2026-03-29T08:02:12Z</time></trkpt><trkpt lat="43.127027961443694" lon="10.694958273138932"><ele>94.33333333333333</ele><time>2026-03-29T08:02:13Z</time></trkpt><trkpt lat="43.126945841657886" lon="10.69515466150591"><ele>94.0</ele><time>2026-03-29T08:02:14Z</time></trkpt><trkpt lat="43.126873901004274" lon="10.695342163658308"><ele>94.0</ele><time>2026-03-29T08:02:15Z</time></trkpt><trkpt lat="43.12679889534031" lon="10.695523490186538"><ele>94.0</ele><time>2026-03-29T08:02:16Z</time></trkpt><trkpt lat="43.12672365710836" lon="10.695703352848986"><ele>94.0</ele><time>2026-03-29T08:02:17Z</time></trkpt><trkpt lat="43.12664070536188" lon="10.695886739242193"><ele>94.0</ele><time>2026-03-29T08:02:18Z</time></trkpt><trkpt lat="43.126562302070454" lon="10.696072123827756"><ele>94.0</ele><time>2026-03-29T08:02:19Z</time></trkpt><trkpt lat="43.12648211586448" lon="10.696256873996488"><ele>94.0</ele><time>2026-03-29T08:02:20Z</time></trkpt><trkpt lat="43.126403160049506" lon="10.69643638271464"><ele>93.33333333333333</ele><time>2026-03-29T08:02:21Z</time></trkpt><trkpt lat="43.12632067925849" lon="10.696625240923785"><ele>92.66666666666667</ele><time>2026-03-29T08:02:22Z</time></trkpt><trkpt lat="43.12624292141787" lon="10.69679949303066"><ele>92.0</ele><time>2026-03-29T08:02:23Z</time></trkpt><trkpt lat="43.12617652855807" lon="10.696980153509722"><ele>91.33333333333334</ele><time>2026-03-29T08:02:24Z</time></trkpt><trkpt lat="43.126115091027046" lon="10.69716990835705"><ele>90.66666666666667</ele><time>2026-03-29T08:02:25Z</time></trkpt><trkpt lat="43.12605705267506" lon="10.697370608027763"><ele>90.0</ele><time>2026-03-29T08:02:26Z</time></trkpt><trkpt lat="43.1260104004526" lon="10.69757095438996"><ele>91.0</ele><time>2026-03-29T08:02:27Z</time></trkpt><trkpt lat="43.125968799471515" lon="10.697773854220543"><ele>92.0</ele><time>2026-03-29T08:02:28Z</time></trkpt><trkpt lat="43.1259338456067" lon="10.697977722924385"><ele>93.0</ele><time>2026-03-29T08:02:29Z</time></trkpt><trkpt lat="43.12589426496702" lon="10.69818422576033"><ele>93.0</ele><time>2026-03-29T08:02:30Z</time></trkpt><trkpt lat="43.125848018116045" lon="10.698383937965088"><ele>93.0</ele><time>2026-03-29T08:02:31Z</time></trkpt><trkpt lat="43.1257968313394" lon="10.698590973607141"><ele>93.0</ele><time>2026-03-29T08:02:32Z</time></trkpt><trkpt lat="43.125746050234" lon="10.698820098217382"><ele>91.66666666666667</ele><time>2026-03-29T08:02:33Z</time></trkpt><trkpt lat="43.12569890212997" lon="10.699055530009447"><ele>90.33333333333334</ele><time>2026-03-29T08:02:34Z</time></trkpt><trkpt lat="43.12565145320796" lon="10.699290981423756"><ele>89.0</ele><time>2026-03-29T08:02:35Z</time></trkpt><trkpt lat="43.1256057440033" lon="10.699517800951542"><ele>89.0</ele><time>2026-03-29T08:02:36Z</time></trkpt><trkpt lat="43.125563128792955" lon="10.699739657033833"><ele>89.0</ele><time>2026-03-29T08:02:37Z</time></trkpt><trkpt lat="43.12551471413067" lon="10.699962276623754"><ele>89.0</ele><time>2026-03-29T08:02:38Z</time></trkpt><trkpt lat="43.125467528965196" lon="10.70017856733811"><ele>89.0</ele><time>2026-03-29T08:02:39Z</time></trkpt><trkpt lat="43.125425988223334" lon="10.700394303183781"><ele>89.0</ele><time>2026-03-29T08:02:40Z</time></trkpt><trkpt lat="43.12538758984988" lon="10.700607208048202"><ele>89.0</ele><time>2026-03-29T08:02:41Z</time></trkpt><trkpt lat="43.12535208479086" lon="10.70083305738858"><ele>89.0</ele><time>2026-03-29T08:02:42Z</time></trkpt><trkpt lat="43.125312201957115" lon="10.701049419550326"><ele>89.0</ele><time>2026-03-29T08:02:43Z</time></trkpt><trkpt lat="43.12527459537376" lon="10.701269886923281"><ele>89.0</ele><time>2026-03-29T08:02:44Z</time></trkpt><trkpt lat="43.12529707733465" lon="10.701509226681921"><ele>89.33333333333334</ele><time>2026-03-29T08:02:45Z</time></trkpt><trkpt lat="43.12528693386092" lon="10.701740058946296"><ele>89.66666666666667</ele><time>2026-03-29T08:02:46Z</time></trkpt><trkpt lat="43.12527864279535" lon="10.701966260771544"><ele>90.0</ele><time>2026-03-29T08:02:47Z</time></trkpt><trkpt lat="43.12527042165846" lon="10.702202297604304"><ele>90.0</ele><time>2026-03-29T08:02:48Z</time></trkpt><trkpt lat="43.1252543336528" lon="10.702437856178369"><ele>90.0</ele><time>2026-03-29T08:02:49Z</time></trkpt><trkpt lat="43.125235270801944" lon="10.702669504931071"><ele>90.0</ele><time>2026-03-29T08:02:50Z</time></trkpt><trkpt lat="43.12522492221837" lon="10.702905722491916"><ele>89.33333333333333</ele><time>2026-03-29T08:02:51Z</time></trkpt><trkpt lat="43.125212172839554" lon="10.703140689057964"><ele>88.66666666666666</ele><time>2026-03-29T08:02:52Z</time></trkpt><trkpt lat="43.12519417790997" lon="10.703388283058544"><ele>88.0</ele><time>2026-03-29T08:02:53Z</time></trkpt><trkpt lat="43.12517996763136" lon="10.703635712194394"><ele>88.0</ele><time>2026-03-29T08:02:54Z</time></trkpt><trkpt lat="43.12516744944633" lon="10.703881568458618"><ele>88.0</ele><time>2026-03-29T08:02:55Z</time></trkpt><trkpt lat="43.12515261116338" lon="10.704131197301164"><ele>88.0</ele><time>2026-03-29T08:02:56Z</time></trkpt><trkpt lat="43.12514537850347" lon="10.704376820160308"><ele>87.66666666666666</ele><time>2026-03-29T08:02:57Z</time></trkpt><trkpt lat="43.12512784482774" lon="10.70461477616044"><ele>87.33333333333333</ele><time>2026-03-29T08:02:58Z</time></trkpt><trkpt lat="43.12511508840845" lon="10.70485083243533"><ele>87.0</ele><time>2026-03-29T08:02:59Z</time></trkpt><trkpt lat="43.125107782029914" lon="10.705082835777102"><ele>86.66666666666667</ele><time>2026-03-29T08:03:00Z</time></trkpt><trkpt lat="43.12509405705103" lon="10.705320281780006"><ele>86.33333333333334</ele><time>2026-03-29T08:03:01Z</time></trkpt><trkpt lat="43.12507709392376" lon="10.705555812639416"><ele>86.0</ele><time>2026-03-29T08:03:02Z</time></trkpt><trkpt lat="43.12506257666691" lon="10.705788333636688"><ele>86.0</ele><time>2026-03-29T08:03:03Z</time></trkpt><trkpt lat="43.12504744563143" lon="10.706021653692147"><ele>86.0</ele><time>2026-03-29T08:03:04Z</time></trkpt><trkpt lat="43.12503421540164" lon="10.706253312584295"><ele>86.0</ele><time>2026-03-29T08:03:05Z</time></trkpt><trkpt lat="43.125020715101755" lon="10.706483159851246"><ele>86.0</ele><time>2026-03-29T08:03:06Z</time></trkpt><trkpt lat="43.12500749211446" lon="10.706715189123914"><ele>86.0</ele><time>2026-03-29T08:03:07Z</time></trkpt><trkpt lat="43.1249949965778" lon="10.706939709060531"><ele>86.0</ele><time>2026-03-29T08:03:08Z</time></trkpt><trkpt lat="43.1249835881735" lon="10.707169647221903"><ele>86.0</ele><time>2026-03-29T08:03:09Z</time></trkpt><trkpt lat="43.1249712012928" lon="10.707403248280535"><ele>86.0</ele><time>2026-03-29T08:03:10Z</time></trkpt><trkpt lat="43.12495929388913" lon="10.70763389311763"><ele>86.0</ele><time>2026-03-29T08:03:11Z</time></trkpt><trkpt lat="43.124948902867615" lon="10.707867130769566"><ele>86.0</ele><time>2026-03-29T08:03:12Z</time></trkpt><trkpt lat="43.124938127440515" lon="10.708104226930837"><ele>86.0</ele><time>2026-03-29T08:03:13Z</time></trkpt><trkpt lat="43.1249259901352" lon="10.708338307360506"><ele>86.0</ele><time>2026-03-29T08:03:14Z</time></trkpt><trkpt lat="43.124912125126585" lon="10.708573652836849"><ele>85.0</ele><time>2026-03-29T08:03:15Z</time></trkpt><trkpt lat="43.12489777286664" lon="10.708811183043538"><ele>84.0</ele><time>2026-03-29T08:03:16Z</time></trkpt><trkpt lat="43.12488375667232" lon="10.709045832259791"><ele>83.0</ele><time>2026-03-29T08:03:17Z</time></trkpt><trkpt lat="43.124870277150876" lon="10.709278348863004"><ele>82.0</ele><time>2026-03-29T08:03:18Z</time></trkpt><trkpt lat="43.12485744912066" lon="10.709511043110899"><ele>81.0</ele><time>2026-03-29T08:03:19Z</time></trkpt><trkpt lat="43.124844563305196" lon="10.709747734069857"><ele>80.0</ele><time>2026-03-29T08:03:20Z</time></trkpt><trkpt lat="43.12483141425977" lon="10.709980414073057"><ele>80.0</ele><time>2026-03-29T08:03:21Z</time></trkpt><trkpt lat="43.12481598437979" lon="10.710208680162426"><ele>80.0</ele><time>2026-03-29T08:03:22Z</time></trkpt><trkpt lat="43.12480477118359" lon="10.710417248920772"><ele>80.0</ele><time>2026-03-29T08:03:23Z</time></trkpt><trkpt lat="43.124800161402696" lon="10.710618082197296"><ele>80.0</ele><time>2026-03-29T08:03:24Z</time></trkpt><trkpt lat="43.12479268778937" lon="10.710807403558006"><ele>80.0</ele><time>2026-03-29T08:03:25Z</time></trkpt><trkpt lat="43.12478301351316" lon="10.7109784490253"><ele>80.0</ele><time>2026-03-29T08:03:26Z</time></trkpt><trkpt lat="43.12477977765158" lon="10.711118322618468"><ele>80.0</ele><time>2026-03-29T08:03:27Z</time></trkpt><trkpt lat="43.124770384078424" lon="10.711219091174433"><ele>80.0</ele><time>2026-03-29T08:03:28Z</time></trkpt><trkpt lat="43.124696134662315" lon="10.711336580388862"><ele>80.0</ele><time>2026-03-29T08:03:30Z</time></trkpt><trkpt lat="43.12463624347597" lon="10.711392602719316"><ele>80.0</ele><time>2026-03-29T08:03:31Z</time></trkpt><trkpt lat="43.12457861453818" lon="10.711464466766852"><ele>80.0</ele><time>2026-03-29T08:03:32Z</time></trkpt><trkpt lat="43.124522145449305" lon="10.711564293720171"><ele>80.0</ele><time>2026-03-29T08:03:33Z</time></trkpt><trkpt lat="43.12450588996059" lon="10.711704940891654"><ele>80.0</ele><time>2026-03-29T08:03:34Z</time></trkpt><trkpt lat="43.12446138413966" lon="10.711851229329717"><ele>80.0</ele><time>2026-03-29T08:03:35Z</time></trkpt><trkpt lat="43.12443496093747" lon="10.712001269081524"><ele>80.0</ele><time>2026-03-29T08:03:36Z</time></trkpt><trkpt lat="43.12439844929233" lon="10.712148453764552"><ele>80.0</ele><time>2026-03-29T08:03:37Z</time></trkpt><trkpt lat="43.12437956717128" lon="10.712296352292261"><ele>80.0</ele><time>2026-03-29T08:03:38Z</time></trkpt><trkpt lat="43.12434417396591" lon="10.712424643681125"><ele>80.0</ele><time>2026-03-29T08:03:39Z</time></trkpt><trkpt lat="43.12432297849043" lon="10.71254481156719"><ele>80.0</ele><time>2026-03-29T08:03:40Z</time></trkpt><trkpt lat="43.124286762482114" lon="10.712644827241219"><ele>80.0</ele><time>2026-03-29T08:03:41Z</time></trkpt><trkpt lat="43.12425786845841" lon="10.712749753537578"><ele>80.0</ele><time>2026-03-29T08:03:42Z</time></trkpt><trkpt lat="43.12418814535914" lon="10.712818605151746"><ele>80.0</ele><time>2026-03-29T08:03:43Z</time></trkpt><trkpt lat="43.12411513850801" lon="10.712903322248554"><ele>80.0</ele><time>2026-03-29T08:03:44Z</time></trkpt><trkpt lat="43.124037810755425" lon="10.712979681760674"><ele>80.0</ele><time>2026-03-29T08:03:45Z</time></trkpt><trkpt lat="43.12394961715124" lon="10.713084112246422"><ele>81.5</ele><time>2026-03-29T08:03:46Z</time></trkpt><trkpt lat="43.12384674321124" lon="10.713189751017435"><ele>83.0</ele><time>2026-03-29T08:03:47Z</time></trkpt><trkpt lat="43.12375363603793" lon="10.713309098451148"><ele>84.5</ele><time>2026-03-29T08:03:48Z</time></trkpt><trkpt lat="43.12365883728767" lon="10.713423367149778"><ele>86.0</ele><time>2026-03-29T08:03:49Z</time></trkpt><trkpt lat="43.12357694787192" lon="10.713551010005688"><ele>85.75</ele><time>2026-03-29T08:03:50Z</time></trkpt><trkpt lat="43.123485960567656" lon="10.713665773461171"><ele>85.5</ele><time>2026-03-29T08:03:51Z</time></trkpt><trkpt lat="43.123393466146695" lon="10.713779305384218"><ele>85.25</ele><time>2026-03-29T08:03:52Z</time></trkpt><trkpt lat="43.123304408325765" lon="10.713888954300499"><ele>85.0</ele><time>2026-03-29T08:03:53Z</time></trkpt><trkpt lat="43.1232235783775" lon="10.713995532733945"><ele>88.5</ele><time>2026-03-29T08:03:54Z</time></trkpt><trkpt lat="43.12315739631139" lon="10.714122715258544"><ele>92.0</ele><time>2026-03-29T08:03:55Z</time></trkpt><trkpt lat="43.123101048834265" lon="10.714272381499972"><ele>95.5</ele><time>2026-03-29T08:03:56Z</time></trkpt><trkpt lat="43.123026062942735" lon="10.714394971239837"><ele>99.0</ele><time>2026-03-29T08:03:57Z</time></trkpt><trkpt lat="43.12295606142568" lon="10.714527301828186"><ele>99.0</ele><time>2026-03-29T08:03:58Z</time></trkpt><trkpt lat="43.12289384378354" lon="10.71464992992924"><ele>99.0</ele><time>2026-03-29T08:03:59Z</time></trkpt><trkpt lat="43.12285710403234" lon="10.714786246380994"><ele>99.0</ele><time>2026-03-29T08:04:00Z</time></trkpt><trkpt lat="43.122852233441535" lon="10.714916023597759"><ele>99.0</ele><time>2026-03-29T08:04:01Z</time></trkpt><trkpt lat="43.122837300495085" lon="10.715072698314168"><ele>99.0</ele><time>2026-03-29T08:04:02Z</time></trkpt><trkpt lat="43.12282828362705" lon="10.715258387567602"><ele>98.25</ele><time>2026-03-29T08:04:03Z</time></trkpt><trkpt lat="43.122840211843204" lon="10.715439869760521"><ele>97.5</ele><time>2026-03-29T08:04:04Z</time></trkpt><trkpt lat="43.122843474975596" lon="10.715616273733687"><ele>96.75</ele><time>2026-03-29T08:04:05Z</time></trkpt><trkpt lat="43.122851944794775" lon="10.715743165276892"><ele>96.0</ele><time>2026-03-29T08:04:06Z</time></trkpt><trkpt lat="43.12286602435799" lon="10.715891364454874"><ele>96.0</ele><time>2026-03-29T08:04:08Z</time></trkpt><trkpt lat="43.122685512822244" lon="10.715955113402655"><ele>96.0</ele><time>2026-03-29T08:04:11Z</time></trkpt><trkpt lat="43.122620287438046" lon="10.71598538724921"><ele>96.0</ele><time>2026-03-29T08:04:12Z</time></trkpt><trkpt lat="43.12253837535629" lon="10.716000215092164"><ele>96.0</ele><time>2026-03-29T08:04:13Z</time></trkpt><trkpt lat="43.12245858108666" lon="10.715990050895678"><ele>96.0</ele><time>2026-03-29T08:04:14Z</time></trkpt><trkpt lat="43.122387662711354" lon="10.715986209453598"><ele>96.6</ele><time>2026-03-29T08:04:15Z</time></trkpt><trkpt lat="43.12231931317326" lon="10.715926246071806"><ele>97.19999999999999</ele><time>2026-03-29T08:04:16Z</time></trkpt><trkpt lat="43.12226654596388" lon="10.71583715742514"><ele>97.80000000000001</ele><time>2026-03-29T08:04:17Z</time></trkpt><trkpt lat="43.12222496858385" lon="10.715718965742882"><ele>98.4</ele><time>2026-03-29T08:04:18Z</time></trkpt><trkpt lat="43.122155886685086" lon="10.715548728240224"><ele>99.0</ele><time>2026-03-29T08:04:19Z</time></trkpt><trkpt lat="43.12210130481118" lon="10.715378133117223"><ele>102.66666666666666</ele><time>2026-03-29T08:04:20Z</time></trkpt><trkpt lat="43.12205228887115" lon="10.715179758170269"><ele>106.33333333333333</ele><time>2026-03-29T08:04:21Z</time></trkpt><trkpt lat="43.12201194046554" lon="10.714961357885054"><ele>110.0</ele><time>2026-03-29T08:04:22Z</time></trkpt><trkpt lat="43.121986979719466" lon="10.714758453606242"><ele>110.0</ele><time>2026-03-29T08:04:23Z</time></trkpt><trkpt lat="43.121966951816255" lon="10.714580288207932"><ele>110.0</ele><time>2026-03-29T08:04:24Z</time></trkpt><trkpt lat="43.121931113350406" lon="10.714398909105956"><ele>110.0</ele><time>2026-03-29T08:04:25Z</time></trkpt><trkpt lat="43.12191241342624" lon="10.714215690889947"><ele>110.0</ele><time>2026-03-29T08:04:26Z</time></trkpt><trkpt lat="43.12189183066404" lon="10.714048521577448"><ele>112.25</ele><time>2026-03-29T08:04:27Z</time></trkpt><trkpt lat="43.12188203200405" lon="10.713881866786414"><ele>114.5</ele><time>2026-03-29T08:04:28Z</time></trkpt><trkpt lat="43.12187458028677" lon="10.713735433686423"><ele>116.75</ele><time>2026-03-29T08:04:29Z</time></trkpt><trkpt lat="43.12185728370717" lon="10.713581559147467"><ele>119.0</ele><time>2026-03-29T08:04:30Z</time></trkpt><trkpt lat="43.121814471977714" lon="10.713443364337893"><ele>120.0</ele><time>2026-03-29T08:04:31Z</time></trkpt><trkpt lat="43.12175452841596" lon="10.713300209811846"><ele>121.0</ele><time>2026-03-29T08:04:32Z</time></trkpt><trkpt lat="43.12165550952358" lon="10.713159849129548"><ele>122.0</ele><time>2026-03-29T08:04:33Z</time></trkpt><trkpt lat="43.121568546987156" lon="10.713013446031049"><ele>123.0</ele><time>2026-03-29T08:04:34Z</time></trkpt><trkpt lat="43.1214904547435" lon="10.712911447748183"><ele>125.0</ele><time>2026-03-29T08:04:35Z</time></trkpt><trkpt lat="43.12142010725665" lon="10.712783910115498"><ele>127.0</ele><time>2026-03-29T08:04:36Z</time></trkpt><trkpt lat="43.12134693186638" lon="10.71258784548642"><ele>129.0</ele><time>2026-03-29T08:04:37Z</time></trkpt><trkpt lat="43.12135062106622" lon="10.71238021984091"><ele>131.0</ele><time>2026-03-29T08:04:38Z</time></trkpt><trkpt lat="43.12133606097301" lon="10.712197882124304"><ele>130.8</ele><time>2026-03-29T08:04:39Z</time></trkpt><trkpt lat="43.121308448630316" lon="10.712074943245318"><ele>130.6</ele><time>2026-03-29T08:04:40Z</time></trkpt><trkpt lat="43.121284697516195" lon="10.711938698692755"><ele>130.4</ele><time>2026-03-29T08:04:41Z</time></trkpt><trkpt lat="43.12121081584964" lon="10.711819162121314"><ele>130.2</ele><time>2026-03-29T08:04:42Z</time></trkpt><trkpt lat="43.12116375203516" lon="10.71166782164501"><ele>130.0</ele><time>2026-03-29T08:04:43Z</time></trkpt><trkpt lat="43.12112766417571" lon="10.711522270020586"><ele>130.0</ele><time>2026-03-29T08:04:44Z</time></trkpt><trkpt lat="43.12112321254421" lon="10.711395971234692"><ele>130.0</ele><time>2026-03-29T08:04:45Z</time></trkpt><trkpt lat="43.121116636367866" lon="10.711157499270167"><ele>130.0</ele><time>2026-03-29T08:04:46Z</time></trkpt><trkpt lat="43.12109908434434" lon="10.71096037495528"><ele>130.0</ele><time>2026-03-29T08:04:47Z</time></trkpt><trkpt lat="43.121085167354046" lon="10.710749871318047"><ele>130.0</ele><time>2026-03-29T08:04:48Z</time></trkpt><trkpt lat="43.12107472347487" lon="10.710569046655912"><ele>130.0</ele><time>2026-03-29T08:04:49Z</time></trkpt><trkpt lat="43.121062530656914" lon="10.710372433190678"><ele>130.0</ele><time>2026-03-29T08:04:50Z</time></trkpt><trkpt lat="43.121076624833414" lon="10.710170132413506"><ele>130.0</ele><time>2026-03-29T08:04:51Z</time></trkpt><trkpt lat="43.121087588123046" lon="10.709961518576321"><ele>131.5</ele><time>2026-03-29T08:04:52Z</time></trkpt><trkpt lat="43.12108688237485" lon="10.709803269634474"><ele>133.0</ele><time>2026-03-29T08:04:53Z</time></trkpt><trkpt lat="43.12108013299554" lon="10.709622537184112"><ele>134.5</ele><time>2026-03-29T08:04:54Z</time></trkpt><trkpt lat="43.12107993879033" lon="10.709457179865648"><ele>136.0</ele><time>2026-03-29T08:04:55Z</time></trkpt><trkpt lat="43.12109696501778" lon="10.709339148258998"><ele>137.75</ele><time>2026-03-29T08:04:56Z</time></trkpt><trkpt lat="43.12106841543623" lon="10.7092249078836"><ele>139.5</ele><time>2026-03-29T08:04:57Z</time></trkpt><trkpt lat="43.12105541758548" lon="10.709048376865852"><ele>141.25</ele><time>2026-03-29T08:04:58Z</time></trkpt><trkpt lat="43.121025577439404" lon="10.708874173513626"><ele>143.0</ele><time>2026-03-29T08:04:59Z</time></trkpt><trkpt lat="43.120995238699855" lon="10.708697744735328"><ele>142.75</ele><time>2026-03-29T08:05:00Z</time></trkpt><trkpt lat="43.12094091472944" lon="10.708535924427634"><ele>142.5</ele><time>2026-03-29T08:05:01Z</time></trkpt><trkpt lat="43.120873485230035" lon="10.70839516409518"><ele>142.25</ele><time>2026-03-29T08:05:02Z</time></trkpt><trkpt lat="43.12079316925214" lon="10.708301319732545"><ele>142.0</ele><time>2026-03-29T08:05:03Z</time></trkpt><trkpt lat="43.12072514840654" lon="10.708203713047913"><ele>140.0</ele><time>2026-03-29T08:05:04Z</time></trkpt><trkpt lat="43.12068405449778" lon="10.708081914580942"><ele>138.0</ele><time>2026-03-29T08:05:05Z</time></trkpt><trkpt lat="43.12068294087431" lon="10.707935247133442"><ele>136.0</ele><time>2026-03-29T08:05:06Z</time></trkpt><trkpt lat="43.12068902334525" lon="10.707735931210362"><ele>134.0</ele><time>2026-03-29T08:05:07Z</time></trkpt><trkpt lat="43.1206982292087" lon="10.707533286342413"><ele>133.5</ele><time>2026-03-29T08:05:08Z</time></trkpt><trkpt lat="43.120697999214414" lon="10.707362470538424"><ele>133.0</ele><time>2026-03-29T08:05:09Z</time></trkpt><trkpt lat="43.12071875167748" lon="10.707180918009822"><ele>132.5</ele><time>2026-03-29T08:05:10Z</time></trkpt><trkpt lat="43.12073858716841" lon="10.706993426574892"><ele>132.0</ele><time>2026-03-29T08:05:11Z</time></trkpt><trkpt lat="43.12077514937323" lon="10.706824784962615"><ele>133.25</ele><time>2026-03-29T08:05:12Z</time></trkpt><trkpt lat="43.120821489712355" lon="10.706650221104741"><ele>134.5</ele><time>2026-03-29T08:05:13Z</time></trkpt><trkpt lat="43.12085931767714" lon="10.70648124326166"><ele>135.75</ele><time>2026-03-29T08:05:14Z</time></trkpt><trkpt lat="43.120895583240795" lon="10.70630636579607"><ele>137.0</ele><time>2026-03-29T08:05:15Z</time></trkpt><trkpt lat="43.120942636257936" lon="10.706122019404548"><ele>136.5</ele><time>2026-03-29T08:05:16Z</time></trkpt><trkpt lat="43.120989178895606" lon="10.70597220568575"><ele>136.0</ele><time>2026-03-29T08:05:17Z</time></trkpt><trkpt lat="43.12104020403449" lon="10.705832822922936"><ele>135.5</ele><time>2026-03-29T08:05:18Z</time></trkpt><trkpt lat="43.121106574609584" lon="10.70557448586266"><ele>135.0</ele><time>2026-03-29T08:05:19Z</time></trkpt><trkpt lat="43.1210814666531" lon="10.70537410093627"><ele>135.8</ele><time>2026-03-29T08:05:20Z</time></trkpt><trkpt lat="43.12110170722387" lon="10.705243584513212"><ele>136.6</ele><time>2026-03-29T08:05:21Z</time></trkpt><trkpt lat="43.12111381042708" lon="10.705116237854963"><ele>137.4</ele><time>2026-03-29T08:05:22Z</time></trkpt><trkpt lat="43.121107187282895" lon="10.704963944724833"><ele>138.2</ele><time>2026-03-29T08:05:23Z</time></trkpt><trkpt lat="43.12108672147254" lon="10.704794744210522"><ele>139.0</ele><time>2026-03-29T08:05:24Z</time></trkpt><trkpt lat="43.121066382542715" lon="10.704642227956809"><ele>139.0</ele><time>2026-03-29T08:05:25Z</time></trkpt><trkpt lat="43.121021175156216" lon="10.704491720396582"><ele>139.0</ele><time>2026-03-29T08:05:26Z</time></trkpt><trkpt lat="43.12097338078817" lon="10.704373841055649"><ele>139.0</ele><time>2026-03-29T08:05:27Z</time></trkpt><trkpt lat="43.120932973986754" lon="10.70427097618632"><ele>139.0</ele><time>2026-03-29T08:05:28Z</time></trkpt><trkpt lat="43.120925601235164" lon="10.704143011232174"><ele>139.0</ele><time>2026-03-29T08:05:29Z</time></trkpt><trkpt lat="43.120927672720015" lon="10.704011874015444"><ele>139.4</ele><time>2026-03-29T08:05:30Z</time></trkpt><trkpt lat="43.12089088874622" lon="10.703896092925785"><ele>139.8</ele><time>2026-03-29T08:05:31Z</time></trkpt><trkpt lat="43.12082673345746" lon="10.703799096416509"><ele>140.2</ele><time>2026-03-29T08:05:32Z</time></trkpt><trkpt lat="43.12072562744523" lon="10.70371854430428"><ele>140.6</ele><time>2026-03-29T08:05:33Z</time></trkpt><trkpt lat="43.1206060025023" lon="10.7036153675537"><ele>141.0</ele><time>2026-03-29T08:05:34Z</time></trkpt><trkpt lat="43.12048126038891" lon="10.703507679649352"><ele>142.75</ele><time>2026-03-29T08:05:35Z</time></trkpt><trkpt lat="43.12037075585381" lon="10.703386135252119"><ele>144.5</ele><time>2026-03-29T08:05:36Z</time></trkpt><trkpt lat="43.12026558110572" lon="10.703238309266656"><ele>146.25</ele><time>2026-03-29T08:05:37Z</time></trkpt><trkpt lat="43.12016880734255" lon="10.703092438587088"><ele>148.0</ele><time>2026-03-29T08:05:38Z</time></trkpt><trkpt lat="43.12009970433139" lon="10.702982953731283"><ele>148.0</ele><time>2026-03-29T08:05:39Z</time></trkpt><trkpt lat="43.120025705371035" lon="10.702842850390246"><ele>148.0</ele><time>2026-03-29T08:05:40Z</time></trkpt><trkpt lat="43.11999188894004" lon="10.702738331089693"><ele>148.0</ele><time>2026-03-29T08:05:41Z</time></trkpt><trkpt lat="43.11997016234187" lon="10.70255377422307"><ele>148.0</ele><time>2026-03-29T08:05:42Z</time></trkpt><trkpt lat="43.11995101010572" lon="10.702409544468996"><ele>148.0</ele><time>2026-03-29T08:05:43Z</time></trkpt><trkpt lat="43.119903953081746" lon="10.702284217899384"><ele>148.0</ele><time>2026-03-29T08:05:44Z</time></trkpt><trkpt lat="43.119858110432794" lon="10.70219915840472"><ele>148.0</ele><time>2026-03-29T08:05:45Z</time></trkpt><trkpt lat="43.119781801975726" lon="10.702129363753"><ele>148.0</ele><time>2026-03-29T08:05:46Z</time></trkpt><trkpt lat="43.11968336409799" lon="10.70209770655778"><ele>148.0</ele><time>2026-03-29T08:05:47Z</time></trkpt><trkpt lat="43.11956918554053" lon="10.702053540894434"><ele>148.0</ele><time>2026-03-29T08:05:48Z</time></trkpt><trkpt lat="43.11948336383748" lon="10.70199527226748"><ele>148.0</ele><time>2026-03-29T08:05:49Z</time></trkpt><trkpt lat="43.119451036944014" lon="10.701919273810532"><ele>148.0</ele><time>2026-03-29T08:05:50Z</time></trkpt><trkpt lat="43.11941962781894" lon="10.701815369187857"><ele>148.0</ele><time>2026-03-29T08:05:51Z</time></trkpt><trkpt lat="43.119387519120096" lon="10.701667424402302"><ele>148.0</ele><time>2026-03-29T08:05:52Z</time></trkpt><trkpt lat="43.11937116767475" lon="10.701452270782763"><ele>147.5</ele><time>2026-03-29T08:05:53Z</time></trkpt><trkpt lat="43.11936685265701" lon="10.701252370313119"><ele>147.0</ele><time>2026-03-29T08:05:54Z</time></trkpt><trkpt lat="43.11934504544837" lon="10.701066914748772"><ele>146.5</ele><time>2026-03-29T08:05:55Z</time></trkpt><trkpt lat="43.119358474357746" lon="10.700921212997972"><ele>146.0</ele><time>2026-03-29T08:05:56Z</time></trkpt><trkpt lat="43.11932418989266" lon="10.700757425064088"><ele>145.66666666666666</ele><time>2026-03-29T08:05:57Z</time></trkpt><trkpt lat="43.11930054788296" lon="10.700639689971506"><ele>145.33333333333331</ele><time>2026-03-29T08:05:58Z</time></trkpt><trkpt lat="43.11927907803066" lon="10.700543205791211"><ele>145.0</ele><time>2026-03-29T08:05:59Z</time></trkpt><trkpt lat="43.11920968862445" lon="10.700431864183543"><ele>144.66666666666666</ele><time>2026-03-29T08:06:01Z</time></trkpt><trkpt lat="43.119150112931706" lon="10.700372724360337"><ele>144.33333333333334</ele><time>2026-03-29T08:06:26Z</time></trkpt><trkpt lat="43.11906982346423" lon="10.700299841427883"><ele>144.0</ele><time>2026-03-29T08:06:28Z</time></trkpt><trkpt lat="43.118998589352" lon="10.70027414796373"><ele>144.0</ele><time>2026-03-29T08:06:31Z</time></trkpt><trkpt lat="43.1190220124271" lon="10.700355068784624"><ele>144.0</ele><time>2026-03-29T08:09:37Z</time></trkpt><trkpt lat="43.119126930277936" lon="10.700381891179942"><ele>144.0</ele><time>2026-03-29T08:17:19Z</time></trkpt><trkpt lat="43.119193037231604" lon="10.700438558093444"><ele>144.0</ele><time>2026-03-29T08:17:21Z</time></trkpt><trkpt lat="43.11921190760479" lon="10.700348064808608"><ele>144.0</ele><time>2026-03-29T08:17:25Z</time></trkpt><trkpt lat="43.11916588189386" lon="10.700242160378346"><ele>144.0</ele><time>2026-03-29T08:17:28Z</time></trkpt><trkpt lat="43.11913098343794" lon="10.7001184737951"><ele>143.6</ele><time>2026-03-29T08:17:30Z</time></trkpt><trkpt lat="43.11910147159995" lon="10.699997734592626"><ele>143.2</ele><time>2026-03-29T08:17:32Z</time></trkpt><trkpt lat="43.11906204824296" lon="10.699857720495642"><ele>142.79999999999998</ele><time>2026-03-29T08:17:34Z</time></trkpt><trkpt lat="43.11899530324926" lon="10.699726589487524"><ele>142.4</ele><time>2026-03-29T08:17:36Z</time></trkpt><trkpt lat="43.11895258945441" lon="10.699636791593173"><ele>142.0</ele><time>2026-03-29T08:17:37Z</time></trkpt><trkpt lat="43.11891909435433" lon="10.69956251930373"><ele>140.4</ele><time>2026-03-29T08:17:38Z</time></trkpt><trkpt lat="43.11887615818731" lon="10.69949674137834"><ele>138.79999999999998</ele><time>2026-03-29T08:17:39Z</time></trkpt><trkpt lat="43.1188358832851" lon="10.699415689246365"><ele>137.2</ele><time>2026-03-29T08:17:40Z</time></trkpt><trkpt lat="43.118764863108524" lon="10.699289310504254"><ele>135.6</ele><time>2026-03-29T08:17:42Z</time></trkpt><trkpt lat="43.11870429238556" lon="10.699168931353332"><ele>134.0</ele><time>2026-03-29T08:17:44Z</time></trkpt><trkpt lat="43.11864554003784" lon="10.69900945385484"><ele>134.0</ele><time>2026-03-29T08:17:46Z</time></trkpt><trkpt lat="43.11860726071081" lon="10.698923857424065"><ele>134.0</ele><time>2026-03-29T08:17:47Z</time></trkpt><trkpt lat="43.11855614669537" lon="10.698818975959126"><ele>134.0</ele><time>2026-03-29T08:17:48Z</time></trkpt><trkpt lat="43.11850347435836" lon="10.698707796504005"><ele>134.0</ele><time>2026-03-29T08:17:49Z</time></trkpt><trkpt lat="43.118450365315525" lon="10.698597273614146"><ele>134.0</ele><time>2026-03-29T08:17:50Z</time></trkpt><trkpt lat="43.11837895099616" lon="10.698491755255489"><ele>134.0</ele><time>2026-03-29T08:17:51Z</time></trkpt><trkpt lat="43.11830649529553" lon="10.698382602561564"><ele>134.0</ele><time>2026-03-29T08:17:52Z</time></trkpt><trkpt lat="43.118257628915835" lon="10.698290467477957"><ele>134.0</ele><time>2026-03-29T08:17:53Z</time></trkpt><trkpt lat="43.11823172036957" lon="10.698198423862912"><ele>134.0</ele><time>2026-03-29T08:17:54Z</time></trkpt><trkpt lat="43.118220526446514" lon="10.69809970148942"><ele>134.0</ele><time>2026-03-29T08:17:55Z</time></trkpt><trkpt lat="43.11822350748485" lon="10.698000366916295"><ele>134.0</ele><time>2026-03-29T08:17:56Z</time></trkpt><trkpt lat="43.118235837659114" lon="10.6978508795596"><ele>134.0</ele><time>2026-03-29T08:17:58Z</time></trkpt><trkpt lat="43.118243344807105" lon="10.697762039489362"><ele>134.0</ele><time>2026-03-29T08:17:59Z</time></trkpt><trkpt lat="43.11825308766077" lon="10.697673095251242"><ele>134.0</ele><time>2026-03-29T08:18:00Z</time></trkpt><trkpt lat="43.11827637125288" lon="10.697591137286876"><ele>134.0</ele><time>2026-03-29T08:18:01Z</time></trkpt><trkpt lat="43.11835277384912" lon="10.697449727846703"><ele>134.0</ele><time>2026-03-29T08:18:03Z</time></trkpt><trkpt lat="43.118420618277376" lon="10.697412813825807"><ele>134.0</ele><time>2026-03-29T08:18:04Z</time></trkpt><trkpt lat="43.11853812927805" lon="10.697358100101484"><ele>133.5</ele><time>2026-03-29T08:18:05Z</time></trkpt><trkpt lat="43.11860686969524" lon="10.697252900092355"><ele>133.0</ele><time>2026-03-29T08:18:06Z</time></trkpt><trkpt lat="43.11866950135039" lon="10.6971284895075"><ele>132.5</ele><time>2026-03-29T08:18:07Z</time></trkpt><trkpt lat="43.118730740976645" lon="10.696979570081442"><ele>132.0</ele><time>2026-03-29T08:18:08Z</time></trkpt><trkpt lat="43.11879956984739" lon="10.696795315917413"><ele>129.75</ele><time>2026-03-29T08:18:09Z</time></trkpt><trkpt lat="43.11885817514315" lon="10.696597269654387"><ele>127.5</ele><time>2026-03-29T08:18:10Z</time></trkpt><trkpt lat="43.11889813441424" lon="10.696443342245225"><ele>125.25</ele><time>2026-03-29T08:18:11Z</time></trkpt><trkpt lat="43.118930110296375" lon="10.69631280070287"><ele>123.0</ele><time>2026-03-29T08:18:12Z</time></trkpt><trkpt lat="43.11898447911514" lon="10.696180686060998"><ele>123.25</ele><time>2026-03-29T08:18:13Z</time></trkpt><trkpt lat="43.1190534750948" lon="10.696069093842304"><ele>123.5</ele><time>2026-03-29T08:18:14Z</time></trkpt><trkpt lat="43.11916024662268" lon="10.695975593061657"><ele>123.75</ele><time>2026-03-29T08:18:15Z</time></trkpt><trkpt lat="43.11925360823286" lon="10.695876347659537"><ele>124.0</ele><time>2026-03-29T08:18:16Z</time></trkpt><trkpt lat="43.119357952134514" lon="10.695787211631675"><ele>124.0</ele><time>2026-03-29T08:18:17Z</time></trkpt><trkpt lat="43.11943800647124" lon="10.6956877904929"><ele>124.0</ele><time>2026-03-29T08:18:18Z</time></trkpt><trkpt lat="43.11948950685541" lon="10.695535363004039"><ele>124.0</ele><time>2026-03-29T08:18:19Z</time></trkpt><trkpt lat="43.119584017714104" lon="10.695389682719203"><ele>124.0</ele><time>2026-03-29T08:18:20Z</time></trkpt><trkpt lat="43.119654284492476" lon="10.695239029478643"><ele>124.0</ele><time>2026-03-29T08:18:21Z</time></trkpt><trkpt lat="43.11970438558837" lon="10.69509939160778"><ele>124.0</ele><time>2026-03-29T08:18:22Z</time></trkpt><trkpt lat="43.119796734465865" lon="10.694992421226903"><ele>124.0</ele><time>2026-03-29T08:18:23Z</time></trkpt><trkpt lat="43.119866718457516" lon="10.694893541106897"><ele>124.0</ele><time>2026-03-29T08:18:24Z</time></trkpt><trkpt lat="43.11995062845004" lon="10.694786327643083"><ele>126.4</ele><time>2026-03-29T08:18:25Z</time></trkpt><trkpt lat="43.120018353978736" lon="10.69466089314574"><ele>128.8</ele><time>2026-03-29T08:18:26Z</time></trkpt><trkpt lat="43.12011994597866" lon="10.69457228239302"><ele>131.2</ele><time>2026-03-29T08:18:27Z</time></trkpt><trkpt lat="43.1201862829778" lon="10.69448913918899"><ele>133.6</ele><time>2026-03-29T08:18:28Z</time></trkpt><trkpt lat="43.120231075121964" lon="10.69439245967837"><ele>136.0</ele><time>2026-03-29T08:18:29Z</time></trkpt><trkpt lat="43.12027113683623" lon="10.694272399746376"><ele>136.75</ele><time>2026-03-29T08:18:30Z</time></trkpt><trkpt lat="43.120316796702596" lon="10.694123108902756"><ele>137.5</ele><time>2026-03-29T08:18:31Z</time></trkpt><trkpt lat="43.12035308775921" lon="10.693946133659322"><ele>138.25</ele><time>2026-03-29T08:18:32Z</time></trkpt><trkpt lat="43.12037063345707" lon="10.693754916930654"><ele>139.0</ele><time>2026-03-29T08:18:33Z</time></trkpt><trkpt lat="43.12041367847018" lon="10.693559013682426"><ele>139.5</ele><time>2026-03-29T08:18:34Z</time></trkpt><trkpt lat="43.12045311175537" lon="10.693394370378506"><ele>140.0</ele><time>2026-03-29T08:18:35Z</time></trkpt><trkpt lat="43.120479666118726" lon="10.69324009204364"><ele>140.5</ele><time>2026-03-29T08:18:36Z</time></trkpt><trkpt lat="43.12051702647622" lon="10.69309198328308"><ele>141.0</ele><time>2026-03-29T08:18:37Z</time></trkpt><trkpt lat="43.120530845687135" lon="10.69294970359281"><ele>141.0</ele><time>2026-03-29T08:18:38.001Z</time></trkpt><trkpt lat="43.120545553953704" lon="10.692803614534988"><ele>141.0</ele><time>2026-03-29T08:18:39.001Z</time></trkpt><trkpt lat="43.120551414129686" lon="10.69266739354165"><ele>141.0</ele><time>2026-03-29T08:18:40.001Z</time></trkpt><trkpt lat="43.12053884707746" lon="10.69254078536395"><ele>141.0</ele><time>2026-03-29T08:18:41.001Z</time></trkpt><trkpt lat="43.12049872257654" lon="10.692437433641675"><ele>141.0</ele><time>2026-03-29T08:18:42.001Z</time></trkpt><trkpt lat="43.12045169522188" lon="10.692339992737207"><ele>141.2</ele><time>2026-03-29T08:18:43.001Z</time></trkpt><trkpt lat="43.12040786215851" lon="10.69224627128637"><ele>141.39999999999998</ele><time>2026-03-29T08:18:46.001Z</time></trkpt><trkpt lat="43.12040578847023" lon="10.692123218359246"><ele>141.6</ele><time>2026-03-29T08:18:52.001Z</time></trkpt><trkpt lat="43.12036560919588" lon="10.69197062693141"><ele>141.79999999999998</ele><time>2026-03-29T08:18:54Z</time></trkpt><trkpt lat="43.120325232724575" lon="10.691801179363582"><ele>142.0</ele><time>2026-03-29T08:18:56Z</time></trkpt><trkpt lat="43.12031309268664" lon="10.69170430543005"><ele>142.0</ele><time>2026-03-29T08:19:00Z</time></trkpt><trkpt lat="43.12025015722625" lon="10.691660682223553"><ele>142.0</ele><time>2026-03-29T08:19:01Z</time></trkpt><trkpt lat="43.120287941212084" lon="10.691546413366565"><ele>142.0</ele><time>2026-03-29T08:19:04Z</time></trkpt><trkpt lat="43.12032853467265" lon="10.69145732987042"><ele>142.0</ele><time>2026-03-29T08:19:06Z</time></trkpt><trkpt lat="43.12028653406045" lon="10.691376958566368"><ele>142.0</ele><time>2026-03-29T08:19:07Z</time></trkpt><trkpt lat="43.120349058160606" lon="10.691263403154956"><ele>142.0</ele><time>2026-03-29T08:19:09Z</time></trkpt><trkpt lat="43.119961411988704" lon="10.689754819685453"><ele>143.0</ele><time>2026-03-29T08:19:12Z</time></trkpt><trkpt lat="43.11994816227005" lon="10.689662384866637"><ele>144.0</ele><time>2026-03-29T08:19:13Z</time></trkpt><trkpt lat="43.11995764328764" lon="10.689485778163995"><ele>145.0</ele><time>2026-03-29T08:19:15Z</time></trkpt><trkpt lat="43.12000311277496" lon="10.689395458494099"><ele>146.0</ele><time>2026-03-29T08:19:16Z</time></trkpt><trkpt lat="43.12002559420419" lon="10.68923439571817"><ele>147.0</ele><time>2026-03-29T08:19:17Z</time></trkpt><trkpt lat="43.120044831225385" lon="10.689114730574818"><ele>147.4</ele><time>2026-03-29T08:19:18Z</time></trkpt><trkpt lat="43.120055149258576" lon="10.688992921032309"><ele>147.79999999999998</ele><time>2026-03-29T08:19:19Z</time></trkpt><trkpt lat="43.12002793757103" lon="10.688875009604466"><ele>148.2</ele><time>2026-03-29T08:19:20Z</time></trkpt><trkpt lat="43.1199946957052" lon="10.688773967739747"><ele>148.6</ele><time>2026-03-29T08:19:21Z</time></trkpt><trkpt lat="43.119930531095235" lon="10.688639382565045"><ele>149.0</ele><time>2026-03-29T08:19:22Z</time></trkpt><trkpt lat="43.11983536337423" lon="10.688536059270891"><ele>149.4</ele><time>2026-03-29T08:19:23Z</time></trkpt><trkpt lat="43.11976037144048" lon="10.688446247567517"><ele>149.8</ele><time>2026-03-29T08:19:24Z</time></trkpt><trkpt lat="43.119663701313286" lon="10.688390177155586"><ele>150.2</ele><time>2026-03-29T08:19:25Z</time></trkpt><trkpt lat="43.11960162611096" lon="10.688286579138877"><ele>150.6</ele><time>2026-03-29T08:19:26Z</time></trkpt><trkpt lat="43.119541611089" lon="10.688212755023514"><ele>151.0</ele><time>2026-03-29T08:19:27Z</time></trkpt><trkpt lat="43.11952579721097" lon="10.688080201437943"><ele>151.0</ele><time>2026-03-29T08:19:28Z</time></trkpt><trkpt lat="43.11949209806882" lon="10.687944373265196"><ele>151.0</ele><time>2026-03-29T08:19:29Z</time></trkpt><trkpt lat="43.119467840484866" lon="10.687708181585684"><ele>151.0</ele><time>2026-03-29T08:19:30Z</time></trkpt><trkpt lat="43.11955320025872" lon="10.68785916985203"><ele>151.0</ele><time>2026-03-29T08:19:31Z</time></trkpt><trkpt lat="43.11947335868215" lon="10.68758288526457"><ele>152.66666666666669</ele><time>2026-03-29T08:19:32Z</time></trkpt><trkpt lat="43.119417338432655" lon="10.687355080442028"><ele>154.33333333333334</ele><time>2026-03-29T08:19:33Z</time></trkpt><trkpt lat="43.11934394408552" lon="10.687168812354507"><ele>156.0</ele><time>2026-03-29T08:19:34Z</time></trkpt><trkpt lat="43.11950428269567" lon="10.687492771106275"><ele>156.0</ele><time>2026-03-29T08:19:35Z</time></trkpt><trkpt lat="43.119415544199455" lon="10.687315051362399"><ele>156.0</ele><time>2026-03-29T08:19:36Z</time></trkpt><trkpt lat="43.11932402888112" lon="10.68717068127495"><ele>156.0</ele><time>2026-03-29T08:19:37Z</time></trkpt><trkpt lat="43.119183612238984" lon="10.686966874699854"><ele>155.66666666666666</ele><time>2026-03-29T08:19:38Z</time></trkpt><trkpt lat="43.1189883762713" lon="10.686736535296292"><ele>155.33333333333331</ele><time>2026-03-29T08:19:39Z</time></trkpt><trkpt lat="43.1188563518647" lon="10.686616644351753"><ele>155.0</ele><time>2026-03-29T08:19:40Z</time></trkpt><trkpt lat="43.11873182398447" lon="10.686482695996744"><ele>155.0</ele><time>2026-03-29T08:19:41Z</time></trkpt><trkpt lat="43.118635702245875" lon="10.686322786292735"><ele>155.0</ele><time>2026-03-29T08:19:42Z</time></trkpt><trkpt lat="43.11856928466529" lon="10.686191644081935"><ele>155.0</ele><time>2026-03-29T08:19:43Z</time></trkpt><trkpt lat="43.11851429405682" lon="10.686094581208675"><ele>155.0</ele><time>2026-03-29T08:19:44Z</time></trkpt><trkpt lat="43.11844827862164" lon="10.686016552429852"><ele>155.0</ele><time>2026-03-29T08:19:45Z</time></trkpt><trkpt lat="43.1183660005417" lon="10.685963128715617"><ele>154.8</ele><time>2026-03-29T08:19:46Z</time></trkpt><trkpt lat="43.11827189599707" lon="10.685927414325514"><ele>154.6</ele><time>2026-03-29T08:19:47Z</time></trkpt><trkpt lat="43.118208509111646" lon="10.685879801846978"><ele>154.4</ele><time>2026-03-29T08:19:48Z</time></trkpt><trkpt lat="43.118136930131996" lon="10.685787272904905"><ele>154.2</ele><time>2026-03-29T08:19:49Z</time></trkpt><trkpt lat="43.1180682303338" lon="10.685652136553722"><ele>154.0</ele><time>2026-03-29T08:19:50Z</time></trkpt><trkpt lat="43.11800026035127" lon="10.685510000754633"><ele>153.2</ele><time>2026-03-29T08:19:51Z</time></trkpt><trkpt lat="43.11794436928741" lon="10.685392998941765"><ele>152.4</ele><time>2026-03-29T08:19:52Z</time></trkpt><trkpt lat="43.117915011752494" lon="10.685289807305042"><ele>151.6</ele><time>2026-03-29T08:19:53Z</time></trkpt><trkpt lat="43.117892692455534" lon="10.685159431062216"><ele>150.8</ele><time>2026-03-29T08:19:54Z</time></trkpt><trkpt lat="43.11786841301802" lon="10.684985623236864"><ele>150.0</ele><time>2026-03-29T08:19:55Z</time></trkpt><trkpt lat="43.11786351692081" lon="10.684798147782969"><ele>153.75</ele><time>2026-03-29T08:19:56Z</time></trkpt><trkpt lat="43.117840329414435" lon="10.684605445189655"><ele>157.5</ele><time>2026-03-29T08:19:57Z</time></trkpt><trkpt lat="43.11782633745387" lon="10.684436940271352"><ele>161.25</ele><time>2026-03-29T08:19:58Z</time></trkpt><trkpt lat="43.11782698428359" lon="10.68427122387498"><ele>165.0</ele><time>2026-03-29T08:19:59Z</time></trkpt><trkpt lat="43.11785855245189" lon="10.684076308429745"><ele>167.4</ele><time>2026-03-29T08:20:00.001Z</time></trkpt><trkpt lat="43.11788218705788" lon="10.683929386021612"><ele>169.8</ele><time>2026-03-29T08:20:01.001Z</time></trkpt><trkpt lat="43.11786762281217" lon="10.683805574804763"><ele>172.2</ele><time>2026-03-29T08:20:02.001Z</time></trkpt><trkpt lat="43.11785755498975" lon="10.683673562758232"><ele>174.6</ele><time>2026-03-29T08:20:03.001Z</time></trkpt><trkpt lat="43.11783889869324" lon="10.68354077918035"><ele>177.0</ele><time>2026-03-29T08:20:04.001Z</time></trkpt><trkpt lat="43.117820128823894" lon="10.683425002358417"><ele>178.2</ele><time>2026-03-29T08:20:05.001Z</time></trkpt><trkpt lat="43.11777155231441" lon="10.68329644268389"><ele>179.39999999999998</ele><time>2026-03-29T08:20:06.001Z</time></trkpt><trkpt lat="43.117762230120064" lon="10.683167383052126"><ele>180.60000000000002</ele><time>2026-03-29T08:20:07.001Z</time></trkpt><trkpt lat="43.11776804914314" lon="10.683028400886224"><ele>181.8</ele><time>2026-03-29T08:20:08.001Z</time></trkpt><trkpt lat="43.11778204679029" lon="10.6828747665906"><ele>183.0</ele><time>2026-03-29T08:20:09.001Z</time></trkpt><trkpt lat="43.11777398185142" lon="10.682734886587992"><ele>184.5</ele><time>2026-03-29T08:20:10.001Z</time></trkpt><trkpt lat="43.117765909883275" lon="10.68257840022317"><ele>186.0</ele><time>2026-03-29T08:20:11.001Z</time></trkpt><trkpt lat="43.11774861549373" lon="10.68243284451155"><ele>187.5</ele><time>2026-03-29T08:20:12.001Z</time></trkpt><trkpt lat="43.11768200468311" lon="10.682284448009709"><ele>189.0</ele><time>2026-03-29T08:20:13.001Z</time></trkpt><trkpt lat="43.11768403797306" lon="10.682123294580707"><ele>189.0</ele><time>2026-03-29T08:20:14.001Z</time></trkpt><trkpt lat="43.11765214565819" lon="10.681972687181052"><ele>189.0</ele><time>2026-03-29T08:20:15.001Z</time></trkpt><trkpt lat="43.11764921155927" lon="10.681812338217249"><ele>189.0</ele><time>2026-03-29T08:20:16.001Z</time></trkpt><trkpt lat="43.117646961628765" lon="10.681648206231541"><ele>189.0</ele><time>2026-03-29T08:20:17.001Z</time></trkpt><trkpt lat="43.117613373047725" lon="10.681469446878335"><ele>190.5</ele><time>2026-03-29T08:20:18.001Z</time></trkpt><trkpt lat="43.11766278354292" lon="10.681301466758038"><ele>192.0</ele><time>2026-03-29T08:20:19.001Z</time></trkpt><trkpt lat="43.117725526111485" lon="10.681160000632579"><ele>193.5</ele><time>2026-03-29T08:20:20.001Z</time></trkpt><trkpt lat="43.11775997847888" lon="10.681016933302908"><ele>195.0</ele><time>2026-03-29T08:20:21.001Z</time></trkpt><trkpt lat="43.11780381919032" lon="10.680899936585694"><ele>195.0</ele><time>2026-03-29T08:20:22.001Z</time></trkpt><trkpt lat="43.11787155943917" lon="10.680763551759092"><ele>195.0</ele><time>2026-03-29T08:20:23.001Z</time></trkpt><trkpt lat="43.11794041214915" lon="10.680637756999582"><ele>195.0</ele><time>2026-03-29T08:20:24.001Z</time></trkpt><trkpt lat="43.11796670497798" lon="10.680493729443096"><ele>195.0</ele><time>2026-03-29T08:20:25.001Z</time></trkpt><trkpt lat="43.11797352880196" lon="10.680352516857523"><ele>195.0</ele><time>2026-03-29T08:20:26.001Z</time></trkpt><trkpt lat="43.11795454256675" lon="10.68021960960459"><ele>195.0</ele><time>2026-03-29T08:20:27.001Z</time></trkpt><trkpt lat="43.11792718157366" lon="10.680095864028505"><ele>195.0</ele><time>2026-03-29T08:20:28.001Z</time></trkpt><trkpt lat="43.11786443193856" lon="10.679999005376342"><ele>195.0</ele><time>2026-03-29T08:20:29.001Z</time></trkpt><trkpt lat="43.11783921744743" lon="10.67990039442877"><ele>195.0</ele><time>2026-03-29T08:20:30.001Z</time></trkpt><trkpt lat="43.11781546415726" lon="10.679806360137661"><ele>195.0</ele><time>2026-03-29T08:20:31.001Z</time></trkpt><trkpt lat="43.117812521453224" lon="10.679715054983566"><ele>195.0</ele><time>2026-03-29T08:20:32.001Z</time></trkpt><trkpt lat="43.117805886663014" lon="10.679576612742501"><ele>195.0</ele><time>2026-03-29T08:20:33.001Z</time></trkpt><trkpt lat="43.117815417251855" lon="10.679458125773367"><ele>195.0</ele><time>2026-03-29T08:20:34.001Z</time></trkpt><trkpt lat="43.11783721224942" lon="10.679339330788737"><ele>195.0</ele><time>2026-03-29T08:20:35.001Z</time></trkpt><trkpt lat="43.11785777320222" lon="10.679227797985096"><ele>195.0</ele><time>2026-03-29T08:20:36.001Z</time></trkpt><trkpt lat="43.11788792149104" lon="10.67915035077823"><ele>195.0</ele><time>2026-03-29T08:20:37.001Z</time></trkpt><trkpt lat="43.11791089464929" lon="10.679047235791234"><ele>195.0</ele><time>2026-03-29T08:20:38.001Z</time></trkpt><trkpt lat="43.11793295345186" lon="10.678940045709192"><ele>193.4</ele><time>2026-03-29T08:20:40.001Z</time></trkpt><trkpt lat="43.11786750484222" lon="10.678835262511651"><ele>191.8</ele><time>2026-03-29T08:20:43.001Z</time></trkpt><trkpt lat="43.11777215643529" lon="10.678798667558167"><ele>190.2</ele><time>2026-03-29T08:20:44.001Z</time></trkpt><trkpt lat="43.117704480500294" lon="10.678723415689735"><ele>188.6</ele><time>2026-03-29T08:20:45.001Z</time></trkpt><trkpt lat="43.11763728475336" lon="10.67860729976824"><ele>187.0</ele><time>2026-03-29T08:20:46.001Z</time></trkpt><trkpt lat="43.11759326891062" lon="10.678460380357299"><ele>186.0</ele><time>2026-03-29T08:20:47.001Z</time></trkpt><trkpt lat="43.1175636868674" lon="10.678299463945972"><ele>185.0</ele><time>2026-03-29T08:20:48.001Z</time></trkpt><trkpt lat="43.11754411259096" lon="10.678163999524898"><ele>184.0</ele><time>2026-03-29T08:20:49.001Z</time></trkpt><trkpt lat="43.117528660209246" lon="10.678056181741034"><ele>183.0</ele><time>2026-03-29T08:20:50.001Z</time></trkpt><trkpt lat="43.11750593703029" lon="10.677963073107549"><ele>182.0</ele><time>2026-03-29T08:20:51.001Z</time></trkpt><trkpt lat="43.11747875599516" lon="10.677882849687714"><ele>181.0</ele><time>2026-03-29T08:20:52.001Z</time></trkpt><trkpt lat="43.11741576200613" lon="10.67780515364494"><ele>179.83333333333334</ele><time>2026-03-29T08:20:54.001Z</time></trkpt><trkpt lat="43.11736052742099" lon="10.677733245529156"><ele>178.66666666666669</ele><time>2026-03-29T08:20:56.001Z</time></trkpt><trkpt lat="43.117274892779925" lon="10.677671061135237"><ele>177.5</ele><time>2026-03-29T08:20:58.001Z</time></trkpt><trkpt lat="43.11724900194706" lon="10.677544166815117"><ele>176.33333333333334</ele><time>2026-03-29T08:21:00.001Z</time></trkpt><trkpt lat="43.117256195666606" lon="10.677446284425475"><ele>175.16666666666666</ele><time>2026-03-29T08:21:01.001Z</time></trkpt><trkpt lat="43.1172415302704" lon="10.677314129017969"><ele>174.0</ele><time>2026-03-29T08:21:02.001Z</time></trkpt><trkpt lat="43.11727031236392" lon="10.677193869998323"><ele>174.0</ele><time>2026-03-29T08:21:03.001Z</time></trkpt><trkpt lat="43.11728315382789" lon="10.677045029065882"><ele>174.0</ele><time>2026-03-29T08:21:04.001Z</time></trkpt><trkpt lat="43.11729705852042" lon="10.676887512207188"><ele>174.0</ele><time>2026-03-29T08:21:05.001Z</time></trkpt><trkpt lat="43.11731716952021" lon="10.676722318042833"><ele>174.0</ele><time>2026-03-29T08:21:06.001Z</time></trkpt><trkpt lat="43.11734459402797" lon="10.676560551714733"><ele>174.5</ele><time>2026-03-29T08:21:07.001Z</time></trkpt><trkpt lat="43.11735322711691" lon="10.676392846291419"><ele>175.0</ele><time>2026-03-29T08:21:08.001Z</time></trkpt><trkpt lat="43.117379242672435" lon="10.676211257552923"><ele>175.5</ele><time>2026-03-29T08:21:09.001Z</time></trkpt><trkpt lat="43.11738534517191" lon="10.676034455927125"><ele>176.0</ele><time>2026-03-29T08:21:10.001Z</time></trkpt><trkpt lat="43.11741565850073" lon="10.675865720764335"><ele>177.25</ele><time>2026-03-29T08:21:11.001Z</time></trkpt><trkpt lat="43.1173975187535" lon="10.67570319441022"><ele>178.5</ele><time>2026-03-29T08:21:12.001Z</time></trkpt><trkpt lat="43.11737847179075" lon="10.675537081428006"><ele>179.75</ele><time>2026-03-29T08:21:13.001Z</time></trkpt><trkpt lat="43.1173550846433" lon="10.675376401576452"><ele>181.0</ele><time>2026-03-29T08:21:14.001Z</time></trkpt><trkpt lat="43.11734681762941" lon="10.675211923188547"><ele>182.5</ele><time>2026-03-29T08:21:15.001Z</time></trkpt><trkpt lat="43.11736500282122" lon="10.675050215875446"><ele>184.0</ele><time>2026-03-29T08:21:16.001Z</time></trkpt><trkpt lat="43.11736151526292" lon="10.67487256026288"><ele>185.5</ele><time>2026-03-29T08:21:17.001Z</time></trkpt><trkpt lat="43.11737786446247" lon="10.674713858877325"><ele>187.0</ele><time>2026-03-29T08:21:18.001Z</time></trkpt><trkpt lat="43.11741720038725" lon="10.674555311516624"><ele>188.5</ele><time>2026-03-29T08:21:19Z</time></trkpt><trkpt lat="43.11743718820901" lon="10.674425741840357"><ele>190.0</ele><time>2026-03-29T08:21:20Z</time></trkpt><trkpt lat="43.11743432599466" lon="10.67432038123749"><ele>191.5</ele><time>2026-03-29T08:21:21Z</time></trkpt><trkpt lat="43.11739374434799" lon="10.674211841272971"><ele>193.0</ele><time>2026-03-29T08:21:22Z</time></trkpt><trkpt lat="43.117335300184315" lon="10.674113474590282"><ele>194.49999999999997</ele><time>2026-03-29T08:21:23Z</time></trkpt><trkpt lat="43.117306260462165" lon="10.674000373248608"><ele>196.0</ele><time>2026-03-29T08:21:24Z</time></trkpt><trkpt lat="43.11727510183282" lon="10.673872174730326"><ele>196.0</ele><time>2026-03-29T08:21:25Z</time></trkpt><trkpt lat="43.117268184725404" lon="10.673733629236077"><ele>196.0</ele><time>2026-03-29T08:21:26Z</time></trkpt><trkpt lat="43.11725619714459" lon="10.673540071937499"><ele>196.0</ele><time>2026-03-29T08:21:27Z</time></trkpt><trkpt lat="43.11725337864477" lon="10.673386611245936"><ele>196.0</ele><time>2026-03-29T08:21:28Z</time></trkpt><trkpt lat="43.117259724621434" lon="10.673223077774601"><ele>197.0</ele><time>2026-03-29T08:21:29Z</time></trkpt><trkpt lat="43.11727970373205" lon="10.673065981093785"><ele>198.0</ele><time>2026-03-29T08:21:30Z</time></trkpt><trkpt lat="43.11730045861565" lon="10.67284510719271"><ele>199.0</ele><time>2026-03-29T08:21:31Z</time></trkpt><trkpt lat="43.117327224975746" lon="10.672598045355102"><ele>199.0</ele><time>2026-03-29T08:21:32Z</time></trkpt><trkpt lat="43.117348082914425" lon="10.67236375937261"><ele>199.0</ele><time>2026-03-29T08:21:33Z</time></trkpt><trkpt lat="43.117368757128844" lon="10.672148344782453"><ele>199.0</ele><time>2026-03-29T08:21:34Z</time></trkpt><trkpt lat="43.117406301099955" lon="10.671968805460844"><ele>201.2</ele><time>2026-03-29T08:21:35Z</time></trkpt><trkpt lat="43.117420000719875" lon="10.671756687568088"><ele>203.39999999999998</ele><time>2026-03-29T08:21:36Z</time></trkpt><trkpt lat="43.11743764362696" lon="10.671596355901999"><ele>205.6</ele><time>2026-03-29T08:21:37Z</time></trkpt><trkpt lat="43.11744569136912" lon="10.67149296274544"><ele>207.8</ele><time>2026-03-29T08:21:38Z</time></trkpt><trkpt lat="43.11745938775129" lon="10.671380233002422"><ele>210.0</ele><time>2026-03-29T08:21:39Z</time></trkpt><trkpt lat="43.11748697797204" lon="10.67125687438372"><ele>210.0</ele><time>2026-03-29T08:21:40Z</time></trkpt><trkpt lat="43.11753889039675" lon="10.671130211304531"><ele>210.0</ele><time>2026-03-29T08:21:41Z</time></trkpt><trkpt lat="43.117584096597476" lon="10.670976577983799"><ele>210.0</ele><time>2026-03-29T08:21:42Z</time></trkpt><trkpt lat="43.11761456591208" lon="10.670841730089238"><ele>210.0</ele><time>2026-03-29T08:21:43Z</time></trkpt><trkpt lat="43.11765413145609" lon="10.67071642872781"><ele>210.0</ele><time>2026-03-29T08:21:44Z</time></trkpt><trkpt lat="43.11768864103773" lon="10.67059645618544"><ele>211.4</ele><time>2026-03-29T08:21:45Z</time></trkpt><trkpt lat="43.117693509495695" lon="10.670464532005758"><ele>212.8</ele><time>2026-03-29T08:21:46Z</time></trkpt><trkpt lat="43.11769965183578" lon="10.670335341962344"><ele>214.2</ele><time>2026-03-29T08:21:47Z</time></trkpt><trkpt lat="43.11768473128526" lon="10.670204062342727"><ele>215.6</ele><time>2026-03-29T08:21:48Z</time></trkpt><trkpt lat="43.11765743755476" lon="10.670027157199765"><ele>217.0</ele><time>2026-03-29T08:21:49Z</time></trkpt><trkpt lat="43.11762782459133" lon="10.669858598567588"><ele>218.6</ele><time>2026-03-29T08:21:50Z</time></trkpt><trkpt lat="43.1176324067817" lon="10.669696508517259"><ele>220.2</ele><time>2026-03-29T08:21:51Z</time></trkpt><trkpt lat="43.11768535544666" lon="10.669563932921742"><ele>221.8</ele><time>2026-03-29T08:21:52Z</time></trkpt><trkpt lat="43.11771818248942" lon="10.669425707366802"><ele>223.4</ele><time>2026-03-29T08:21:53Z</time></trkpt><trkpt lat="43.11774586636446" lon="10.669289098488111"><ele>225.0</ele><time>2026-03-29T08:21:54Z</time></trkpt><trkpt lat="43.117776748140436" lon="10.669118687218763"><ele>226.0</ele><time>2026-03-29T08:21:55Z</time></trkpt><trkpt lat="43.1178050482966" lon="10.668946273967268"><ele>227.0</ele><time>2026-03-29T08:21:56Z</time></trkpt><trkpt lat="43.117834036224124" lon="10.66878596857413"><ele>228.0</ele><time>2026-03-29T08:21:57Z</time></trkpt><trkpt lat="43.117855656187224" lon="10.66862751170783"><ele>229.0</ele><time>2026-03-29T08:21:58Z</time></trkpt><trkpt lat="43.11787887858443" lon="10.668495991666248"><ele>229.25</ele><time>2026-03-29T08:21:59Z</time></trkpt><trkpt lat="43.11789706887219" lon="10.66834810391095"><ele>229.5</ele><time>2026-03-29T08:22:00Z</time></trkpt><trkpt lat="43.11791442047954" lon="10.668171551344537"><ele>229.75</ele><time>2026-03-29T08:22:01Z</time></trkpt><trkpt lat="43.117977711615715" lon="10.667976805303386"><ele>230.0</ele><time>2026-03-29T08:22:02Z</time></trkpt><trkpt lat="43.11801435105947" lon="10.667749996510462"><ele>230.0</ele><time>2026-03-29T08:22:03Z</time></trkpt><trkpt lat="43.11804872013046" lon="10.66755701436412"><ele>230.0</ele><time>2026-03-29T08:22:04Z</time></trkpt><trkpt lat="43.11809081777212" lon="10.667368587347124"><ele>230.0</ele><time>2026-03-29T08:22:05Z</time></trkpt><trkpt lat="43.11815326996515" lon="10.667175214896949"><ele>230.0</ele><time>2026-03-29T08:22:06Z</time></trkpt><trkpt lat="43.118208633357156" lon="10.666998514252455"><ele>233.25</ele><time>2026-03-29T08:22:07Z</time></trkpt><trkpt lat="43.11824686401701" lon="10.666834870394515"><ele>236.5</ele><time>2026-03-29T08:22:08Z</time></trkpt><trkpt lat="43.118264539604596" lon="10.666664518622532"><ele>239.75</ele><time>2026-03-29T08:22:09Z</time></trkpt><trkpt lat="43.11826416182976" lon="10.666482715634055"><ele>243.0</ele><time>2026-03-29T08:22:10Z</time></trkpt><trkpt lat="43.11825305884562" lon="10.666285161983785"><ele>242.66666666666669</ele><time>2026-03-29T08:22:11Z</time></trkpt><trkpt lat="43.11824922402318" lon="10.666087104051584"><ele>242.33333333333334</ele><time>2026-03-29T08:22:12Z</time></trkpt><trkpt lat="43.118232881557546" lon="10.66587172504419"><ele>242.0</ele><time>2026-03-29T08:22:13Z</time></trkpt><trkpt lat="43.11825236350241" lon="10.665649972155446"><ele>243.75</ele><time>2026-03-29T08:22:14Z</time></trkpt><trkpt lat="43.11826571014594" lon="10.66544824826606"><ele>245.5</ele><time>2026-03-29T08:22:15Z</time></trkpt><trkpt lat="43.118279106708385" lon="10.665245736862381"><ele>247.25</ele><time>2026-03-29T08:22:16Z</time></trkpt><trkpt lat="43.118291853512815" lon="10.66505304755349"><ele>249.0</ele><time>2026-03-29T08:22:17Z</time></trkpt><trkpt lat="43.11829447913035" lon="10.664868491234458"><ele>251.5</ele><time>2026-03-29T08:22:18Z</time></trkpt><trkpt lat="43.118311681552214" lon="10.664686500449648"><ele>254.0</ele><time>2026-03-29T08:22:19Z</time></trkpt><trkpt lat="43.11832151720281" lon="10.66450403725699"><ele>256.5</ele><time>2026-03-29T08:22:20Z</time></trkpt><trkpt lat="43.118303863116616" lon="10.664360180665234"><ele>259.0</ele><time>2026-03-29T08:22:21Z</time></trkpt><trkpt lat="43.1182858911994" lon="10.664249810991853"><ele>258.8333333333333</ele><time>2026-03-29T08:22:22Z</time></trkpt><trkpt lat="43.11821812398457" lon="10.664122445649493"><ele>258.66666666666663</ele><time>2026-03-29T08:22:23Z</time></trkpt><trkpt lat="43.118155046077334" lon="10.664059214615735"><ele>258.5</ele><time>2026-03-29T08:22:24Z</time></trkpt><trkpt lat="43.1180892035264" lon="10.664001405446356"><ele>258.3333333333333</ele><time>2026-03-29T08:22:25Z</time></trkpt><trkpt lat="43.11801360508174" lon="10.66397330381517"><ele>258.1666666666667</ele><time>2026-03-29T08:22:26Z</time></trkpt><trkpt lat="43.117926931074486" lon="10.663943270769671"><ele>258.0</ele><time>2026-03-29T08:22:27Z</time></trkpt><trkpt lat="43.11784503051708" lon="10.663898044430546"><ele>258.0</ele><time>2026-03-29T08:22:28Z</time></trkpt><trkpt lat="43.11776783106638" lon="10.663815757368779"><ele>258.0</ele><time>2026-03-29T08:22:30Z</time></trkpt><trkpt lat="43.11776228097093" lon="10.663722870297343"><ele>258.0</ele><time>2026-03-29T08:22:31Z</time></trkpt><trkpt lat="43.11773522420368" lon="10.663577232637152"><ele>258.0</ele><time>2026-03-29T08:22:32Z</time></trkpt><trkpt lat="43.117667870968404" lon="10.663416606873852"><ele>258.0</ele><time>2026-03-29T08:22:33Z</time></trkpt><trkpt lat="43.117620384858405" lon="10.663238615701959"><ele>259.6</ele><time>2026-03-29T08:22:34Z</time></trkpt><trkpt lat="43.11756755890697" lon="10.66308500240418"><ele>261.20000000000005</ele><time>2026-03-29T08:22:35Z</time></trkpt><trkpt lat="43.11754813914794" lon="10.66295652459796"><ele>262.8</ele><time>2026-03-29T08:22:36Z</time></trkpt><trkpt lat="43.11757293129198" lon="10.66284719699265"><ele>264.40000000000003</ele><time>2026-03-29T08:22:37.001Z</time></trkpt><trkpt lat="43.11758141920615" lon="10.662717323697679"><ele>266.0</ele><time>2026-03-29T08:22:38.001Z</time></trkpt><trkpt lat="43.117581188355885" lon="10.66259914035995"><ele>266.0</ele><time>2026-03-29T08:22:39.001Z</time></trkpt><trkpt lat="43.11758907300014" lon="10.662434125546065"><ele>266.0</ele><time>2026-03-29T08:22:40.001Z</time></trkpt><trkpt lat="43.11756420811651" lon="10.662236068324509"><ele>266.0</ele><time>2026-03-29T08:22:41.001Z</time></trkpt><trkpt lat="43.11753704789036" lon="10.662071455473036"><ele>266.0</ele><time>2026-03-29T08:22:42.001Z</time></trkpt><trkpt lat="43.11750100015848" lon="10.66190390153403"><ele>266.0</ele><time>2026-03-29T08:22:43.001Z</time></trkpt><trkpt lat="43.11744243245848" lon="10.661726941971256"><ele>266.0</ele><time>2026-03-29T08:22:44.001Z</time></trkpt><trkpt lat="43.11735949815022" lon="10.661554314554964"><ele>266.0</ele><time>2026-03-29T08:22:45.001Z</time></trkpt><trkpt lat="43.11727624815426" lon="10.661389437812572"><ele>266.0</ele><time>2026-03-29T08:22:46.001Z</time></trkpt><trkpt lat="43.117192620544905" lon="10.661246578924601"><ele>267.2</ele><time>2026-03-29T08:22:47.001Z</time></trkpt><trkpt lat="43.11709856689164" lon="10.661103260938695"><ele>268.40000000000003</ele><time>2026-03-29T08:22:48.001Z</time></trkpt><trkpt lat="43.11702197297205" lon="10.661000154035623"><ele>269.6</ele><time>2026-03-29T08:22:49.001Z</time></trkpt><trkpt lat="43.116958953524325" lon="10.6609325589644"><ele>270.8</ele><time>2026-03-29T08:22:50.001Z</time></trkpt><trkpt lat="43.116880296129466" lon="10.66093061120616"><ele>272.0</ele><time>2026-03-29T08:22:51.001Z</time></trkpt><trkpt lat="43.11679825890862" lon="10.660926414213543"><ele>272.0</ele><time>2026-03-29T08:22:52.001Z</time></trkpt><trkpt lat="43.116697672813736" lon="10.660940020674001"><ele>272.0</ele><time>2026-03-29T08:22:53.001Z</time></trkpt><trkpt lat="43.11658620707794" lon="10.660980959490264"><ele>272.0</ele><time>2026-03-29T08:22:54.001Z</time></trkpt><trkpt lat="43.11651496450712" lon="10.66097383419483"><ele>272.0</ele><time>2026-03-29T08:22:55.001Z</time></trkpt><trkpt lat="43.11643469609493" lon="10.66096052254941"><ele>272.0</ele><time>2026-03-29T08:22:58.001Z</time></trkpt><trkpt lat="43.11641271291025" lon="10.660714068909304"><ele>269.75</ele><time>2026-03-29T08:22:59.001Z</time></trkpt><trkpt lat="43.11642928326709" lon="10.660527912962687"><ele>267.5</ele><time>2026-03-29T08:23:00.001Z</time></trkpt><trkpt lat="43.11642265770586" lon="10.660320283609327"><ele>265.25</ele><time>2026-03-29T08:23:01.001Z</time></trkpt><trkpt lat="43.11641640774147" lon="10.660128569536363"><ele>263.0</ele><time>2026-03-29T08:23:02.001Z</time></trkpt><trkpt lat="43.116431942907184" lon="10.659970388580993"><ele>260.5</ele><time>2026-03-29T08:23:03.001Z</time></trkpt><trkpt lat="43.11644069637708" lon="10.659816663048959"><ele>258.0</ele><time>2026-03-29T08:23:04.001Z</time></trkpt><trkpt lat="43.11646182245366" lon="10.659670738147945"><ele>255.5</ele><time>2026-03-29T08:23:05.001Z</time></trkpt><trkpt lat="43.1164609606804" lon="10.659523609400729"><ele>253.0</ele><time>2026-03-29T08:23:06.001Z</time></trkpt><trkpt lat="43.116392938498784" lon="10.659372622606721"><ele>252.8</ele><time>2026-03-29T08:23:07.001Z</time></trkpt><trkpt lat="43.1163743924367" lon="10.659242957805214"><ele>252.60000000000002</ele><time>2026-03-29T08:23:08.001Z</time></trkpt><trkpt lat="43.11636266006501" lon="10.659125753894141"><ele>252.39999999999998</ele><time>2026-03-29T08:23:09.001Z</time></trkpt><trkpt lat="43.11636153962144" lon="10.65897569281292"><ele>252.2</ele><time>2026-03-29T08:23:10.001Z</time></trkpt><trkpt lat="43.11638926925975" lon="10.658834969487872"><ele>252.0</ele><time>2026-03-29T08:23:11.001Z</time></trkpt><trkpt lat="43.116463547143795" lon="10.658722273263319"><ele>253.0</ele><time>2026-03-29T08:23:12.001Z</time></trkpt><trkpt lat="43.11652602876211" lon="10.658538751852657"><ele>254.0</ele><time>2026-03-29T08:23:13.001Z</time></trkpt><trkpt lat="43.11656100194062" lon="10.65841135263377"><ele>255.0</ele><time>2026-03-29T08:23:14.001Z</time></trkpt><trkpt lat="43.11661050394013" lon="10.658298038517179"><ele>256.0</ele><time>2026-03-29T08:23:15.001Z</time></trkpt><trkpt lat="43.11658645173982" lon="10.658183405989433"><ele>257.0</ele><time>2026-03-29T08:23:16.001Z</time></trkpt><trkpt lat="43.116565540555506" lon="10.658017697674065"><ele>257.0</ele><time>2026-03-29T08:23:17.001Z</time></trkpt><trkpt lat="43.116531385181894" lon="10.657836458278558"><ele>257.0</ele><time>2026-03-29T08:23:18.001Z</time></trkpt><trkpt lat="43.11647652201595" lon="10.657678302506191"><ele>257.0</ele><time>2026-03-29T08:23:19.001Z</time></trkpt><trkpt lat="43.11648023283662" lon="10.65747031640877"><ele>257.0</ele><time>2026-03-29T08:23:20.001Z</time></trkpt><trkpt lat="43.11645898291766" lon="10.6573234266323"><ele>258.8</ele><time>2026-03-29T08:23:21.001Z</time></trkpt><trkpt lat="43.11643080890198" lon="10.657197385876739"><ele>260.6</ele><time>2026-03-29T08:23:22.001Z</time></trkpt><trkpt lat="43.11638966719316" lon="10.657112832617502"><ele>262.40000000000003</ele><time>2026-03-29T08:23:23Z</time></trkpt><trkpt lat="43.11632801054121" lon="10.657051623908247"><ele>264.2</ele><time>2026-03-29T08:23:24Z</time></trkpt><trkpt lat="43.11621067297641" lon="10.65708077352516"><ele>266.0</ele><time>2026-03-29T08:23:25Z</time></trkpt><trkpt lat="43.11611239286102" lon="10.657064755190278"><ele>266.0</ele><time>2026-03-29T08:23:26Z</time></trkpt><trkpt lat="43.116009556189354" lon="10.657023256576073"><ele>266.0</ele><time>2026-03-29T08:23:27Z</time></trkpt><trkpt lat="43.115925362472396" lon="10.656967586418688"><ele>266.0</ele><time>2026-03-29T08:23:28Z</time></trkpt><trkpt lat="43.1158669887715" lon="10.656909143328175"><ele>266.0</ele><time>2026-03-29T08:23:29Z</time></trkpt><trkpt lat="43.115836946454834" lon="10.656829374114537"><ele>266.0</ele><time>2026-03-29T08:23:30Z</time></trkpt><trkpt lat="43.115807951257125" lon="10.656714906613495"><ele>266.0</ele><time>2026-03-29T08:23:31Z</time></trkpt><trkpt lat="43.11572137723979" lon="10.656618833830175"><ele>269.75</ele><time>2026-03-29T08:23:32Z</time></trkpt><trkpt lat="43.11562603442161" lon="10.656569173048116"><ele>273.5</ele><time>2026-03-29T08:23:33Z</time></trkpt><trkpt lat="43.115508168017975" lon="10.65661672141059"><ele>277.25</ele><time>2026-03-29T08:23:34Z</time></trkpt><trkpt lat="43.115385457017105" lon="10.656688813385781"><ele>281.0</ele><time>2026-03-29T08:23:35Z</time></trkpt><trkpt lat="43.11527295426853" lon="10.65674350458538"><ele>281.0</ele><time>2026-03-29T08:23:36Z</time></trkpt><trkpt lat="43.11520299011988" lon="10.65682849551914"><ele>281.0</ele><time>2026-03-29T08:23:37Z</time></trkpt><trkpt lat="43.11513965998741" lon="10.656888060584649"><ele>281.0</ele><time>2026-03-29T08:23:38Z</time></trkpt><trkpt lat="43.115069191649326" lon="10.656930084446763"><ele>281.0</ele><time>2026-03-29T08:23:41Z</time></trkpt><trkpt lat="43.1150890719348" lon="10.656707884030196"><ele>281.0</ele><time>2026-03-29T08:23:43Z</time></trkpt><trkpt lat="43.115139666803664" lon="10.656600455319694"><ele>281.0</ele><time>2026-03-29T08:23:44Z</time></trkpt><trkpt lat="43.11520009028414" lon="10.656465386951522"><ele>281.0</ele><time>2026-03-29T08:23:45Z</time></trkpt><trkpt lat="43.11522116774956" lon="10.656273183044028"><ele>281.0</ele><time>2026-03-29T08:23:46Z</time></trkpt><trkpt lat="43.115248948982575" lon="10.65604769720065"><ele>281.0</ele><time>2026-03-29T08:23:47Z</time></trkpt><trkpt lat="43.115313012354434" lon="10.655889936234697"><ele>284.0</ele><time>2026-03-29T08:23:48Z</time></trkpt><trkpt lat="43.115328655075345" lon="10.65574565241786"><ele>287.0</ele><time>2026-03-29T08:23:49Z</time></trkpt><trkpt lat="43.11534148162809" lon="10.65562495021441"><ele>290.0</ele><time>2026-03-29T08:23:50Z</time></trkpt><trkpt lat="43.11534015165795" lon="10.655531131783437"><ele>293.0</ele><time>2026-03-29T08:23:51Z</time></trkpt><trkpt lat="43.115312052745935" lon="10.65543763293512"><ele>296.0</ele><time>2026-03-29T08:23:53Z</time></trkpt><trkpt lat="43.1152242895439" lon="10.655538995362255"><ele>296.0</ele><time>2026-03-29T08:23:55Z</time></trkpt><trkpt lat="43.11520073076337" lon="10.655637849634173"><ele>296.0</ele><time>2026-03-29T08:23:56Z</time></trkpt><trkpt lat="43.11514165110771" lon="10.655752800293053"><ele>296.0</ele><time>2026-03-29T08:23:57Z</time></trkpt><trkpt lat="43.115075804634834" lon="10.655809632214448"><ele>296.0</ele><time>2026-03-29T08:23:58Z</time></trkpt><trkpt lat="43.11495487802438" lon="10.655884425725235"><ele>296.0</ele><time>2026-03-29T08:23:59Z</time></trkpt><trkpt lat="43.11486985349325" lon="10.655964360661839"><ele>296.0</ele><time>2026-03-29T08:24:00Z</time></trkpt><trkpt lat="43.114805625110584" lon="10.655972605130495"><ele>296.0</ele><time>2026-03-29T08:24:01Z</time></trkpt><trkpt lat="43.11474152644204" lon="10.655901504486755"><ele>296.0</ele><time>2026-03-29T08:24:03Z</time></trkpt><trkpt lat="43.11478863048073" lon="10.655762503424102"><ele>296.0</ele><time>2026-03-29T08:24:05Z</time></trkpt><trkpt lat="43.114847111979934" lon="10.655637295825295"><ele>296.0</ele><time>2026-03-29T08:24:06Z</time></trkpt><trkpt lat="43.1149121503296" lon="10.655506841048005"><ele>296.0</ele><time>2026-03-29T08:24:07Z</time></trkpt><trkpt lat="43.11494619813317" lon="10.655424862338668"><ele>296.0</ele><time>2026-03-29T08:24:08Z</time></trkpt><trkpt lat="43.114881864685486" lon="10.655378257505268"><ele>296.0</ele><time>2026-03-29T08:24:10Z</time></trkpt><trkpt lat="43.1148054400642" lon="10.655354770557725"><ele>296.0</ele><time>2026-03-29T08:24:11Z</time></trkpt><trkpt lat="43.1146794288956" lon="10.65535877422375"><ele>296.0</ele><time>2026-03-29T08:24:12Z</time></trkpt><trkpt lat="43.11456866267443" lon="10.655346870044266"><ele>295.8</ele><time>2026-03-29T08:24:13Z</time></trkpt><trkpt lat="43.11447995998097" lon="10.65529350892408"><ele>295.6</ele><time>2026-03-29T08:24:14Z</time></trkpt><trkpt lat="43.114381494953086" lon="10.655198998079898"><ele>295.4</ele><time>2026-03-29T08:24:15Z</time></trkpt><trkpt lat="43.11427153115491" lon="10.65512277051618"><ele>295.2</ele><time>2026-03-29T08:24:16Z</time></trkpt><trkpt lat="43.11420217363011" lon="10.655076594845859"><ele>295.0</ele><time>2026-03-29T08:24:17Z</time></trkpt><trkpt lat="43.114136760388895" lon="10.65502043722034"><ele>298.8</ele><time>2026-03-29T08:24:19Z</time></trkpt><trkpt lat="43.11412391455761" lon="10.65492762555684"><ele>302.6</ele><time>2026-03-29T08:24:45Z</time></trkpt><trkpt lat="43.11424069298568" lon="10.654990468991361"><ele>306.4</ele><time>2026-03-29T08:24:48Z</time></trkpt><trkpt lat="43.114314653487924" lon="10.655045855872153"><ele>310.2</ele><time>2026-03-29T08:24:49Z</time></trkpt><trkpt lat="43.11442676549091" lon="10.655033386275495"><ele>314.0</ele><time>2026-03-29T08:24:50Z</time></trkpt><trkpt lat="43.1145538807678" lon="10.65496952694679"><ele>314.0</ele><time>2026-03-29T08:24:51Z</time></trkpt><trkpt lat="43.11465559940134" lon="10.65488435426187"><ele>314.0</ele><time>2026-03-29T08:24:52Z</time></trkpt><trkpt lat="43.114727808427986" lon="10.654779417068417"><ele>314.0</ele><time>2026-03-29T08:24:53Z</time></trkpt><trkpt lat="43.11479807480951" lon="10.654633687441258"><ele>314.0</ele><time>2026-03-29T08:24:54Z</time></trkpt><trkpt lat="43.114859663206175" lon="10.654462984837613"><ele>314.2</ele><time>2026-03-29T08:24:55Z</time></trkpt><trkpt lat="43.11490905923051" lon="10.654293698397012"><ele>314.4</ele><time>2026-03-29T08:24:56.001Z</time></trkpt><trkpt lat="43.11492672609124" lon="10.65414093498663"><ele>314.6</ele><time>2026-03-29T08:24:57.001Z</time></trkpt><trkpt lat="43.11493219098873" lon="10.65400264661733"><ele>314.8</ele><time>2026-03-29T08:24:58.001Z</time></trkpt><trkpt lat="43.114976918252616" lon="10.653896820522057"><ele>315.0</ele><time>2026-03-29T08:24:59.001Z</time></trkpt><trkpt lat="43.115057975689076" lon="10.653812454548175"><ele>315.0</ele><time>2026-03-29T08:25:00.001Z</time></trkpt><trkpt lat="43.11515487445153" lon="10.653716140188932"><ele>315.0</ele><time>2026-03-29T08:25:01.001Z</time></trkpt><trkpt lat="43.11519233269349" lon="10.653628301872523"><ele>315.0</ele><time>2026-03-29T08:25:02.001Z</time></trkpt><trkpt lat="43.115190263954915" lon="10.653518663989956"><ele>315.0</ele><time>2026-03-29T08:25:03.001Z</time></trkpt><trkpt lat="43.115165516599234" lon="10.653385498465441"><ele>315.0</ele><time>2026-03-29T08:25:04.001Z</time></trkpt><trkpt lat="43.115130623460885" lon="10.653208418042405"><ele>317.0</ele><time>2026-03-29T08:25:05.001Z</time></trkpt><trkpt lat="43.11507441008331" lon="10.652954148146481"><ele>319.0</ele><time>2026-03-29T08:25:06.001Z</time></trkpt><trkpt lat="43.115018616732684" lon="10.652787294064774"><ele>321.0</ele><time>2026-03-29T08:25:07.001Z</time></trkpt><trkpt lat="43.114971345073386" lon="10.652711433688166"><ele>323.0</ele><time>2026-03-29T08:25:08.001Z</time></trkpt><trkpt lat="43.114935671217445" lon="10.652623387988545"><ele>323.75</ele><time>2026-03-29T08:25:09.001Z</time></trkpt><trkpt lat="43.11493480314197" lon="10.652472388308821"><ele>324.5</ele><time>2026-03-29T08:25:11.001Z</time></trkpt><trkpt lat="43.11508542526223" lon="10.652479897375134"><ele>325.25</ele><time>2026-03-29T08:25:12.001Z</time></trkpt><trkpt lat="43.11519781112699" lon="10.652620039660441"><ele>326.0</ele><time>2026-03-29T08:25:13Z</time></trkpt><trkpt lat="43.11536021754975" lon="10.65276372040141"><ele>325.25</ele><time>2026-03-29T08:25:14Z</time></trkpt><trkpt lat="43.115464972719806" lon="10.652864609874607"><ele>324.5</ele><time>2026-03-29T08:25:15Z</time></trkpt><trkpt lat="43.11562696928357" lon="10.652955662286953"><ele>323.75</ele><time>2026-03-29T08:25:16Z</time></trkpt><trkpt lat="43.11572034756775" lon="10.65297480578979"><ele>323.0</ele><time>2026-03-29T08:25:17Z</time></trkpt><trkpt lat="43.11581926803847" lon="10.652955978733226"><ele>323.0</ele><time>2026-03-29T08:25:18Z</time></trkpt><trkpt lat="43.115915205845155" lon="10.65287342439792"><ele>323.0</ele><time>2026-03-29T08:25:19Z</time></trkpt><trkpt lat="43.11600621432817" lon="10.652719435536378"><ele>323.0</ele><time>2026-03-29T08:25:20Z</time></trkpt><trkpt lat="43.11609359054289" lon="10.652512387593138"><ele>323.0</ele><time>2026-03-29T08:25:21Z</time></trkpt><trkpt lat="43.11615548796665" lon="10.652249095956243"><ele>323.0</ele><time>2026-03-29T08:25:22Z</time></trkpt><trkpt lat="43.11621816383693" lon="10.651959164242093"><ele>323.0</ele><time>2026-03-29T08:25:23Z</time></trkpt><trkpt lat="43.116269562123364" lon="10.651687068816164"><ele>323.0</ele><time>2026-03-29T08:25:24Z</time></trkpt><trkpt lat="43.11630342998358" lon="10.651443247993976"><ele>325.0</ele><time>2026-03-29T08:25:25Z</time></trkpt><trkpt lat="43.116332395813906" lon="10.651194680448437"><ele>327.0</ele><time>2026-03-29T08:25:26Z</time></trkpt><trkpt lat="43.116341545694425" lon="10.650937320654865"><ele>329.0</ele><time>2026-03-29T08:25:27Z</time></trkpt><trkpt lat="43.11633889502564" lon="10.650660253225967"><ele>332.25</ele><time>2026-03-29T08:25:28Z</time></trkpt><trkpt lat="43.11634892659251" lon="10.650425295065412"><ele>335.5</ele><time>2026-03-29T08:25:29Z</time></trkpt><trkpt lat="43.11636932842017" lon="10.650247904576064"><ele>338.75</ele><time>2026-03-29T08:25:30Z</time></trkpt><trkpt lat="43.11642485954458" lon="10.650119286342417"><ele>342.0</ele><time>2026-03-29T08:25:31Z</time></trkpt><trkpt lat="43.116501322051406" lon="10.650030921807137"><ele>341.25</ele><time>2026-03-29T08:25:32Z</time></trkpt><trkpt lat="43.11660319233512" lon="10.649893684374712"><ele>340.5</ele><time>2026-03-29T08:25:33Z</time></trkpt><trkpt lat="43.116705095582866" lon="10.649794573620811"><ele>339.75</ele><time>2026-03-29T08:25:34Z</time></trkpt><trkpt lat="43.116756164357646" lon="10.64962692968899"><ele>339.0</ele><time>2026-03-29T08:25:35Z</time></trkpt><trkpt lat="43.116799295470166" lon="10.649387951036042"><ele>339.0</ele><time>2026-03-29T08:25:36Z</time></trkpt><trkpt lat="43.11686215749279" lon="10.64910736310372"><ele>339.0</ele><time>2026-03-29T08:25:37Z</time></trkpt><trkpt lat="43.11692037255735" lon="10.64886185416114"><ele>339.0</ele><time>2026-03-29T08:25:38Z</time></trkpt><trkpt lat="43.11695751141653" lon="10.648673738950789"><ele>340.6</ele><time>2026-03-29T08:25:39Z</time></trkpt><trkpt lat="43.11699886895143" lon="10.648550484954084"><ele>342.2</ele><time>2026-03-29T08:25:40Z</time></trkpt><trkpt lat="43.1170860449745" lon="10.64848797962759"><ele>343.8</ele><time>2026-03-29T08:25:41Z</time></trkpt><trkpt lat="43.11718491054466" lon="10.64850593587513"><ele>345.40000000000003</ele><time>2026-03-29T08:25:42Z</time></trkpt><trkpt lat="43.11731562667707" lon="10.648576653451856"><ele>347.0</ele><time>2026-03-29T08:25:43Z</time></trkpt><trkpt lat="43.11753613655084" lon="10.648672682863266"><ele>338.33333333333337</ele><time>2026-03-29T08:25:44Z</time></trkpt><trkpt lat="43.11770173408248" lon="10.648720637939476"><ele>329.6666666666667</ele><time>2026-03-29T08:25:45Z</time></trkpt><trkpt lat="43.11783625295798" lon="10.648726466119392"><ele>321.0</ele><time>2026-03-29T08:25:46Z</time></trkpt><trkpt lat="43.118012059626956" lon="10.64872557963761"><ele>321.0</ele><time>2026-03-29T08:25:47Z</time></trkpt><trkpt lat="43.11814727320675" lon="10.648702236023643"><ele>321.0</ele><time>2026-03-29T08:25:48Z</time></trkpt><trkpt lat="43.11826081064888" lon="10.648627877155478"><ele>321.0</ele><time>2026-03-29T08:25:49Z</time></trkpt><trkpt lat="43.11836430006473" lon="10.64847033466724"><ele>321.0</ele><time>2026-03-29T08:25:50Z</time></trkpt><trkpt lat="43.118474005427224" lon="10.648273659468991"><ele>325.6666666666667</ele><time>2026-03-29T08:25:51Z</time></trkpt><trkpt lat="43.118549268213265" lon="10.648074552709446"><ele>330.33333333333337</ele><time>2026-03-29T08:25:52Z</time></trkpt><trkpt lat="43.11859154260499" lon="10.64783790681111"><ele>335.0</ele><time>2026-03-29T08:25:53Z</time></trkpt><trkpt lat="43.11861180955431" lon="10.647642639845724"><ele>339.0</ele><time>2026-03-29T08:25:54Z</time></trkpt><trkpt lat="43.1186486335521" lon="10.647499947412424"><ele>343.0</ele><time>2026-03-29T08:25:55Z</time></trkpt><trkpt lat="43.11870786071652" lon="10.64739439953308"><ele>347.0</ele><time>2026-03-29T08:25:56Z</time></trkpt><trkpt lat="43.118833679862874" lon="10.647302671677915"><ele>351.0</ele><time>2026-03-29T08:25:57Z</time></trkpt><trkpt lat="43.11894821747182" lon="10.647285044697298"><ele>351.0</ele><time>2026-03-29T08:25:58Z</time></trkpt><trkpt lat="43.11901920399044" lon="10.647302959369867"><ele>351.0</ele><time>2026-03-29T08:25:59Z</time></trkpt><trkpt lat="43.11910435313221" lon="10.647494556502508"><ele>351.0</ele><time>2026-03-29T08:26:01Z</time></trkpt><trkpt lat="43.11915506289602" lon="10.647632222732458"><ele>351.0</ele><time>2026-03-29T08:26:02Z</time></trkpt><trkpt lat="43.11925688186877" lon="10.647687149551311"><ele>347.8</ele><time>2026-03-29T08:26:03Z</time></trkpt><trkpt lat="43.11938961325862" lon="10.647674142250397"><ele>344.6</ele><time>2026-03-29T08:26:04Z</time></trkpt><trkpt lat="43.11951323231999" lon="10.647642644584117"><ele>341.4</ele><time>2026-03-29T08:26:05Z</time></trkpt><trkpt lat="43.11958862614236" lon="10.647667332178354"><ele>338.2</ele><time>2026-03-29T08:26:06Z</time></trkpt><trkpt lat="43.11960740209374" lon="10.647759258138231"><ele>335.0</ele><time>2026-03-29T08:26:07Z</time></trkpt><trkpt lat="43.1195826783164" lon="10.647894671636884"><ele>332.6666666666667</ele><time>2026-03-29T08:26:08Z</time></trkpt><trkpt lat="43.119500911326384" lon="10.64803478740953"><ele>330.3333333333333</ele><time>2026-03-29T08:26:09Z</time></trkpt><trkpt lat="43.11939696309911" lon="10.648208044118926"><ele>328.0</ele><time>2026-03-29T08:26:10Z</time></trkpt><trkpt lat="43.11934079121606" lon="10.64842145900155"><ele>327.3333333333333</ele><time>2026-03-29T08:26:11Z</time></trkpt><trkpt lat="43.11928451185683" lon="10.648659374477692"><ele>326.6666666666667</ele><time>2026-03-29T08:26:12Z</time></trkpt><trkpt lat="43.11927681974072" lon="10.648875196375133"><ele>326.0</ele><time>2026-03-29T08:26:13Z</time></trkpt><trkpt lat="43.11926495441856" lon="10.649060287020243"><ele>326.0</ele><time>2026-03-29T08:26:14Z</time></trkpt><trkpt lat="43.11926987983351" lon="10.649221414904863"><ele>326.0</ele><time>2026-03-29T08:26:15Z</time></trkpt><trkpt lat="43.119334285207785" lon="10.649331334985337"><ele>326.0</ele><time>2026-03-29T08:26:16Z</time></trkpt><trkpt lat="43.119403965535824" lon="10.649450862891694"><ele>326.0</ele><time>2026-03-29T08:26:17Z</time></trkpt><trkpt lat="43.119512882347905" lon="10.649557132023459"><ele>322.33333333333337</ele><time>2026-03-29T08:26:18Z</time></trkpt><trkpt lat="43.119595949000576" lon="10.649687958284003"><ele>318.6666666666667</ele><time>2026-03-29T08:26:19Z</time></trkpt><trkpt lat="43.119624697610035" lon="10.649913655172153"><ele>315.0</ele><time>2026-03-29T08:26:20Z</time></trkpt><trkpt lat="43.11967058541099" lon="10.650198896191752"><ele>313.0</ele><time>2026-03-29T08:26:21Z</time></trkpt><trkpt lat="43.11970978844391" lon="10.650444743078909"><ele>311.0</ele><time>2026-03-29T08:26:22Z</time></trkpt><trkpt lat="43.119767206977" lon="10.650623850716881"><ele>309.0</ele><time>2026-03-29T08:26:23Z</time></trkpt><trkpt lat="43.11983839116511" lon="10.65072802149784"><ele>307.0</ele><time>2026-03-29T08:26:24Z</time></trkpt><trkpt lat="43.119960040333886" lon="10.650781496573186"><ele>313.0</ele><time>2026-03-29T08:26:25Z</time></trkpt><trkpt lat="43.12009788133987" lon="10.65085073847249"><ele>319.0</ele><time>2026-03-29T08:26:26Z</time></trkpt><trkpt lat="43.12023773232286" lon="10.651018481317822"><ele>325.0</ele><time>2026-03-29T08:26:27Z</time></trkpt><trkpt lat="43.12034398570502" lon="10.651192081798646"><ele>325.0</ele><time>2026-03-29T08:26:28Z</time></trkpt><trkpt lat="43.12045888167017" lon="10.651322802976617"><ele>325.0</ele><time>2026-03-29T08:26:29Z</time></trkpt><trkpt lat="43.120618439742685" lon="10.651420667084565"><ele>325.0</ele><time>2026-03-29T08:26:30Z</time></trkpt><trkpt lat="43.120745100582496" lon="10.651450366412877"><ele>327.3333333333333</ele><time>2026-03-29T08:26:31Z</time></trkpt><trkpt lat="43.120875086665436" lon="10.651492155397277"><ele>329.6666666666667</ele><time>2026-03-29T08:26:32Z</time></trkpt><trkpt lat="43.12104411495461" lon="10.651399959213725"><ele>332.0</ele><time>2026-03-29T08:26:33Z</time></trkpt><trkpt lat="43.12123400098723" lon="10.651274890489331"><ele>332.0</ele><time>2026-03-29T08:26:34Z</time></trkpt><trkpt lat="43.121447492429155" lon="10.65112889048228"><ele>332.0</ele><time>2026-03-29T08:26:35Z</time></trkpt><trkpt lat="43.12162977621294" lon="10.650977714216763"><ele>336.33333333333337</ele><time>2026-03-29T08:26:36Z</time></trkpt><trkpt lat="43.12179410641703" lon="10.650864427590676"><ele>340.6666666666667</ele><time>2026-03-29T08:26:37Z</time></trkpt><trkpt lat="43.121940616194195" lon="10.650821558079546"><ele>345.0</ele><time>2026-03-29T08:26:38Z</time></trkpt><trkpt lat="43.122110581885885" lon="10.650793536705256"><ele>345.0</ele><time>2026-03-29T08:26:39Z</time></trkpt><trkpt lat="43.12227888458223" lon="10.650739154694604"><ele>345.0</ele><time>2026-03-29T08:26:40Z</time></trkpt><trkpt lat="43.12238040011957" lon="10.650704482079853"><ele>345.0</ele><time>2026-03-29T08:26:41Z</time></trkpt><trkpt lat="43.1224737719443" lon="10.650635941264738"><ele>345.0</ele><time>2026-03-29T08:26:42Z</time></trkpt><trkpt lat="43.122581132986085" lon="10.650496497834853"><ele>346.0</ele><time>2026-03-29T08:26:43Z</time></trkpt><trkpt lat="43.122622196931786" lon="10.650277510687959"><ele>347.0</ele><time>2026-03-29T08:26:44Z</time></trkpt><trkpt lat="43.122695150058625" lon="10.650139879540394"><ele>348.0</ele><time>2026-03-29T08:26:45Z</time></trkpt><trkpt lat="43.12274972321016" lon="10.650056427858056"><ele>349.0</ele><time>2026-03-29T08:26:46Z</time></trkpt><trkpt lat="43.12285865530089" lon="10.65004069047226"><ele>349.0</ele><time>2026-03-29T08:26:47Z</time></trkpt><trkpt lat="43.122963625550156" lon="10.649952708385491"><ele>349.0</ele><time>2026-03-29T08:26:48Z</time></trkpt><trkpt lat="43.12303283398023" lon="10.649841875906596"><ele>349.0</ele><time>2026-03-29T08:26:49Z</time></trkpt><trkpt lat="43.123020677784076" lon="10.649692069922946"><ele>349.0</ele><time>2026-03-29T08:26:50Z</time></trkpt><trkpt lat="43.12297759849345" lon="10.649496614672914"><ele>350.75</ele><time>2026-03-29T08:26:51Z</time></trkpt><trkpt lat="43.12294252728606" lon="10.649297826817945"><ele>352.5</ele><time>2026-03-29T08:26:52Z</time></trkpt><trkpt lat="43.12292503247082" lon="10.649096736034412"><ele>354.25</ele><time>2026-03-29T08:26:53Z</time></trkpt><trkpt lat="43.122915077247555" lon="10.648923160682514"><ele>356.0</ele><time>2026-03-29T08:26:54Z</time></trkpt><trkpt lat="43.12288876444208" lon="10.648766928519077"><ele>356.0</ele><time>2026-03-29T08:26:55Z</time></trkpt><trkpt lat="43.12284447113892" lon="10.64863582786633"><ele>356.0</ele><time>2026-03-29T08:26:56Z</time></trkpt><trkpt lat="43.12275976830124" lon="10.648527688973298"><ele>356.0</ele><time>2026-03-29T08:26:57Z</time></trkpt><trkpt lat="43.12269466906899" lon="10.648456719063779"><ele>356.0</ele><time>2026-03-29T08:26:58Z</time></trkpt><trkpt lat="43.12262963354629" lon="10.648366620750354"><ele>356.0</ele><time>2026-03-29T08:26:59Z</time></trkpt><trkpt lat="43.122594007756526" lon="10.648226675040485"><ele>355.8</ele><time>2026-03-29T08:27:00Z</time></trkpt><trkpt lat="43.12257880089462" lon="10.64812803222822"><ele>355.6</ele><time>2026-03-29T08:27:01Z</time></trkpt><trkpt lat="43.12251098027614" lon="10.647995174096621"><ele>355.4</ele><time>2026-03-29T08:27:02.001Z</time></trkpt><trkpt lat="43.12242982215296" lon="10.647887137487707"><ele>355.2</ele><time>2026-03-29T08:27:03.001Z</time></trkpt><trkpt lat="43.122347819345535" lon="10.647767000777362"><ele>355.0</ele><time>2026-03-29T08:27:04.001Z</time></trkpt><trkpt lat="43.12225243411262" lon="10.647680638441217"><ele>355.0</ele><time>2026-03-29T08:27:05.001Z</time></trkpt><trkpt lat="43.12217079357136" lon="10.647604494985785"><ele>355.0</ele><time>2026-03-29T08:27:06.001Z</time></trkpt><trkpt lat="43.1220766017673" lon="10.647519606868501"><ele>355.0</ele><time>2026-03-29T08:27:07Z</time></trkpt><trkpt lat="43.12200323367642" lon="10.647419583261126"><ele>355.0</ele><time>2026-03-29T08:27:08Z</time></trkpt><trkpt lat="43.12196333435461" lon="10.647300446882397"><ele>355.0</ele><time>2026-03-29T08:27:09Z</time></trkpt><trkpt lat="43.12190007898946" lon="10.647193072446779"><ele>355.0</ele><time>2026-03-29T08:27:10Z</time></trkpt><trkpt lat="43.121806081334384" lon="10.647088173266322"><ele>355.0</ele><time>2026-03-29T08:27:11Z</time></trkpt><trkpt lat="43.12169584881896" lon="10.647004970467306"><ele>355.0</ele><time>2026-03-29T08:27:12Z</time></trkpt><trkpt lat="43.12160298315705" lon="10.64695073350552"><ele>355.0</ele><time>2026-03-29T08:27:13Z</time></trkpt><trkpt lat="43.121521240568455" lon="10.6469393743377"><ele>355.0</ele><time>2026-03-29T08:27:14Z</time></trkpt><trkpt lat="43.121441079582" lon="10.646902086428204"><ele>355.0</ele><time>2026-03-29T08:27:15Z</time></trkpt><trkpt lat="43.12135883723815" lon="10.646883838433393"><ele>355.0</ele><time>2026-03-29T08:27:16Z</time></trkpt><trkpt lat="43.12130355059945" lon="10.646805602735887"><ele>355.0</ele><time>2026-03-29T08:27:17Z</time></trkpt><trkpt lat="43.121255564832914" lon="10.646695797697088"><ele>355.0</ele><time>2026-03-29T08:27:18Z</time></trkpt><trkpt lat="43.121231110958014" lon="10.646567909632484"><ele>355.0</ele><time>2026-03-29T08:27:19Z</time></trkpt><trkpt lat="43.12120228922183" lon="10.646433032328414"><ele>355.0</ele><time>2026-03-29T08:27:20Z</time></trkpt><trkpt lat="43.121205647103835" lon="10.646307935572265"><ele>355.0</ele><time>2026-03-29T08:27:21Z</time></trkpt><trkpt lat="43.121251972731606" lon="10.646180708504533"><ele>355.0</ele><time>2026-03-29T08:27:22Z</time></trkpt><trkpt lat="43.12125474434422" lon="10.646041453852353"><ele>355.0</ele><time>2026-03-29T08:27:23Z</time></trkpt><trkpt lat="43.12121706341676" lon="10.645882912042072"><ele>355.0</ele><time>2026-03-29T08:27:24Z</time></trkpt><trkpt lat="43.121163626759866" lon="10.645717241248978"><ele>354.8333333333333</ele><time>2026-03-29T08:27:25Z</time></trkpt><trkpt lat="43.12111336967736" lon="10.645575742945113"><ele>354.66666666666663</ele><time>2026-03-29T08:27:26Z</time></trkpt><trkpt lat="43.12107018174865" lon="10.645459110971395"><ele>354.5</ele><time>2026-03-29T08:27:27Z</time></trkpt><trkpt lat="43.1210546087034" lon="10.645358138087056"><ele>354.3333333333333</ele><time>2026-03-29T08:27:28Z</time></trkpt><trkpt lat="43.121089095978256" lon="10.64527606932568"><ele>354.1666666666667</ele><time>2026-03-29T08:27:29Z</time></trkpt><trkpt lat="43.12115609118317" lon="10.645241048384605"><ele>354.0</ele><time>2026-03-29T08:27:30Z</time></trkpt><trkpt lat="43.12122235462372" lon="10.645309133821673"><ele>354.0</ele><time>2026-03-29T08:27:31Z</time></trkpt><trkpt lat="43.12129954826994" lon="10.64534001722952"><ele>354.0</ele><time>2026-03-29T08:27:32Z</time></trkpt><trkpt lat="43.12140293355265" lon="10.645360020058366"><ele>354.0</ele><time>2026-03-29T08:27:34Z</time></trkpt><trkpt lat="43.12150058131441" lon="10.64534523891571"><ele>354.0</ele><time>2026-03-29T08:27:36Z</time></trkpt><trkpt lat="43.12161324654978" lon="10.645309575889325"><ele>354.0</ele><time>2026-03-29T08:27:38Z</time></trkpt><trkpt lat="43.121671586720154" lon="10.645260683408745"><ele>351.2</ele><time>2026-03-29T08:27:39Z</time></trkpt><trkpt lat="43.121752761807095" lon="10.645128559119986"><ele>348.4</ele><time>2026-03-29T08:27:41Z</time></trkpt><trkpt lat="43.121790731075194" lon="10.645054919595498"><ele>345.6</ele><time>2026-03-29T08:27:42Z</time></trkpt><trkpt lat="43.12182059234528" lon="10.644969628025436"><ele>342.8</ele><time>2026-03-29T08:27:43Z</time></trkpt><trkpt lat="43.121841125318404" lon="10.64479693568833"><ele>340.0</ele><time>2026-03-29T08:27:45Z</time></trkpt><trkpt lat="43.12185037233484" lon="10.644634002073072"><ele>340.0</ele><time>2026-03-29T08:27:47Z</time></trkpt><trkpt lat="43.12185782079182" lon="10.64453035292714"><ele>340.0</ele><time>2026-03-29T08:27:48Z</time></trkpt><trkpt lat="43.12185415665609" lon="10.644441188883803"><ele>340.0</ele><time>2026-03-29T08:27:49Z</time></trkpt><trkpt lat="43.121842474550725" lon="10.644348231953531"><ele>340.0</ele><time>2026-03-29T08:27:50Z</time></trkpt><trkpt lat="43.12183544372869" lon="10.644249387577835"><ele>340.0</ele><time>2026-03-29T08:27:51Z</time></trkpt><trkpt lat="43.121825032505704" lon="10.644163952004314"><ele>340.0</ele><time>2026-03-29T08:27:52Z</time></trkpt><trkpt lat="43.12179352671245" lon="10.643992766335515"><ele>340.8</ele><time>2026-03-29T08:27:54Z</time></trkpt><trkpt lat="43.12177783903137" lon="10.6438262658824"><ele>341.6</ele><time>2026-03-29T08:27:56Z</time></trkpt><trkpt lat="43.12179055176191" lon="10.64369469842325"><ele>342.4</ele><time>2026-03-29T08:27:58Z</time></trkpt><trkpt lat="43.12186336206677" lon="10.643595102559658"><ele>343.2</ele><time>2026-03-29T08:28:00Z</time></trkpt><trkpt lat="43.12193465964621" lon="10.643544177960525"><ele>344.0</ele><time>2026-03-29T08:28:02Z</time></trkpt><trkpt lat="43.12199963230516" lon="10.643507664117731"><ele>343.6666666666667</ele><time>2026-03-29T08:28:04Z</time></trkpt><trkpt lat="43.122069123485126" lon="10.643458957775595"><ele>343.33333333333337</ele><time>2026-03-29T08:28:07Z</time></trkpt><trkpt lat="43.12214152065924" lon="10.643431179695204"><ele>343.0</ele><time>2026-03-29T08:28:11Z</time></trkpt><trkpt lat="43.12220831417634" lon="10.64341315191385"><ele>342.6666666666667</ele><time>2026-03-29T08:28:14Z</time></trkpt><trkpt lat="43.12229394459018" lon="10.6434447404302"><ele>342.3333333333333</ele><time>2026-03-29T08:28:19Z</time></trkpt><trkpt lat="43.12236999238087" lon="10.643456082590316"><ele>342.0</ele><time>2026-03-29T08:28:20Z</time></trkpt><trkpt lat="43.122449926961565" lon="10.643474597911101"><ele>342.0</ele><time>2026-03-29T08:28:21Z</time></trkpt><trkpt lat="43.122540902203475" lon="10.64348191706728"><ele>342.0</ele><time>2026-03-29T08:28:22Z</time></trkpt><trkpt lat="43.122614540177054" lon="10.643527227398883"><ele>342.0</ele><time>2026-03-29T08:28:23Z</time></trkpt><trkpt lat="43.12271044642112" lon="10.643447882685866"><ele>342.0</ele><time>2026-03-29T08:28:24Z</time></trkpt><trkpt lat="43.1227745204571" lon="10.643373601133174"><ele>342.0</ele><time>2026-03-29T08:28:25Z</time></trkpt><trkpt lat="43.12283117726292" lon="10.643273010681948"><ele>342.0</ele><time>2026-03-29T08:28:26Z</time></trkpt><trkpt lat="43.12288476056565" lon="10.643147148580235"><ele>342.0</ele><time>2026-03-29T08:28:27Z</time></trkpt><trkpt lat="43.12295688294185" lon="10.643038088629993"><ele>342.0</ele><time>2026-03-29T08:28:28Z</time></trkpt><trkpt lat="43.12301968858012" lon="10.642942118446616"><ele>342.0</ele><time>2026-03-29T08:28:29Z</time></trkpt><trkpt lat="43.123072728503686" lon="10.642838570714432"><ele>342.0</ele><time>2026-03-29T08:28:30Z</time></trkpt><trkpt lat="43.12311356030219" lon="10.642706955709556"><ele>344.6</ele><time>2026-03-29T08:28:31Z</time></trkpt><trkpt lat="43.12312967816968" lon="10.642568529957218"><ele>347.20000000000005</ele><time>2026-03-29T08:28:32Z</time></trkpt><trkpt lat="43.12313511780782" lon="10.642437090603975"><ele>349.8</ele><time>2026-03-29T08:28:33Z</time></trkpt><trkpt lat="43.12311685091523" lon="10.642325791522003"><ele>352.4</ele><time>2026-03-29T08:28:34Z</time></trkpt><trkpt lat="43.12307172168899" lon="10.642209126059836"><ele>355.0</ele><time>2026-03-29T08:28:35Z</time></trkpt><trkpt lat="43.12298061350604" lon="10.642129103335426"><ele>355.0</ele><time>2026-03-29T08:28:36Z</time></trkpt><trkpt lat="43.1228690312903" lon="10.642075583237744"><ele>355.0</ele><time>2026-03-29T08:28:37Z</time></trkpt><trkpt lat="43.122765020722106" lon="10.642031452727892"><ele>355.0</ele><time>2026-03-29T08:28:38Z</time></trkpt><trkpt lat="43.122675356480435" lon="10.641940002301284"><ele>355.0</ele><time>2026-03-29T08:28:39Z</time></trkpt><trkpt lat="43.122605212180105" lon="10.64179683119825"><ele>354.75</ele><time>2026-03-29T08:28:40Z</time></trkpt><trkpt lat="43.12252925123898" lon="10.641631280622143"><ele>354.5</ele><time>2026-03-29T08:28:41Z</time></trkpt><trkpt lat="43.12247525075725" lon="10.641452183279318"><ele>354.25</ele><time>2026-03-29T08:28:42Z</time></trkpt><trkpt lat="43.12243882911525" lon="10.641275695184362"><ele>354.0</ele><time>2026-03-29T08:28:43Z</time></trkpt><trkpt lat="43.1224214465858" lon="10.641109002157341"><ele>353.5</ele><time>2026-03-29T08:28:44Z</time></trkpt><trkpt lat="43.12240087201388" lon="10.640955437876224"><ele>353.0</ele><time>2026-03-29T08:28:45Z</time></trkpt><trkpt lat="43.12236607866505" lon="10.640808076837683"><ele>352.5</ele><time>2026-03-29T08:28:46Z</time></trkpt><trkpt lat="43.122330510279234" lon="10.640707529176764"><ele>352.0</ele><time>2026-03-29T08:28:47Z</time></trkpt><trkpt lat="43.12231386004092" lon="10.640616918617784"><ele>351.5</ele><time>2026-03-29T08:28:48Z</time></trkpt><trkpt lat="43.122341231233705" lon="10.640534294313097"><ele>351.0</ele><time>2026-03-29T08:28:49Z</time></trkpt><trkpt lat="43.1224086937486" lon="10.640479951780137"><ele>351.0</ele><time>2026-03-29T08:28:50Z</time></trkpt><trkpt lat="43.12250471616937" lon="10.640508901205656"><ele>351.0</ele><time>2026-03-29T08:28:51Z</time></trkpt><trkpt lat="43.122610486050824" lon="10.640637247126708"><ele>351.0</ele><time>2026-03-29T08:28:52Z</time></trkpt><trkpt lat="43.12273768019683" lon="10.640754672782577"><ele>351.0</ele><time>2026-03-29T08:28:53Z</time></trkpt><trkpt lat="43.12286567143255" lon="10.640853575550729"><ele>351.0</ele><time>2026-03-29T08:28:54Z</time></trkpt><trkpt lat="43.122975383978876" lon="10.640941333563502"><ele>351.0</ele><time>2026-03-29T08:28:55Z</time></trkpt><trkpt lat="43.12306497412488" lon="10.640987379543112"><ele>351.0</ele><time>2026-03-29T08:28:56Z</time></trkpt><trkpt lat="43.1231448901304" lon="10.64099602990798"><ele>351.0</ele><time>2026-03-29T08:28:57Z</time></trkpt><trkpt lat="43.123217629779504" lon="10.640915037186932"><ele>351.0</ele><time>2026-03-29T08:28:58Z</time></trkpt><trkpt lat="43.12324083611244" lon="10.640783608384996"><ele>351.0</ele><time>2026-03-29T08:28:59Z</time></trkpt><trkpt lat="43.123232533734594" lon="10.640649148416005"><ele>351.0</ele><time>2026-03-29T08:29:00Z</time></trkpt><trkpt lat="43.123188186871666" lon="10.640523983246656"><ele>351.0</ele><time>2026-03-29T08:29:01Z</time></trkpt><trkpt lat="43.1231508762867" lon="10.640420896398336"><ele>351.0</ele><time>2026-03-29T08:29:02Z</time></trkpt><trkpt lat="43.12317249116438" lon="10.640329444062287"><ele>351.0</ele><time>2026-03-29T08:29:03Z</time></trkpt><trkpt lat="43.12324840023404" lon="10.640264576820618"><ele>351.0</ele><time>2026-03-29T08:29:04Z</time></trkpt><trkpt lat="43.123361623092414" lon="10.640257596554946"><ele>347.25</ele><time>2026-03-29T08:29:05Z</time></trkpt><trkpt lat="43.12348188778687" lon="10.640339929674731"><ele>343.5</ele><time>2026-03-29T08:29:06Z</time></trkpt><trkpt lat="43.12360739595092" lon="10.640375255129902"><ele>339.75</ele><time>2026-03-29T08:29:07Z</time></trkpt><trkpt lat="43.12374694702422" lon="10.640470802594022"><ele>336.0</ele><time>2026-03-29T08:29:08Z</time></trkpt><trkpt lat="43.1238598134923" lon="10.640558659124178"><ele>336.0</ele><time>2026-03-29T08:29:09Z</time></trkpt><trkpt lat="43.12396746214259" lon="10.640649494914879"><ele>336.0</ele><time>2026-03-29T08:29:10Z</time></trkpt><trkpt lat="43.12406447854174" lon="10.640682179562445"><ele>336.0</ele><time>2026-03-29T08:29:11Z</time></trkpt><trkpt lat="43.12419713054471" lon="10.640642753653015"><ele>336.0</ele><time>2026-03-29T08:29:12Z</time></trkpt><trkpt lat="43.12431464429987" lon="10.64054500590295"><ele>334.75</ele><time>2026-03-29T08:29:13Z</time></trkpt><trkpt lat="43.12442476338533" lon="10.640427514907676"><ele>333.5</ele><time>2026-03-29T08:29:14Z</time></trkpt><trkpt lat="43.12452744000176" lon="10.64026801343023"><ele>332.25</ele><time>2026-03-29T08:29:15Z</time></trkpt><trkpt lat="43.124609808962155" lon="10.640101211139811"><ele>331.0</ele><time>2026-03-29T08:29:16Z</time></trkpt><trkpt lat="43.124679512391545" lon="10.639949982754766"><ele>332.20000000000005</ele><time>2026-03-29T08:29:17Z</time></trkpt><trkpt lat="43.124754255089734" lon="10.639820503039495"><ele>333.40000000000003</ele><time>2026-03-29T08:29:18Z</time></trkpt><trkpt lat="43.1248525735017" lon="10.639755262700714"><ele>334.6</ele><time>2026-03-29T08:29:19Z</time></trkpt><trkpt lat="43.124949096763984" lon="10.639713657328443"><ele>335.8</ele><time>2026-03-29T08:29:20Z</time></trkpt><trkpt lat="43.12504588331281" lon="10.639642233808729"><ele>337.0</ele><time>2026-03-29T08:29:21Z</time></trkpt><trkpt lat="43.12514055185942" lon="10.639605359291775"><ele>337.0</ele><time>2026-03-29T08:29:22Z</time></trkpt><trkpt lat="43.12523397531132" lon="10.639560848039427"><ele>337.0</ele><time>2026-03-29T08:29:23Z</time></trkpt><trkpt lat="43.12531766908443" lon="10.639508361167518"><ele>337.0</ele><time>2026-03-29T08:29:24Z</time></trkpt><trkpt lat="43.12542114967522" lon="10.639442310601774"><ele>337.0</ele><time>2026-03-29T08:29:25Z</time></trkpt><trkpt lat="43.125499135949866" lon="10.63936024317802"><ele>337.0</ele><time>2026-03-29T08:29:26Z</time></trkpt><trkpt lat="43.12559003323786" lon="10.639278540448503"><ele>339.0</ele><time>2026-03-29T08:29:27Z</time></trkpt><trkpt lat="43.125665619568466" lon="10.639213426721552"><ele>341.0</ele><time>2026-03-29T08:29:28Z</time></trkpt><trkpt lat="43.1257499327747" lon="10.63912254086891"><ele>343.0</ele><time>2026-03-29T08:29:29Z</time></trkpt><trkpt lat="43.12583096540096" lon="10.639087293594907"><ele>345.0</ele><time>2026-03-29T08:29:30Z</time></trkpt><trkpt lat="43.125891199287096" lon="10.63904472623574"><ele>347.0</ele><time>2026-03-29T08:29:31Z</time></trkpt><trkpt lat="43.12597492717424" lon="10.639092341416625"><ele>349.0</ele><time>2026-03-29T08:29:32Z</time></trkpt><trkpt lat="43.126049185793214" lon="10.639219067735043"><ele>349.0</ele><time>2026-03-29T08:29:33Z</time></trkpt><trkpt lat="43.12608719288857" lon="10.63939721420396"><ele>349.0</ele><time>2026-03-29T08:29:34Z</time></trkpt><trkpt lat="43.126154678932224" lon="10.639585050736578"><ele>349.0</ele><time>2026-03-29T08:29:35Z</time></trkpt><trkpt lat="43.12625080489811" lon="10.639743181345054"><ele>349.0</ele><time>2026-03-29T08:29:36Z</time></trkpt><trkpt lat="43.126332548800264" lon="10.639877864632929"><ele>345.5</ele><time>2026-03-29T08:29:37Z</time></trkpt><trkpt lat="43.12639506975386" lon="10.64001810592363"><ele>342.0</ele><time>2026-03-29T08:29:38Z</time></trkpt><trkpt lat="43.12644741279865" lon="10.640165109496202"><ele>338.5</ele><time>2026-03-29T08:29:39Z</time></trkpt><trkpt lat="43.12646412797418" lon="10.640311963133144"><ele>335.0</ele><time>2026-03-29T08:29:40Z</time></trkpt><trkpt lat="43.12644052058948" lon="10.64048726653229"><ele>332.25</ele><time>2026-03-29T08:29:41Z</time></trkpt><trkpt lat="43.12639781782558" lon="10.64069112314327"><ele>329.5</ele><time>2026-03-29T08:29:42Z</time></trkpt><trkpt lat="43.12634004873343" lon="10.640882438601249"><ele>326.75</ele><time>2026-03-29T08:29:43Z</time></trkpt><trkpt lat="43.12627806617894" lon="10.64105630099342"><ele>324.0</ele><time>2026-03-29T08:29:44Z</time></trkpt><trkpt lat="43.126203873348395" lon="10.641221858024384"><ele>322.25</ele><time>2026-03-29T08:29:45Z</time></trkpt><trkpt lat="43.1261449101826" lon="10.641373526240251"><ele>320.5</ele><time>2026-03-29T08:29:46Z</time></trkpt><trkpt lat="43.12609448486303" lon="10.641526911046533"><ele>318.75</ele><time>2026-03-29T08:29:47Z</time></trkpt><trkpt lat="43.126070552748324" lon="10.64168156267384"><ele>317.0</ele><time>2026-03-29T08:29:48Z</time></trkpt><trkpt lat="43.12606621005233" lon="10.641838570769284"><ele>315.0</ele><time>2026-03-29T08:29:49Z</time></trkpt><trkpt lat="43.12606884339176" lon="10.641986322793224"><ele>313.0</ele><time>2026-03-29T08:29:50Z</time></trkpt><trkpt lat="43.12610339874517" lon="10.642134321504349"><ele>311.0</ele><time>2026-03-29T08:29:51Z</time></trkpt><trkpt lat="43.12615772645791" lon="10.642272158468954"><ele>309.0</ele><time>2026-03-29T08:29:52Z</time></trkpt><trkpt lat="43.12623554459548" lon="10.642397844687126"><ele>309.0</ele><time>2026-03-29T08:29:53Z</time></trkpt><trkpt lat="43.12633264307463" lon="10.64250080458399"><ele>309.0</ele><time>2026-03-29T08:29:54Z</time></trkpt><trkpt lat="43.126440221305415" lon="10.64256025410137"><ele>309.0</ele><time>2026-03-29T08:29:55Z</time></trkpt><trkpt lat="43.1265503796772" lon="10.642623934726018"><ele>309.0</ele><time>2026-03-29T08:29:56Z</time></trkpt><trkpt lat="43.12664862462838" lon="10.642715617761542"><ele>310.25</ele><time>2026-03-29T08:29:57Z</time></trkpt><trkpt lat="43.12670571664892" lon="10.642838777951054"><ele>311.5</ele><time>2026-03-29T08:29:58Z</time></trkpt><trkpt lat="43.126775677913734" lon="10.642978047336248"><ele>312.75</ele><time>2026-03-29T08:29:59Z</time></trkpt><trkpt lat="43.12685875180057" lon="10.643083342315808"><ele>314.0</ele><time>2026-03-29T08:30:00Z</time></trkpt><trkpt lat="43.126952413066014" lon="10.643161198345753"><ele>314.0</ele><time>2026-03-29T08:30:01Z</time></trkpt><trkpt lat="43.12704253892431" lon="10.643215063671061"><ele>314.0</ele><time>2026-03-29T08:30:02Z</time></trkpt><trkpt lat="43.12712976182636" lon="10.643259235161342"><ele>314.0</ele><time>2026-03-29T08:30:03Z</time></trkpt><trkpt lat="43.127200712267104" lon="10.643293136006836"><ele>314.0</ele><time>2026-03-29T08:30:04Z</time></trkpt><trkpt lat="43.127290895490226" lon="10.643337905982543"><ele>314.0</ele><time>2026-03-29T08:30:06Z</time></trkpt><trkpt lat="43.127369742255965" lon="10.643377631746935"><ele>314.0</ele><time>2026-03-29T08:30:22Z</time></trkpt><trkpt lat="43.12747080717614" lon="10.643429875463465"><ele>312.0</ele><time>2026-03-29T08:30:24Z</time></trkpt><trkpt lat="43.127534500535276" lon="10.6434622446096"><ele>310.0</ele><time>2026-03-29T08:30:25Z</time></trkpt><trkpt lat="43.12760577928592" lon="10.64349717244455"><ele>308.0</ele><time>2026-03-29T08:30:26Z</time></trkpt><trkpt lat="43.12767269405644" lon="10.643527677750471"><ele>306.0</ele><time>2026-03-29T08:30:27Z</time></trkpt><trkpt lat="43.12773813724634" lon="10.643561404170184"><ele>304.0</ele><time>2026-03-29T08:30:28Z</time></trkpt><trkpt lat="43.127800918994204" lon="10.643606148828333"><ele>302.0</ele><time>2026-03-29T08:30:29Z</time></trkpt><trkpt lat="43.12790314504356" lon="10.643702243976726"><ele>302.0</ele><time>2026-03-29T08:30:31Z</time></trkpt><trkpt lat="43.12800694564707" lon="10.643782540561991"><ele>302.0</ele><time>2026-03-29T08:30:33Z</time></trkpt><trkpt lat="43.128072987596134" lon="10.64383463370627"><ele>302.0</ele><time>2026-03-29T08:30:34Z</time></trkpt><trkpt lat="43.12814264117715" lon="10.643889630342622"><ele>302.0</ele><time>2026-03-29T08:30:35Z</time></trkpt><trkpt lat="43.12820458994102" lon="10.643938125589878"><ele>302.0</ele><time>2026-03-29T08:30:36Z</time></trkpt><trkpt lat="43.12827908218021" lon="10.64399644022404"><ele>302.0</ele><time>2026-03-29T08:30:37Z</time></trkpt><trkpt lat="43.12834251613671" lon="10.644047892644805"><ele>305.83333333333337</ele><time>2026-03-29T08:30:38Z</time></trkpt><trkpt lat="43.128405125526" lon="10.644101831019368"><ele>309.6666666666667</ele><time>2026-03-29T08:30:39Z</time></trkpt><trkpt lat="43.12847326668735" lon="10.644161095053324"><ele>313.5</ele><time>2026-03-29T08:30:40Z</time></trkpt><trkpt lat="43.12853437528808" lon="10.644213493623974"><ele>317.3333333333333</ele><time>2026-03-29T08:30:41Z</time></trkpt><trkpt lat="43.12862112202961" lon="10.644284305056186"><ele>321.16666666666663</ele><time>2026-03-29T08:30:43Z</time></trkpt><trkpt lat="43.128729838808084" lon="10.64431068985813"><ele>325.0</ele><time>2026-03-29T08:30:45Z</time></trkpt><trkpt lat="43.12880638005111" lon="10.64423127640559"><ele>325.0</ele><time>2026-03-29T08:30:46Z</time></trkpt><trkpt lat="43.12886465761513" lon="10.644141479565068"><ele>325.0</ele><time>2026-03-29T08:30:47Z</time></trkpt><trkpt lat="43.128887656285855" lon="10.643997232521112"><ele>325.0</ele><time>2026-03-29T08:30:48Z</time></trkpt><trkpt lat="43.128894208294746" lon="10.643868815069276"><ele>325.0</ele><time>2026-03-29T08:30:49Z</time></trkpt><trkpt lat="43.128910909306164" lon="10.643773883527386"><ele>325.0</ele><time>2026-03-29T08:30:50Z</time></trkpt><trkpt lat="43.1289436708402" lon="10.643679014123972"><ele>325.0</ele><time>2026-03-29T08:30:51Z</time></trkpt><trkpt lat="43.128990348402176" lon="10.643590297277546"><ele>326.5</ele><time>2026-03-29T08:30:52Z</time></trkpt><trkpt lat="43.12906932496079" lon="10.643551827217486"><ele>328.0</ele><time>2026-03-29T08:30:53Z</time></trkpt><trkpt lat="43.12913607049738" lon="10.643526566334474"><ele>329.5</ele><time>2026-03-29T08:30:54Z</time></trkpt><trkpt lat="43.12924230977346" lon="10.643519330911866"><ele>331.0</ele><time>2026-03-29T08:30:55Z</time></trkpt><trkpt lat="43.129340765810156" lon="10.6435625523366"><ele>332.5</ele><time>2026-03-29T08:30:56Z</time></trkpt><trkpt lat="43.129420461178555" lon="10.643598372101726"><ele>334.0</ele><time>2026-03-29T08:30:57Z</time></trkpt><trkpt lat="43.129491566197835" lon="10.643626130763487"><ele>331.2</ele><time>2026-03-29T08:30:58Z</time></trkpt><trkpt lat="43.12955648376681" lon="10.643661598573944"><ele>328.4</ele><time>2026-03-29T08:30:59Z</time></trkpt><trkpt lat="43.129649573190214" lon="10.643714922931744"><ele>325.6</ele><time>2026-03-29T08:31:00Z</time></trkpt><trkpt lat="43.12973065735404" lon="10.643792436940807"><ele>322.8</ele><time>2026-03-29T08:31:01Z</time></trkpt><trkpt lat="43.12982428232119" lon="10.643832525129662"><ele>320.0</ele><time>2026-03-29T08:31:02Z</time></trkpt><trkpt lat="43.1299068651303" lon="10.643868456626882"><ele>319.4</ele><time>2026-03-29T08:31:03Z</time></trkpt><trkpt lat="43.1299944500842" lon="10.643907370342157"><ele>318.8</ele><time>2026-03-29T08:31:04Z</time></trkpt><trkpt lat="43.13008648263295" lon="10.643953477456506"><ele>318.2</ele><time>2026-03-29T08:31:05Z</time></trkpt><trkpt lat="43.13016921897735" lon="10.644004538810949"><ele>317.6</ele><time>2026-03-29T08:31:06Z</time></trkpt><trkpt lat="43.13024532312919" lon="10.644071136210318"><ele>317.0</ele><time>2026-03-29T08:31:07Z</time></trkpt><trkpt lat="43.13031927369602" lon="10.64414395981996"><ele>317.0</ele><time>2026-03-29T08:31:08Z</time></trkpt><trkpt lat="43.13038257976308" lon="10.644211384316513"><ele>317.0</ele><time>2026-03-29T08:31:09Z</time></trkpt><trkpt lat="43.13044814351103" lon="10.644262636079123"><ele>317.0</ele><time>2026-03-29T08:31:10Z</time></trkpt><trkpt lat="43.13049208480274" lon="10.644344026201361"><ele>317.0</ele><time>2026-03-29T08:31:11Z</time></trkpt><trkpt lat="43.13055107248904" lon="10.644389467367185"><ele>317.0</ele><time>2026-03-29T08:31:12Z</time></trkpt><trkpt lat="43.13059637085746" lon="10.644456668585008"><ele>317.0</ele><time>2026-03-29T08:31:13Z</time></trkpt><trkpt lat="43.13067366264314" lon="10.644554053290157"><ele>316.2</ele><time>2026-03-29T08:31:15Z</time></trkpt><trkpt lat="43.130755208339366" lon="10.64465664619103"><ele>315.4</ele><time>2026-03-29T08:31:17Z</time></trkpt><trkpt lat="43.130826102420414" lon="10.644767130542762"><ele>314.6</ele><time>2026-03-29T08:31:19Z</time></trkpt><trkpt lat="43.13089953087199" lon="10.644901044559408"><ele>313.8</ele><time>2026-03-29T08:31:21Z</time></trkpt><trkpt lat="43.13095229482019" lon="10.644991997681553"><ele>313.0</ele><time>2026-03-29T08:31:22Z</time></trkpt><trkpt lat="43.131001545789175" lon="10.645075184201412"><ele>313.0</ele><time>2026-03-29T08:31:23Z</time></trkpt><trkpt lat="43.13105510130085" lon="10.645154824720029"><ele>313.0</ele><time>2026-03-29T08:31:24Z</time></trkpt><trkpt lat="43.13111211289404" lon="10.64524348113303"><ele>313.0</ele><time>2026-03-29T08:31:25Z</time></trkpt><trkpt lat="43.13117733786553" lon="10.645315322860805"><ele>313.0</ele><time>2026-03-29T08:31:26Z</time></trkpt><trkpt lat="43.13124926820911" lon="10.645374927343063"><ele>313.0</ele><time>2026-03-29T08:31:27Z</time></trkpt><trkpt lat="43.13131693995794" lon="10.645416706976901"><ele>313.0</ele><time>2026-03-29T08:31:28Z</time></trkpt><trkpt lat="43.13138526963956" lon="10.645457386277611"><ele>313.2</ele><time>2026-03-29T08:31:29Z</time></trkpt><trkpt lat="43.13146123338586" lon="10.645501528713543"><ele>313.4</ele><time>2026-03-29T08:31:30Z</time></trkpt><trkpt lat="43.131543513727955" lon="10.645552876009939"><ele>313.59999999999997</ele><time>2026-03-29T08:31:31Z</time></trkpt><trkpt lat="43.13163320076879" lon="10.64557749530101"><ele>313.8</ele><time>2026-03-29T08:31:32Z</time></trkpt><trkpt lat="43.13172577601249" lon="10.64558175266746"><ele>314.0</ele><time>2026-03-29T08:31:33Z</time></trkpt><trkpt lat="43.13182558953953" lon="10.64554233237187"><ele>314.0</ele><time>2026-03-29T08:31:34Z</time></trkpt><trkpt lat="43.13193440742917" lon="10.645480798437568"><ele>314.0</ele><time>2026-03-29T08:31:35Z</time></trkpt><trkpt lat="43.13202761562591" lon="10.645378802812202"><ele>314.0</ele><time>2026-03-29T08:31:36Z</time></trkpt><trkpt lat="43.132120429902216" lon="10.64524882961247"><ele>314.0</ele><time>2026-03-29T08:31:37Z</time></trkpt><trkpt lat="43.13221303926733" lon="10.645096005905062"><ele>314.75</ele><time>2026-03-29T08:31:38Z</time></trkpt><trkpt lat="43.132297628998806" lon="10.644952101990967"><ele>315.5</ele><time>2026-03-29T08:31:39Z</time></trkpt><trkpt lat="43.13237259450972" lon="10.644826107646598"><ele>316.25</ele><time>2026-03-29T08:31:40Z</time></trkpt><trkpt lat="43.1324356022737" lon="10.644700171836918"><ele>317.0</ele><time>2026-03-29T08:31:41Z</time></trkpt><trkpt lat="43.13249199585261" lon="10.64458864410431"><ele>317.0</ele><time>2026-03-29T08:31:42Z</time></trkpt><trkpt lat="43.132554006454036" lon="10.64448816623858"><ele>317.0</ele><time>2026-03-29T08:31:43Z</time></trkpt><trkpt lat="43.13260735931226" lon="10.644389757869465"><ele>317.0</ele><time>2026-03-29T08:31:44Z</time></trkpt><trkpt lat="43.13263620985382" lon="10.644289600668987"><ele>317.0</ele><time>2026-03-29T08:31:45Z</time></trkpt><trkpt lat="43.13268140201083" lon="10.644202713922033"><ele>317.0</ele><time>2026-03-29T08:31:46Z</time></trkpt><trkpt lat="43.13271664271674" lon="10.644110832937043"><ele>317.0</ele><time>2026-03-29T08:31:47Z</time></trkpt><trkpt lat="43.13274318064342" lon="10.644031047611454"><ele>322.25</ele><time>2026-03-29T08:31:48Z</time></trkpt><trkpt lat="43.13279977383188" lon="10.643859509369026"><ele>327.5</ele><time>2026-03-29T08:31:50Z</time></trkpt><trkpt lat="43.13284957254555" lon="10.643697656724031"><ele>332.75</ele><time>2026-03-29T08:31:51Z</time></trkpt><trkpt lat="43.13289869967011" lon="10.643524693152735"><ele>338.0</ele><time>2026-03-29T08:31:52Z</time></trkpt><trkpt lat="43.13297258889296" lon="10.64333943867521"><ele>340.0</ele><time>2026-03-29T08:31:53Z</time></trkpt><trkpt lat="43.1329997336493" lon="10.643141695666996"><ele>342.0</ele><time>2026-03-29T08:31:54Z</time></trkpt><trkpt lat="43.13298593839861" lon="10.642944223540722"><ele>344.0</ele><time>2026-03-29T08:31:55Z</time></trkpt><trkpt lat="43.132959401098695" lon="10.642750949631761"><ele>346.0</ele><time>2026-03-29T08:31:56Z</time></trkpt><trkpt lat="43.13293540615997" lon="10.642589054504946"><ele>346.25</ele><time>2026-03-29T08:31:57Z</time></trkpt><trkpt lat="43.13294268237626" lon="10.642445390408877"><ele>346.5</ele><time>2026-03-29T08:31:58Z</time></trkpt><trkpt lat="43.1330084304001" lon="10.642304747678871"><ele>346.75</ele><time>2026-03-29T08:31:59Z</time></trkpt><trkpt lat="43.133097335503756" lon="10.642198559058544"><ele>347.0</ele><time>2026-03-29T08:32:00Z</time></trkpt><trkpt lat="43.13318468841634" lon="10.642117997955129"><ele>341.8</ele><time>2026-03-29T08:32:01Z</time></trkpt><trkpt lat="43.133275949748935" lon="10.642072935547437"><ele>336.6</ele><time>2026-03-29T08:32:02Z</time></trkpt><trkpt lat="43.13338732021309" lon="10.642095394375401"><ele>331.40000000000003</ele><time>2026-03-29T08:32:03Z</time></trkpt><trkpt lat="43.13349088743111" lon="10.64219760685553"><ele>326.20000000000005</ele><time>2026-03-29T08:32:04Z</time></trkpt><trkpt lat="43.1335858110083" lon="10.642268570736261"><ele>321.0</ele><time>2026-03-29T08:32:05Z</time></trkpt><trkpt lat="43.133652978464546" lon="10.642368508918862"><ele>321.0</ele><time>2026-03-29T08:32:06Z</time></trkpt><trkpt lat="43.13371690464766" lon="10.642460181052849"><ele>321.0</ele><time>2026-03-29T08:32:07Z</time></trkpt><trkpt lat="43.133788087849524" lon="10.642534037580454"><ele>321.0</ele><time>2026-03-29T08:32:08Z</time></trkpt><trkpt lat="43.13387336292734" lon="10.642584729507035"><ele>321.0</ele><time>2026-03-29T08:32:09Z</time></trkpt><trkpt lat="43.13395749244732" lon="10.642601543539113"><ele>321.0</ele><time>2026-03-29T08:32:10Z</time></trkpt><trkpt lat="43.13403857260837" lon="10.64259601630051"><ele>321.0</ele><time>2026-03-29T08:32:11Z</time></trkpt><trkpt lat="43.13411621016427" lon="10.642560882958628"><ele>322.6</ele><time>2026-03-29T08:32:12Z</time></trkpt><trkpt lat="43.13420331396976" lon="10.642520758916072"><ele>324.20000000000005</ele><time>2026-03-29T08:32:13Z</time></trkpt><trkpt lat="43.134295429321696" lon="10.642475812251572"><ele>325.79999999999995</ele><time>2026-03-29T08:32:14Z</time></trkpt><trkpt lat="43.1343954393065" lon="10.642429329807333"><ele>327.4</ele><time>2026-03-29T08:32:15Z</time></trkpt><trkpt lat="43.13448740687983" lon="10.642322617201135"><ele>329.0</ele><time>2026-03-29T08:32:16Z</time></trkpt><trkpt lat="43.13455330906623" lon="10.642187278764112"><ele>329.0</ele><time>2026-03-29T08:32:17Z</time></trkpt><trkpt lat="43.13461666175049" lon="10.642080057165"><ele>329.0</ele><time>2026-03-29T08:32:18Z</time></trkpt><trkpt lat="43.134696661505835" lon="10.642043684625728"><ele>329.0</ele><time>2026-03-29T08:32:19Z</time></trkpt><trkpt lat="43.13478342952696" lon="10.64207449312079"><ele>329.0</ele><time>2026-03-29T08:32:20Z</time></trkpt><trkpt lat="43.13484880735634" lon="10.642190074761794"><ele>329.0</ele><time>2026-03-29T08:32:21Z</time></trkpt><trkpt lat="43.13492400812697" lon="10.642322016010135"><ele>329.25</ele><time>2026-03-29T08:32:22Z</time></trkpt><trkpt lat="43.13501967078605" lon="10.642453926085281"><ele>329.5</ele><time>2026-03-29T08:32:23Z</time></trkpt><trkpt lat="43.13509090345927" lon="10.642613573136565"><ele>329.75</ele><time>2026-03-29T08:32:24Z</time></trkpt><trkpt lat="43.13517897788467" lon="10.642765093943977"><ele>330.0</ele><time>2026-03-29T08:32:25Z</time></trkpt><trkpt lat="43.13526016077918" lon="10.642924652295195"><ele>326.5</ele><time>2026-03-29T08:32:26Z</time></trkpt><trkpt lat="43.13533594811759" lon="10.643092849343176"><ele>323.0</ele><time>2026-03-29T08:32:27Z</time></trkpt><trkpt lat="43.13539585249074" lon="10.643271342049012"><ele>319.5</ele><time>2026-03-29T08:32:28Z</time></trkpt><trkpt lat="43.135452953029024" lon="10.643448713807826"><ele>316.0</ele><time>2026-03-29T08:32:29Z</time></trkpt><trkpt lat="43.13550880114062" lon="10.643613629645005"><ele>313.6</ele><time>2026-03-29T08:32:30Z</time></trkpt><trkpt lat="43.13555616167603" lon="10.643762362544866"><ele>311.20000000000005</ele><time>2026-03-29T08:32:31Z</time></trkpt><trkpt lat="43.13558749601437" lon="10.643902832277616"><ele>308.79999999999995</ele><time>2026-03-29T08:32:32Z</time></trkpt><trkpt lat="43.1356113976549" lon="10.644037734576088"><ele>306.4</ele><time>2026-03-29T08:32:33Z</time></trkpt><trkpt lat="43.135635344215146" lon="10.644165348558298"><ele>304.0</ele><time>2026-03-29T08:32:34Z</time></trkpt><trkpt lat="43.13565358865317" lon="10.64427568798531"><ele>304.0</ele><time>2026-03-29T08:32:35Z</time></trkpt><trkpt lat="43.13568788953663" lon="10.644356051791469"><ele>304.0</ele><time>2026-03-29T08:32:36Z</time></trkpt><trkpt lat="43.13573226183825" lon="10.644428961062678"><ele>304.0</ele><time>2026-03-29T08:32:39Z</time></trkpt><trkpt lat="43.135846071544066" lon="10.644491852802723"><ele>304.0</ele><time>2026-03-29T08:32:41Z</time></trkpt><trkpt lat="43.13596440222725" lon="10.644433326240733"><ele>304.0</ele><time>2026-03-29T08:32:42Z</time></trkpt><trkpt lat="43.136031349311274" lon="10.644349346730941"><ele>308.3333333333333</ele><time>2026-03-29T08:32:43Z</time></trkpt><trkpt lat="43.13607528311842" lon="10.644270611881543"><ele>312.66666666666663</ele><time>2026-03-29T08:32:44Z</time></trkpt><trkpt lat="43.13611189956883" lon="10.644196091601"><ele>317.0</ele><time>2026-03-29T08:32:45Z</time></trkpt><trkpt lat="43.136154731823915" lon="10.644108921388431"><ele>321.3333333333333</ele><time>2026-03-29T08:32:46Z</time></trkpt><trkpt lat="43.13619666438059" lon="10.644023582991569"><ele>325.6666666666667</ele><time>2026-03-29T08:32:47Z</time></trkpt><trkpt lat="43.13623465570228" lon="10.643946263871143"><ele>330.0</ele><time>2026-03-29T08:32:48Z</time></trkpt><trkpt lat="43.136307788106954" lon="10.643814873241443"><ele>330.0</ele><time>2026-03-29T08:32:50Z</time></trkpt><trkpt lat="43.136351710487475" lon="10.643696421454896"><ele>330.0</ele><time>2026-03-29T08:32:52Z</time></trkpt><trkpt lat="43.1364128530132" lon="10.643622160220321"><ele>330.0</ele><time>2026-03-29T08:32:53Z</time></trkpt><trkpt lat="43.13647554340668" lon="10.642610193829412"><ele>334.1666666666667</ele><time>2026-03-29T08:33:01Z</time></trkpt><trkpt lat="43.136535862702054" lon="10.642562587714037"><ele>338.3333333333333</ele><time>2026-03-29T08:33:02Z</time></trkpt><trkpt lat="43.13660496882964" lon="10.642495025160345"><ele>342.5</ele><time>2026-03-29T08:33:03Z</time></trkpt><trkpt lat="43.13666807995402" lon="10.642404851148665"><ele>346.66666666666663</ele><time>2026-03-29T08:33:04Z</time></trkpt><trkpt lat="43.13673899468673" lon="10.642297053659656"><ele>350.8333333333333</ele><time>2026-03-29T08:33:05Z</time></trkpt><trkpt lat="43.13680629790122" lon="10.642219488803299"><ele>355.0</ele><time>2026-03-29T08:33:06Z</time></trkpt><trkpt lat="43.13686164203308" lon="10.6421433163698"><ele>355.5</ele><time>2026-03-29T08:33:07Z</time></trkpt><trkpt lat="43.13692420281256" lon="10.642082028507222"><ele>356.0</ele><time>2026-03-29T08:33:08Z</time></trkpt><trkpt lat="43.136974292939996" lon="10.642009208843323"><ele>356.5</ele><time>2026-03-29T08:33:09Z</time></trkpt><trkpt lat="43.137000711103724" lon="10.641920856886047"><ele>357.0</ele><time>2026-03-29T08:33:10Z</time></trkpt><trkpt lat="43.13703344869223" lon="10.641827147281457"><ele>357.5</ele><time>2026-03-29T08:33:11Z</time></trkpt><trkpt lat="43.1370917336618" lon="10.64172999370204"><ele>358.0</ele><time>2026-03-29T08:33:12Z</time></trkpt><trkpt lat="43.13710923671106" lon="10.641629296335429"><ele>361.16666666666663</ele><time>2026-03-29T08:33:13Z</time></trkpt><trkpt lat="43.13713270702396" lon="10.641530309987315"><ele>364.3333333333333</ele><time>2026-03-29T08:33:14Z</time></trkpt><trkpt lat="43.13712862682299" lon="10.641410417820206"><ele>367.5</ele><time>2026-03-29T08:33:15Z</time></trkpt><trkpt lat="43.13712022892073" lon="10.641287326017679"><ele>370.6666666666667</ele><time>2026-03-29T08:33:16Z</time></trkpt><trkpt lat="43.137103632981216" lon="10.641201201476642"><ele>373.83333333333337</ele><time>2026-03-29T08:33:17Z</time></trkpt><trkpt lat="43.13712042266679" lon="10.641108062910995"><ele>377.0</ele><time>2026-03-29T08:33:18Z</time></trkpt><trkpt lat="43.13715222011786" lon="10.64099460941549"><ele>377.33333333333337</ele><time>2026-03-29T08:33:19Z</time></trkpt><trkpt lat="43.137180467287095" lon="10.640914279490964"><ele>377.6666666666667</ele><time>2026-03-29T08:33:20Z</time></trkpt><trkpt lat="43.13726642513971" lon="10.640841219583558"><ele>378.0</ele><time>2026-03-29T08:33:22Z</time></trkpt><trkpt lat="43.13734236136773" lon="10.640803030336698"><ele>378.3333333333333</ele><time>2026-03-29T08:33:23Z</time></trkpt><trkpt lat="43.1374234498145" lon="10.64076912085793"><ele>378.66666666666663</ele><time>2026-03-29T08:33:24Z</time></trkpt><trkpt lat="43.13750913502101" lon="10.6406623140118"><ele>379.0</ele><time>2026-03-29T08:33:26Z</time></trkpt><trkpt lat="43.13753868340451" lon="10.64051976796839"><ele>379.0</ele><time>2026-03-29T08:33:28Z</time></trkpt><trkpt lat="43.13758293570287" lon="10.640404630924474"><ele>379.0</ele><time>2026-03-29T08:33:30Z</time></trkpt><trkpt lat="43.13762910617301" lon="10.640341008411356"><ele>379.0</ele><time>2026-03-29T08:33:31Z</time></trkpt><trkpt lat="43.13769659633467" lon="10.640298592172092"><ele>379.0</ele><time>2026-03-29T08:33:32Z</time></trkpt><trkpt lat="43.13776658084289" lon="10.640227815968899"><ele>379.0</ele><time>2026-03-29T08:33:33Z</time></trkpt><trkpt lat="43.137837910225976" lon="10.640143415282793"><ele>379.0</ele><time>2026-03-29T08:33:34Z</time></trkpt><trkpt lat="43.137886480335546" lon="10.640016085205334"><ele>380.79999999999995</ele><time>2026-03-29T08:33:35Z</time></trkpt><trkpt lat="43.137921706241755" lon="10.63990798961229"><ele>382.59999999999997</ele><time>2026-03-29T08:33:36Z</time></trkpt><trkpt lat="43.13795578535585" lon="10.639831812466706"><ele>384.4</ele><time>2026-03-29T08:33:37Z</time></trkpt><trkpt lat="43.13800708697274" lon="10.639713642074247"><ele>386.2</ele><time>2026-03-29T08:33:39Z</time></trkpt><trkpt lat="43.138022142526474" lon="10.63954507421326"><ele>388.0</ele><time>2026-03-29T08:33:41Z</time></trkpt><trkpt lat="43.137994622602534" lon="10.639364615374868"><ele>390.75</ele><time>2026-03-29T08:33:43Z</time></trkpt><trkpt lat="43.137957853617465" lon="10.639162377692566"><ele>393.5</ele><time>2026-03-29T08:33:45Z</time></trkpt><trkpt lat="43.137931869198944" lon="10.63903737889953"><ele>396.25</ele><time>2026-03-29T08:33:46Z</time></trkpt><trkpt lat="43.13793158104286" lon="10.638891078249946"><ele>399.0</ele><time>2026-03-29T08:33:47Z</time></trkpt><trkpt lat="43.13792830182134" lon="10.638759787407789"><ele>400.2</ele><time>2026-03-29T08:33:48Z</time></trkpt><trkpt lat="43.13792285252536" lon="10.638627876909638"><ele>401.4</ele><time>2026-03-29T08:33:49Z</time></trkpt><trkpt lat="43.13790529356694" lon="10.638519935950887"><ele>402.6</ele><time>2026-03-29T08:33:50Z</time></trkpt><trkpt lat="43.13789612219146" lon="10.638407842551793"><ele>403.8</ele><time>2026-03-29T08:33:51Z</time></trkpt><trkpt lat="43.1378687442278" lon="10.63821620768057"><ele>405.0</ele><time>2026-03-29T08:33:53Z</time></trkpt><trkpt lat="43.13786427760282" lon="10.638039891299629"><ele>405.0</ele><time>2026-03-29T08:33:55Z</time></trkpt><trkpt lat="43.13791229540954" lon="10.63795222679807"><ele>405.0</ele><time>2026-03-29T08:33:59Z</time></trkpt><trkpt lat="43.13796965966066" lon="10.637831937375807"><ele>405.0</ele><time>2026-03-29T08:34:01Z</time></trkpt><trkpt lat="43.13801126785246" lon="10.637687875174924"><ele>405.0</ele><time>2026-03-29T08:34:03Z</time></trkpt><trkpt lat="43.13805204147357" lon="10.637597555990709"><ele>405.0</ele><time>2026-03-29T08:34:04Z</time></trkpt><trkpt lat="43.13809272141583" lon="10.637510690857997"><ele>406.1666666666667</ele><time>2026-03-29T08:34:05Z</time></trkpt><trkpt lat="43.13811588820635" lon="10.637404260558203"><ele>407.33333333333337</ele><time>2026-03-29T08:34:06Z</time></trkpt><trkpt lat="43.13812939866406" lon="10.637307381825744"><ele>408.5</ele><time>2026-03-29T08:34:07Z</time></trkpt><trkpt lat="43.13811532143745" lon="10.637189542625796"><ele>409.6666666666667</ele><time>2026-03-29T08:34:08Z</time></trkpt><trkpt lat="43.13810042716024" lon="10.637062390695084"><ele>410.83333333333337</ele><time>2026-03-29T08:34:09Z</time></trkpt><trkpt lat="43.138084171517356" lon="10.636944929918265"><ele>412.0</ele><time>2026-03-29T08:34:10Z</time></trkpt><trkpt lat="43.13806273796381" lon="10.636838637462974"><ele>412.6666666666667</ele><time>2026-03-29T08:34:11Z</time></trkpt><trkpt lat="43.13804255506055" lon="10.63674465316922"><ele>413.33333333333337</ele><time>2026-03-29T08:34:12Z</time></trkpt><trkpt lat="43.138017674714106" lon="10.636634397491068"><ele>414.0</ele><time>2026-03-29T08:34:13Z</time></trkpt><trkpt lat="43.13798833928327" lon="10.636536349047962"><ele>414.66666666666663</ele><time>2026-03-29T08:34:14Z</time></trkpt><trkpt lat="43.13796388203747" lon="10.63644689705789"><ele>415.3333333333333</ele><time>2026-03-29T08:34:15Z</time></trkpt><trkpt lat="43.13792185977487" lon="10.636362696771739"><ele>416.0</ele><time>2026-03-29T08:34:16Z</time></trkpt><trkpt lat="43.13788583318192" lon="10.63627157289954"><ele>416.0</ele><time>2026-03-29T08:34:17Z</time></trkpt><trkpt lat="43.13784963393858" lon="10.636187748919772"><ele>416.0</ele><time>2026-03-29T08:34:18Z</time></trkpt><trkpt lat="43.13779778653969" lon="10.636128045099941"><ele>416.0</ele><time>2026-03-29T08:34:19Z</time></trkpt><trkpt lat="43.13779251338834" lon="10.636041496699528"><ele>416.0</ele><time>2026-03-29T08:34:21Z</time></trkpt><trkpt lat="43.137946461352996" lon="10.635987666707823"><ele>416.0</ele><time>2026-03-29T08:34:23Z</time></trkpt><trkpt lat="43.13809126102861" lon="10.635954773285244"><ele>416.66666666666663</ele><time>2026-03-29T08:34:24Z</time></trkpt><trkpt lat="43.1381857281491" lon="10.635905436932603"><ele>417.3333333333333</ele><time>2026-03-29T08:34:25Z</time></trkpt><trkpt lat="43.13826526539372" lon="10.635856012185904"><ele>418.0</ele><time>2026-03-29T08:34:26Z</time></trkpt><trkpt lat="43.13832398860054" lon="10.635811003990005"><ele>418.66666666666663</ele><time>2026-03-29T08:34:27Z</time></trkpt><trkpt lat="43.13838941244798" lon="10.635740681464155"><ele>419.3333333333333</ele><time>2026-03-29T08:34:28Z</time></trkpt><trkpt lat="43.13846278427684" lon="10.635690444471786"><ele>420.0</ele><time>2026-03-29T08:34:29Z</time></trkpt><trkpt lat="43.13855837092597" lon="10.635659241683584"><ele>416.8</ele><time>2026-03-29T08:34:31Z</time></trkpt><trkpt lat="43.138624995424074" lon="10.635777193569515"><ele>413.6</ele><time>2026-03-29T08:34:33Z</time></trkpt><trkpt lat="43.138706805155" lon="10.635860439273845"><ele>410.4</ele><time>2026-03-29T08:34:35Z</time></trkpt><trkpt lat="43.13878217149367" lon="10.635802019269278"><ele>407.2</ele><time>2026-03-29T08:34:37Z</time></trkpt><trkpt lat="43.1388760382408" lon="10.635738511700337"><ele>404.0</ele><time>2026-03-29T08:34:39Z</time></trkpt><trkpt lat="43.1389290419848" lon="10.635569614058761"><ele>403.99999999999994</ele><time>2026-03-29T08:34:41Z</time></trkpt><trkpt lat="43.13895185516027" lon="10.635473765684935"><ele>404.0</ele><time>2026-03-29T08:34:42Z</time></trkpt><trkpt lat="43.138980438497576" lon="10.635387206031083"><ele>404.0</ele><time>2026-03-29T08:34:43Z</time></trkpt><trkpt lat="43.13901105616916" lon="10.635284066747497"><ele>404.0</ele><time>2026-03-29T08:34:44Z</time></trkpt><trkpt lat="43.13903749774294" lon="10.635168195473959"><ele>403.99999999999994</ele><time>2026-03-29T08:34:45Z</time></trkpt><trkpt lat="43.1390789648717" lon="10.635050532090924"><ele>404.0</ele><time>2026-03-29T08:34:46Z</time></trkpt><trkpt lat="43.139109717135" lon="10.634933574452951"><ele>406.8333333333333</ele><time>2026-03-29T08:34:47Z</time></trkpt><trkpt lat="43.13914162508114" lon="10.634819787255395"><ele>409.66666666666663</ele><time>2026-03-29T08:34:48Z</time></trkpt><trkpt lat="43.139179245590704" lon="10.634714897372545"><ele>412.5</ele><time>2026-03-29T08:34:49Z</time></trkpt><trkpt lat="43.139207374882574" lon="10.634621626661021"><ele>415.33333333333337</ele><time>2026-03-29T08:34:50Z</time></trkpt><trkpt lat="43.139230623657" lon="10.634521519809788"><ele>418.1666666666667</ele><time>2026-03-29T08:34:51Z</time></trkpt><trkpt lat="43.13923802149815" lon="10.634426129363744"><ele>421.0</ele><time>2026-03-29T08:34:52Z</time></trkpt><trkpt lat="43.1392313807412" lon="10.634301952213942"><ele>422.8</ele><time>2026-03-29T08:34:53Z</time></trkpt><trkpt lat="43.13925667652382" lon="10.634212495577216"><ele>424.6</ele><time>2026-03-29T08:34:54Z</time></trkpt><trkpt lat="43.13932829567434" lon="10.63405074664178"><ele>426.4</ele><time>2026-03-29T08:34:56Z</time></trkpt><trkpt lat="43.139391164305415" lon="10.633971194357942"><ele>428.2</ele><time>2026-03-29T08:34:57Z</time></trkpt><trkpt lat="43.139432654421476" lon="10.633874791041308"><ele>430.0</ele><time>2026-03-29T08:34:58Z</time></trkpt><trkpt lat="43.13947862806788" lon="10.63378031270339"><ele>430.0</ele><time>2026-03-29T08:34:59Z</time></trkpt><trkpt lat="43.13953658293847" lon="10.63368002225704"><ele>430.0</ele><time>2026-03-29T08:35:00Z</time></trkpt><trkpt lat="43.13960937391985" lon="10.633598729145168"><ele>430.0</ele><time>2026-03-29T08:35:01Z</time></trkpt><trkpt lat="43.13965461436807" lon="10.633477122560514"><ele>430.0</ele><time>2026-03-29T08:35:02Z</time></trkpt><trkpt lat="43.13969323894433" lon="10.633382655986651"><ele>430.0</ele><time>2026-03-29T08:35:03Z</time></trkpt><trkpt lat="43.13975326193328" lon="10.63327804815265"><ele>430.85714285714283</ele><time>2026-03-29T08:35:04Z</time></trkpt><trkpt lat="43.13976696551464" lon="10.6331784712889"><ele>431.7142857142857</ele><time>2026-03-29T08:35:05Z</time></trkpt><trkpt lat="43.13977452471548" lon="10.63307762867791"><ele>432.57142857142856</ele><time>2026-03-29T08:35:07Z</time></trkpt><trkpt lat="43.13983559561714" lon="10.633123237238586"><ele>433.42857142857144</ele><time>2026-03-29T08:35:15Z</time></trkpt><trkpt lat="43.139890674592124" lon="10.633072798093304"><ele>434.28571428571433</ele><time>2026-03-29T08:35:17Z</time></trkpt><trkpt lat="43.13997074931645" lon="10.632992236200549"><ele>435.14285714285717</ele><time>2026-03-29T08:35:18Z</time></trkpt><trkpt lat="43.14002223700826" lon="10.632941805253521"><ele>436.0</ele><time>2026-03-29T08:35:18.999Z</time></trkpt><trkpt lat="43.14006992141923" lon="10.632883880303833"><ele>436.2857142857143</ele><time>2026-03-29T08:35:19.999Z</time></trkpt><trkpt lat="43.140111657070726" lon="10.632808893084901"><ele>436.57142857142856</ele><time>2026-03-29T08:35:20.999Z</time></trkpt><trkpt lat="43.140170369530985" lon="10.632748206730685"><ele>436.8571428571429</ele><time>2026-03-29T08:35:21.999Z</time></trkpt><trkpt lat="43.140229436298505" lon="10.632674051060492"><ele>437.1428571428571</ele><time>2026-03-29T08:35:22.999Z</time></trkpt><trkpt lat="43.14027933904399" lon="10.632614662745377"><ele>437.4285714285714</ele><time>2026-03-29T08:35:23.999Z</time></trkpt><trkpt lat="43.14033179235881" lon="10.632549975624206"><ele>437.7142857142857</ele><time>2026-03-29T08:35:24.999Z</time></trkpt><trkpt lat="43.14037407965519" lon="10.632480543132717"><ele>438.0</ele><time>2026-03-29T08:35:26Z</time></trkpt><trkpt lat="43.140427269890154" lon="10.632427417453087"><ele>437.79999999999995</ele><time>2026-03-29T08:35:27Z</time></trkpt><trkpt lat="43.140485696547" lon="10.632380076632854"><ele>437.59999999999997</ele><time>2026-03-29T08:35:28Z</time></trkpt><trkpt lat="43.140601066535396" lon="10.632302328974896"><ele>437.40000000000003</ele><time>2026-03-29T08:35:30Z</time></trkpt><trkpt lat="43.140689913696555" lon="10.632205529652364"><ele>437.20000000000005</ele><time>2026-03-29T08:35:32Z</time></trkpt><trkpt lat="43.140765020337795" lon="10.63218788684506"><ele>437.0</ele><time>2026-03-29T08:35:33Z</time></trkpt><trkpt lat="43.14084402685452" lon="10.63214884649702"><ele>436.99999999999994</ele><time>2026-03-29T08:35:34Z</time></trkpt><trkpt lat="43.140948246069925" lon="10.632148045195374"><ele>437.0</ele><time>2026-03-29T08:35:35Z</time></trkpt><trkpt lat="43.14101163022844" lon="10.632133431471471"><ele>437.0</ele><time>2026-03-29T08:35:36Z</time></trkpt><trkpt lat="43.141089651900174" lon="10.632157924279527"><ele>437.0</ele><time>2026-03-29T08:35:37Z</time></trkpt><trkpt lat="43.141198887683295" lon="10.63218236830932"><ele>436.99999999999994</ele><time>2026-03-29T08:35:38Z</time></trkpt><trkpt lat="43.14127526107327" lon="10.632169767761818"><ele>437.0</ele><time>2026-03-29T08:35:39Z</time></trkpt><trkpt lat="43.14135467448141" lon="10.632169198014127"><ele>436.99999999999994</ele><time>2026-03-29T08:35:40Z</time></trkpt><trkpt lat="43.14146040855005" lon="10.632189031591261"><ele>437.0</ele><time>2026-03-29T08:35:42Z</time></trkpt><trkpt lat="43.14149444971219" lon="10.632277834015364"><ele>437.0</ele><time>2026-03-29T08:35:48Z</time></trkpt><trkpt lat="43.14156466404237" lon="10.632294203892759"><ele>437.0</ele><time>2026-03-29T08:35:54Z</time></trkpt><trkpt lat="43.14166151247258" lon="10.632286799545664"><ele>436.99999999999994</ele><time>2026-03-29T08:35:56Z</time></trkpt><trkpt lat="43.14173631143319" lon="10.632314627246082"><ele>437.0</ele><time>2026-03-29T08:35:57Z</time></trkpt><trkpt lat="43.14184666519596" lon="10.632363120921596"><ele>436.20000000000005</ele><time>2026-03-29T08:36:00Z</time></trkpt><trkpt lat="43.14197779837295" lon="10.632377551396786"><ele>435.40000000000003</ele><time>2026-03-29T08:36:02Z</time></trkpt><trkpt lat="43.14207448941778" lon="10.632392264886857"><ele>434.59999999999997</ele><time>2026-03-29T08:36:03Z</time></trkpt><trkpt lat="43.1422134566271" lon="10.632444723267316"><ele>433.79999999999995</ele><time>2026-03-29T08:36:05Z</time></trkpt><trkpt lat="43.14228452245272" lon="10.632454245177488"><ele>433.0</ele><time>2026-03-29T08:36:06Z</time></trkpt><trkpt lat="43.142399765530065" lon="10.63246043291859"><ele>431.6666666666667</ele><time>2026-03-29T08:36:08Z</time></trkpt><trkpt lat="43.14246333974665" lon="10.632431942449262"><ele>430.33333333333337</ele><time>2026-03-29T08:36:09Z</time></trkpt><trkpt lat="43.14253870998414" lon="10.632460298122462"><ele>429.0</ele><time>2026-03-29T08:36:11Z</time></trkpt><trkpt lat="43.14261561579813" lon="10.632515699620425"><ele>427.66666666666663</ele><time>2026-03-29T08:36:13Z</time></trkpt><trkpt lat="43.14268540223572" lon="10.632580192045038"><ele>426.3333333333333</ele><time>2026-03-29T08:36:15Z</time></trkpt><trkpt lat="43.1427962892323" lon="10.632679818217529"><ele>425.0</ele><time>2026-03-29T08:36:17Z</time></trkpt><trkpt lat="43.142853793004825" lon="10.63272720807231"><ele>425.0</ele><time>2026-03-29T08:36:19Z</time></trkpt><trkpt lat="43.14294730106609" lon="10.632716154332282"><ele>425.0</ele><time>2026-03-29T08:36:22Z</time></trkpt><trkpt lat="43.14303148440125" lon="10.632681101670439"><ele>425.0</ele><time>2026-03-29T08:36:24Z</time></trkpt><trkpt lat="43.14313446213903" lon="10.632655327512895"><ele>425.0</ele><time>2026-03-29T08:36:26Z</time></trkpt><trkpt lat="43.14323016750586" lon="10.63262922245995"><ele>425.0</ele><time>2026-03-29T08:36:28Z</time></trkpt><trkpt lat="43.14329915599721" lon="10.632670073116785"><ele>422.0</ele><time>2026-03-29T08:36:30Z</time></trkpt><trkpt lat="43.14336798727812" lon="10.632701845373271"><ele>419.0</ele><time>2026-03-29T08:36:32Z</time></trkpt><trkpt lat="43.143472278454404" lon="10.632685941567866"><ele>416.0</ele><time>2026-03-29T08:36:34Z</time></trkpt><trkpt lat="43.143575959042764" lon="10.632677891979263"><ele>413.0</ele><time>2026-03-29T08:36:36Z</time></trkpt><trkpt lat="43.14367968899047" lon="10.63264232398141"><ele>410.0</ele><time>2026-03-29T08:36:38Z</time></trkpt><trkpt lat="43.14378342863145" lon="10.632632581927341"><ele>409.99999999999994</ele><time>2026-03-29T08:36:40Z</time></trkpt><trkpt lat="43.14389191879001" lon="10.632610645277708"><ele>410.0</ele><time>2026-03-29T08:36:42Z</time></trkpt><trkpt lat="43.14396560744247" lon="10.632637124943317"><ele>410.0</ele><time>2026-03-29T08:36:43Z</time></trkpt><trkpt lat="43.14407473441668" lon="10.632671921590315"><ele>410.0</ele><time>2026-03-29T08:36:45Z</time></trkpt><trkpt lat="43.14414761906417" lon="10.632663789724699"><ele>409.99999999999994</ele><time>2026-03-29T08:36:46Z</time></trkpt><trkpt lat="43.14421225165046" lon="10.632651190704165"><ele>410.0</ele><time>2026-03-29T08:36:47Z</time></trkpt><trkpt lat="43.14428860470458" lon="10.632630740317484"><ele>408.2</ele><time>2026-03-29T08:36:48Z</time></trkpt><trkpt lat="43.144385178169756" lon="10.632565738641865"><ele>406.4</ele><time>2026-03-29T08:36:50Z</time></trkpt><trkpt lat="43.144513053950796" lon="10.63252659911793"><ele>404.6</ele><time>2026-03-29T08:36:52Z</time></trkpt><trkpt lat="43.14459945383415" lon="10.632524020790154"><ele>402.8</ele><time>2026-03-29T08:36:53Z</time></trkpt><trkpt lat="43.14468530225614" lon="10.632477262685175"><ele>401.0</ele><time>2026-03-29T08:36:54Z</time></trkpt><trkpt lat="43.14479450952703" lon="10.63240254357891"><ele>401.0</ele><time>2026-03-29T08:36:56Z</time></trkpt><trkpt lat="43.14486980709495" lon="10.632351367720943"><ele>401.0</ele><time>2026-03-29T08:36:57Z</time></trkpt><trkpt lat="43.14495297826386" lon="10.632312576599938"><ele>401.0</ele><time>2026-03-29T08:36:58Z</time></trkpt><trkpt lat="43.145037129561445" lon="10.632279049890222"><ele>401.0</ele><time>2026-03-29T08:36:59Z</time></trkpt><trkpt lat="43.14510819314683" lon="10.632245350559545"><ele>401.0</ele><time>2026-03-29T08:37:00Z</time></trkpt><trkpt lat="43.145226712311114" lon="10.632259971142634"><ele>400.99999999999994</ele><time>2026-03-29T08:37:02Z</time></trkpt><trkpt lat="43.14530893893177" lon="10.632255514824527"><ele>401.0</ele><time>2026-03-29T08:37:03Z</time></trkpt><trkpt lat="43.145388682808814" lon="10.632275613198706"><ele>401.0</ele><time>2026-03-29T08:37:04Z</time></trkpt><trkpt lat="43.145462024299654" lon="10.632308485870423"><ele>401.0</ele><time>2026-03-29T08:37:05Z</time></trkpt><trkpt lat="43.145520732626935" lon="10.632373500150447"><ele>400.99999999999994</ele><time>2026-03-29T08:37:06Z</time></trkpt><trkpt lat="43.145580195592466" lon="10.632494173658742"><ele>401.0</ele><time>2026-03-29T08:37:08Z</time></trkpt><trkpt lat="43.14566749725805" lon="10.63256281525598"><ele>400.20000000000005</ele><time>2026-03-29T08:37:10Z</time></trkpt><trkpt lat="43.14580126468077" lon="10.63256334863142"><ele>399.40000000000003</ele><time>2026-03-29T08:37:12Z</time></trkpt><trkpt lat="43.145878125018484" lon="10.632545191619723"><ele>398.6</ele><time>2026-03-29T08:37:12.999Z</time></trkpt><trkpt lat="43.14596178453374" lon="10.632508726935523"><ele>397.8</ele><time>2026-03-29T08:37:13.999Z</time></trkpt><trkpt lat="43.14603017744598" lon="10.632500964169058"><ele>397.0</ele><time>2026-03-29T08:37:14.999Z</time></trkpt><trkpt lat="43.14613946507492" lon="10.632576616702437"><ele>397.00000000000006</ele><time>2026-03-29T08:37:16.999Z</time></trkpt><trkpt lat="43.14619746374903" lon="10.632635510001867"><ele>397.0</ele><time>2026-03-29T08:37:17.999Z</time></trkpt><trkpt lat="43.146264249605245" lon="10.632657247906458"><ele>397.0</ele><time>2026-03-29T08:37:18.999Z</time></trkpt><trkpt lat="43.1463296324123" lon="10.632651515709089"><ele>397.0</ele><time>2026-03-29T08:37:19.999Z</time></trkpt><trkpt lat="43.14641078032936" lon="10.632535547289795"><ele>397.00000000000006</ele><time>2026-03-29T08:37:21.999Z</time></trkpt><trkpt lat="43.14648710395496" lon="10.632470294325111"><ele>397.0</ele><time>2026-03-29T08:37:22.999Z</time></trkpt><trkpt lat="43.14656716016518" lon="10.632416366473016"><ele>395.33333333333337</ele><time>2026-03-29T08:37:23.999Z</time></trkpt><trkpt lat="43.14664350013686" lon="10.63237409331055"><ele>393.6666666666667</ele><time>2026-03-29T08:37:24.999Z</time></trkpt><trkpt lat="43.146721505585035" lon="10.63233234651443"><ele>392.0</ele><time>2026-03-29T08:37:25.999Z</time></trkpt><trkpt lat="43.14679374602857" lon="10.632309472216573"><ele>390.33333333333337</ele><time>2026-03-29T08:37:26.999Z</time></trkpt><trkpt lat="43.146858807445454" lon="10.63230634826159"><ele>388.6666666666667</ele><time>2026-03-29T08:37:27.999Z</time></trkpt><trkpt lat="43.14695437543825" lon="10.632232540236627"><ele>387.0</ele><time>2026-03-29T08:37:29.999Z</time></trkpt><trkpt lat="43.147068578889765" lon="10.63220006155325"><ele>387.0</ele><time>2026-03-29T08:37:32Z</time></trkpt><trkpt lat="43.14719012074442" lon="10.632129871618712"><ele>387.0</ele><time>2026-03-29T08:37:34Z</time></trkpt><trkpt lat="43.1472577782408" lon="10.632073770399922"><ele>387.0</ele><time>2026-03-29T08:37:35Z</time></trkpt><trkpt lat="43.14731696637175" lon="10.632005311851982"><ele>387.0</ele><time>2026-03-29T08:37:36Z</time></trkpt><trkpt lat="43.147386809218126" lon="10.631958506361256"><ele>387.0</ele><time>2026-03-29T08:37:37Z</time></trkpt><trkpt lat="43.14746187922055" lon="10.63192165106157"><ele>387.0</ele><time>2026-03-29T08:37:38Z</time></trkpt><trkpt lat="43.147558139742536" lon="10.631938582821851"><ele>386.8333333333333</ele><time>2026-03-29T08:37:39Z</time></trkpt><trkpt lat="43.14763924398341" lon="10.631954466694355"><ele>386.66666666666663</ele><time>2026-03-29T08:37:40Z</time></trkpt><trkpt lat="43.147711051281846" lon="10.631994102897208"><ele>386.5</ele><time>2026-03-29T08:37:41Z</time></trkpt><trkpt lat="43.14777433094838" lon="10.632073869196113"><ele>386.3333333333333</ele><time>2026-03-29T08:37:42Z</time></trkpt><trkpt lat="43.14782641607367" lon="10.6321500977078"><ele>386.16666666666663</ele><time>2026-03-29T08:37:43Z</time></trkpt><trkpt lat="43.14787912974443" lon="10.632233225080224"><ele>386.0</ele><time>2026-03-29T08:37:44Z</time></trkpt><trkpt lat="43.14791697099237" lon="10.632348864111421"><ele>385.99999999999994</ele><time>2026-03-29T08:37:45Z</time></trkpt><trkpt lat="43.14796135842084" lon="10.632447272024603"><ele>386.0</ele><time>2026-03-29T08:37:46Z</time></trkpt><trkpt lat="43.148033502218226" lon="10.632536320666777"><ele>386.0</ele><time>2026-03-29T08:37:47Z</time></trkpt><trkpt lat="43.14811943235594" lon="10.632585178232018"><ele>386.0</ele><time>2026-03-29T08:37:48Z</time></trkpt><trkpt lat="43.14819114022281" lon="10.63263321222064"><ele>385.99999999999994</ele><time>2026-03-29T08:37:49Z</time></trkpt><trkpt lat="43.14825288601322" lon="10.632690341558572"><ele>386.0</ele><time>2026-03-29T08:37:50Z</time></trkpt><trkpt lat="43.148325286182526" lon="10.632745297231148"><ele>387.49999999999994</ele><time>2026-03-29T08:37:51Z</time></trkpt><trkpt lat="43.148371351543915" lon="10.63283277659529"><ele>389.0</ele><time>2026-03-29T08:37:52Z</time></trkpt><trkpt lat="43.1484165991798" lon="10.632914654163221"><ele>390.5</ele><time>2026-03-29T08:37:53Z</time></trkpt><trkpt lat="43.14845477277642" lon="10.633026339137395"><ele>392.0</ele><time>2026-03-29T08:37:54Z</time></trkpt><trkpt lat="43.14852563002417" lon="10.6331452146416"><ele>393.49999999999994</ele><time>2026-03-29T08:37:55Z</time></trkpt><trkpt lat="43.1485756740839" lon="10.633244351771621"><ele>395.0</ele><time>2026-03-29T08:37:56Z</time></trkpt><trkpt lat="43.14862269770826" lon="10.633352844799644"><ele>395.0</ele><time>2026-03-29T08:37:57Z</time></trkpt><trkpt lat="43.1486654218155" lon="10.633467040465408"><ele>395.0</ele><time>2026-03-29T08:37:58Z</time></trkpt><trkpt lat="43.1487049807719" lon="10.633564296500309"><ele>395.0</ele><time>2026-03-29T08:37:59Z</time></trkpt><trkpt lat="43.14876660418682" lon="10.633717965230725"><ele>395.0</ele><time>2026-03-29T08:38:01Z</time></trkpt><trkpt lat="43.14882478320715" lon="10.633771106198731"><ele>395.0</ele><time>2026-03-29T08:38:02Z</time></trkpt><trkpt lat="43.14890592961243" lon="10.633782864671286"><ele>395.16666666666663</ele><time>2026-03-29T08:38:03Z</time></trkpt><trkpt lat="43.1489768694834" lon="10.633794443666185"><ele>395.3333333333333</ele><time>2026-03-29T08:38:04Z</time></trkpt><trkpt lat="43.14906279909285" lon="10.63375201816854"><ele>395.5</ele><time>2026-03-29T08:38:05Z</time></trkpt><trkpt lat="43.14914694908789" lon="10.633686054764347"><ele>395.66666666666663</ele><time>2026-03-29T08:38:06Z</time></trkpt><trkpt lat="43.14922181746372" lon="10.633624096247948"><ele>395.8333333333333</ele><time>2026-03-29T08:38:07Z</time></trkpt><trkpt lat="43.1493107687613" lon="10.633605565184267"><ele>396.0</ele><time>2026-03-29T08:38:08Z</time></trkpt><trkpt lat="43.14942352598849" lon="10.633550501589655"><ele>396.0</ele><time>2026-03-29T08:38:09Z</time></trkpt><trkpt lat="43.14952628635475" lon="10.633512425421422"><ele>396.0</ele><time>2026-03-29T08:38:10Z</time></trkpt><trkpt lat="43.14964133345967" lon="10.63346278711455"><ele>396.0</ele><time>2026-03-29T08:38:11Z</time></trkpt><trkpt lat="43.149753895835744" lon="10.633411134110109"><ele>396.0</ele><time>2026-03-29T08:38:12Z</time></trkpt><trkpt lat="43.14983923044057" lon="10.633411620971073"><ele>396.0</ele><time>2026-03-29T08:38:13Z</time></trkpt><trkpt lat="43.149935190593695" lon="10.633454470045383"><ele>395.8</ele><time>2026-03-29T08:38:14Z</time></trkpt><trkpt lat="43.1500161634618" lon="10.633485296521567"><ele>395.6</ele><time>2026-03-29T08:38:15Z</time></trkpt><trkpt lat="43.150110773601476" lon="10.633458203792554"><ele>395.4</ele><time>2026-03-29T08:38:17Z</time></trkpt><trkpt lat="43.15017678598251" lon="10.633354203659156"><ele>395.2</ele><time>2026-03-29T08:38:18Z</time></trkpt><trkpt lat="43.1502625987728" lon="10.633244517164902"><ele>395.0</ele><time>2026-03-29T08:38:19Z</time></trkpt><trkpt lat="43.150338070832" lon="10.633151863795522"><ele>395.0</ele><time>2026-03-29T08:38:20Z</time></trkpt><trkpt lat="43.15037426758704" lon="10.633067513162475"><ele>395.0</ele><time>2026-03-29T08:38:21Z</time></trkpt><trkpt lat="43.15043779885396" lon="10.633005251679934"><ele>395.0</ele><time>2026-03-29T08:38:22Z</time></trkpt><trkpt lat="43.15052943308667" lon="10.632935596209347"><ele>395.0</ele><time>2026-03-29T08:38:23Z</time></trkpt><trkpt lat="43.15062396582961" lon="10.632875357068725"><ele>395.0</ele><time>2026-03-29T08:38:24Z</time></trkpt><trkpt lat="43.1507325776698" lon="10.632866158199665"><ele>396.4</ele><time>2026-03-29T08:38:25Z</time></trkpt><trkpt lat="43.15082382031031" lon="10.632818834665754"><ele>397.8</ele><time>2026-03-29T08:38:26Z</time></trkpt><trkpt lat="43.15090197013533" lon="10.632771608239684"><ele>399.20000000000005</ele><time>2026-03-29T08:38:27Z</time></trkpt><trkpt lat="43.15096315122923" lon="10.632704112614181"><ele>400.6</ele><time>2026-03-29T08:38:28Z</time></trkpt><trkpt lat="43.15104857672452" lon="10.63263254417367"><ele>402.0</ele><time>2026-03-29T08:38:29Z</time></trkpt><trkpt lat="43.15112357011118" lon="10.632552064800166"><ele>402.0</ele><time>2026-03-29T08:38:30Z</time></trkpt><trkpt lat="43.151208901353456" lon="10.632468693382984"><ele>402.0</ele><time>2026-03-29T08:38:31Z</time></trkpt><trkpt lat="43.15131862426125" lon="10.632337736150413"><ele>402.0</ele><time>2026-03-29T08:38:32Z</time></trkpt><trkpt lat="43.15142355951702" lon="10.632197297898232"><ele>402.0</ele><time>2026-03-29T08:38:33Z</time></trkpt><trkpt lat="43.15149940744996" lon="10.632084407296379"><ele>400.6</ele><time>2026-03-29T08:38:34Z</time></trkpt><trkpt lat="43.15154289495059" lon="10.631975256405008"><ele>399.20000000000005</ele><time>2026-03-29T08:38:35Z</time></trkpt><trkpt lat="43.15159971344824" lon="10.631880697513663"><ele>397.8</ele><time>2026-03-29T08:38:36Z</time></trkpt><trkpt lat="43.1516378585187" lon="10.631775757110065"><ele>396.4</ele><time>2026-03-29T08:38:37Z</time></trkpt><trkpt lat="43.15167177485826" lon="10.631681123507867"><ele>395.0</ele><time>2026-03-29T08:38:38Z</time></trkpt><trkpt lat="43.15172872766887" lon="10.63153378958746"><ele>395.0</ele><time>2026-03-29T08:38:40Z</time></trkpt><trkpt lat="43.15173134281579" lon="10.631378846623182"><ele>395.0</ele><time>2026-03-29T08:38:41Z</time></trkpt><trkpt lat="43.151732351514546" lon="10.631235461138296"><ele>395.0</ele><time>2026-03-29T08:38:42Z</time></trkpt><trkpt lat="43.15173811437907" lon="10.631109872456747"><ele>395.0</ele><time>2026-03-29T08:38:43Z</time></trkpt><trkpt lat="43.1517227380959" lon="10.630969253140048"><ele>395.0</ele><time>2026-03-29T08:38:44Z</time></trkpt><trkpt lat="43.15169884009297" lon="10.630803686826972"><ele>393.6</ele><time>2026-03-29T08:38:45Z</time></trkpt><trkpt lat="43.15167477460628" lon="10.630667279038875"><ele>392.2</ele><time>2026-03-29T08:38:46Z</time></trkpt><trkpt lat="43.15166519240292" lon="10.630525460583206"><ele>390.79999999999995</ele><time>2026-03-29T08:38:47Z</time></trkpt><trkpt lat="43.15164113675674" lon="10.630380370497404"><ele>389.4</ele><time>2026-03-29T08:38:48Z</time></trkpt><trkpt lat="43.151617408797755" lon="10.630262582983136"><ele>388.0</ele><time>2026-03-29T08:38:49Z</time></trkpt><trkpt lat="43.15160591964339" lon="10.63012513191643"><ele>387.2</ele><time>2026-03-29T08:38:50Z</time></trkpt><trkpt lat="43.15160006948737" lon="10.629973043982963"><ele>386.4</ele><time>2026-03-29T08:38:51Z</time></trkpt><trkpt lat="43.151593349696576" lon="10.629828320392463"><ele>385.59999999999997</ele><time>2026-03-29T08:38:52Z</time></trkpt><trkpt lat="43.151606545133134" lon="10.629658079399437"><ele>384.79999999999995</ele><time>2026-03-29T08:38:53Z</time></trkpt><trkpt lat="43.15161938496953" lon="10.629539299152942"><ele>384.0</ele><time>2026-03-29T08:38:54Z</time></trkpt><trkpt lat="43.15163283091171" lon="10.629402808419735"><ele>384.0</ele><time>2026-03-29T08:38:55Z</time></trkpt><trkpt lat="43.15168130787698" lon="10.629281052434946"><ele>384.0</ele><time>2026-03-29T08:38:56Z</time></trkpt><trkpt lat="43.151789782179456" lon="10.629137193347796"><ele>384.0</ele><time>2026-03-29T08:38:58Z</time></trkpt><trkpt lat="43.15189709102927" lon="10.629045816976811"><ele>384.0</ele><time>2026-03-29T08:38:59Z</time></trkpt><trkpt lat="43.15197307856635" lon="10.628948639593936"><ele>384.0</ele><time>2026-03-29T08:39:00Z</time></trkpt><trkpt lat="43.152040912135504" lon="10.62883252985414"><ele>384.0</ele><time>2026-03-29T08:39:01Z</time></trkpt><trkpt lat="43.15209530736593" lon="10.628727443647394"><ele>384.0</ele><time>2026-03-29T08:39:02Z</time></trkpt><trkpt lat="43.152124525150754" lon="10.628617016805"><ele>384.0</ele><time>2026-03-29T08:39:03Z</time></trkpt><trkpt lat="43.15218067655706" lon="10.628502962871728"><ele>384.0</ele><time>2026-03-29T08:39:04Z</time></trkpt><trkpt lat="43.1522233937248" lon="10.62839362211795"><ele>383.2</ele><time>2026-03-29T08:39:05Z</time></trkpt><trkpt lat="43.15231040062286" lon="10.628295998511781"><ele>382.4</ele><time>2026-03-29T08:39:06Z</time></trkpt><trkpt lat="43.152355357295285" lon="10.62816814170602"><ele>381.6</ele><time>2026-03-29T08:39:07Z</time></trkpt><trkpt lat="43.152382774683495" lon="10.628047400347471"><ele>380.8</ele><time>2026-03-29T08:39:08Z</time></trkpt><trkpt lat="43.152380552401986" lon="10.627939273339331"><ele>380.0</ele><time>2026-03-29T08:39:09Z</time></trkpt><trkpt lat="43.15238418561836" lon="10.627846002014268"><ele>373.8</ele><time>2026-03-29T08:39:10Z</time></trkpt><trkpt lat="43.152385636499204" lon="10.627747324989777"><ele>367.6</ele><time>2026-03-29T08:39:11Z</time></trkpt><trkpt lat="43.15239292649424" lon="10.627636977488887"><ele>361.4</ele><time>2026-03-29T08:39:12Z</time></trkpt><trkpt lat="43.15242717958883" lon="10.627479207989493"><ele>355.2</ele><time>2026-03-29T08:39:14Z</time></trkpt><trkpt lat="43.15256630155644" lon="10.627431936429264"><ele>349.0</ele><time>2026-03-29T08:39:16Z</time></trkpt><trkpt lat="43.1526453017714" lon="10.627440926525777"><ele>349.0</ele><time>2026-03-29T08:39:17Z</time></trkpt><trkpt lat="43.15273728936459" lon="10.627395944887253"><ele>349.0</ele><time>2026-03-29T08:39:18Z</time></trkpt><trkpt lat="43.15278461496006" lon="10.627331747982419"><ele>349.0</ele><time>2026-03-29T08:39:19Z</time></trkpt><trkpt lat="43.15284738435727" lon="10.627283913226076"><ele>349.0</ele><time>2026-03-29T08:39:20Z</time></trkpt><trkpt lat="43.15290556965123" lon="10.627203804846761"><ele>349.0</ele><time>2026-03-29T08:39:21Z</time></trkpt><trkpt lat="43.152941524393185" lon="10.627065382824204"><ele>349.0</ele><time>2026-03-29T08:39:22Z</time></trkpt><trkpt lat="43.152989116597965" lon="10.626914061524237"><ele>345.6</ele><time>2026-03-29T08:39:23Z</time></trkpt><trkpt lat="43.153053833586675" lon="10.626793452747075"><ele>342.2</ele><time>2026-03-29T08:39:24Z</time></trkpt><trkpt lat="43.15305124466838" lon="10.626693673162073"><ele>338.8</ele><time>2026-03-29T08:39:25Z</time></trkpt><trkpt lat="43.15305798201983" lon="10.626553881643193"><ele>335.40000000000003</ele><time>2026-03-29T08:39:26Z</time></trkpt><trkpt lat="43.15303625869206" lon="10.626412604188058"><ele>332.0</ele><time>2026-03-29T08:39:27Z</time></trkpt><trkpt lat="43.1530128627537" lon="10.626282509919896"><ele>329.0</ele><time>2026-03-29T08:39:27.999Z</time></trkpt><trkpt lat="43.1529754929467" lon="10.62613489761413"><ele>326.0</ele><time>2026-03-29T08:39:28.999Z</time></trkpt><trkpt lat="43.15295944442172" lon="10.62600812010484"><ele>323.0</ele><time>2026-03-29T08:39:29.999Z</time></trkpt><trkpt lat="43.15296936914875" lon="10.625881629763686"><ele>320.0</ele><time>2026-03-29T08:39:30.999Z</time></trkpt><trkpt lat="43.152972814002126" lon="10.625762260481954"><ele>317.0</ele><time>2026-03-29T08:39:31.999Z</time></trkpt><trkpt lat="43.152995102495694" lon="10.625645951963394"><ele>317.0</ele><time>2026-03-29T08:39:32.999Z</time></trkpt><trkpt lat="43.15302008311341" lon="10.625547945082733"><ele>317.0</ele><time>2026-03-29T08:39:33.999Z</time></trkpt><trkpt lat="43.153045421158055" lon="10.625461456415739"><ele>317.0</ele><time>2026-03-29T08:39:34.999Z</time></trkpt><trkpt lat="43.153047969426716" lon="10.625371535837003"><ele>317.0</ele><time>2026-03-29T08:39:35.999Z</time></trkpt><trkpt lat="43.15305874834614" lon="10.625265431231863"><ele>317.0</ele><time>2026-03-29T08:39:36.999Z</time></trkpt><trkpt lat="43.15306967030628" lon="10.62517036378042"><ele>317.0</ele><time>2026-03-29T08:39:38Z</time></trkpt><trkpt lat="43.15309555659336" lon="10.625090192602805"><ele>317.0</ele><time>2026-03-29T08:39:39Z</time></trkpt><trkpt lat="43.15314413516524" lon="10.625004588380303"><ele>319.5</ele><time>2026-03-29T08:39:40Z</time></trkpt><trkpt lat="43.15317820083636" lon="10.624928155228883"><ele>322.0</ele><time>2026-03-29T08:39:41Z</time></trkpt><trkpt lat="43.1532300807161" lon="10.624794249978299"><ele>324.5</ele><time>2026-03-29T08:39:43Z</time></trkpt><trkpt lat="43.15327414478118" lon="10.624719911976873"><ele>327.0</ele><time>2026-03-29T08:39:45Z</time></trkpt><trkpt lat="43.153351452957" lon="10.624675838395593"><ele>329.5</ele><time>2026-03-29T08:39:47Z</time></trkpt><trkpt lat="43.15346136848581" lon="10.624677991552929"><ele>332.0</ele><time>2026-03-29T08:39:49Z</time></trkpt><trkpt lat="43.153536901483264" lon="10.624690765507134"><ele>332.0</ele><time>2026-03-29T08:39:50Z</time></trkpt><trkpt lat="43.15366054240333" lon="10.62471764207106"><ele>332.0</ele><time>2026-03-29T08:39:51Z</time></trkpt><trkpt lat="43.15376390161257" lon="10.624757624464364"><ele>332.0</ele><time>2026-03-29T08:39:52Z</time></trkpt><trkpt lat="43.15386615946185" lon="10.624756324725114"><ele>332.0</ele><time>2026-03-29T08:39:53Z</time></trkpt><trkpt lat="43.15397339733284" lon="10.624764547267013"><ele>332.0</ele><time>2026-03-29T08:39:54Z</time></trkpt><trkpt lat="43.15408274995618" lon="10.624756218067766"><ele>332.6666666666667</ele><time>2026-03-29T08:39:55Z</time></trkpt><trkpt lat="43.15416668702782" lon="10.624726398409928"><ele>333.33333333333337</ele><time>2026-03-29T08:39:56Z</time></trkpt><trkpt lat="43.154249171022975" lon="10.624719547226256"><ele>334.0</ele><time>2026-03-29T08:39:57Z</time></trkpt><trkpt lat="43.15433681662956" lon="10.62466397378497"><ele>334.6666666666667</ele><time>2026-03-29T08:39:58Z</time></trkpt><trkpt lat="43.154411192919184" lon="10.62459666714744"><ele>335.3333333333333</ele><time>2026-03-29T08:39:59Z</time></trkpt><trkpt lat="43.15447155952851" lon="10.62454216296808"><ele>336.0</ele><time>2026-03-29T08:40:00Z</time></trkpt><trkpt lat="43.15457267824098" lon="10.624446403006232"><ele>331.8</ele><time>2026-03-29T08:40:01Z</time></trkpt><trkpt lat="43.154650868692706" lon="10.624388104086457"><ele>327.6</ele><time>2026-03-29T08:40:02Z</time></trkpt><trkpt lat="43.1547053353505" lon="10.624314160305332"><ele>323.4</ele><time>2026-03-29T08:40:03Z</time></trkpt><trkpt lat="43.1547712117674" lon="10.624238672259855"><ele>319.2</ele><time>2026-03-29T08:40:04Z</time></trkpt><trkpt lat="43.154872484290244" lon="10.624085354672406"><ele>315.0</ele><time>2026-03-29T08:40:06Z</time></trkpt><trkpt lat="43.15493484193636" lon="10.624029810301693"><ele>315.0</ele><time>2026-03-29T08:40:07Z</time></trkpt><trkpt lat="43.15499827775794" lon="10.623921658918228"><ele>315.0</ele><time>2026-03-29T08:40:09Z</time></trkpt><trkpt lat="43.15506828463752" lon="10.623810908102474"><ele>315.0</ele><time>2026-03-29T08:40:11Z</time></trkpt><trkpt lat="43.15512205643" lon="10.623758703701217"><ele>315.0</ele><time>2026-03-29T08:40:12Z</time></trkpt><trkpt lat="43.155178513170604" lon="10.62370327974827"><ele>315.0</ele><time>2026-03-29T08:40:13Z</time></trkpt><trkpt lat="43.15529452535349" lon="10.623657948029265"><ele>311.8</ele><time>2026-03-29T08:40:14Z</time></trkpt><trkpt lat="43.15535733437172" lon="10.623602664175149"><ele>308.6</ele><time>2026-03-29T08:40:15Z</time></trkpt><trkpt lat="43.15541720014433" lon="10.623510383388902"><ele>305.4</ele><time>2026-03-29T08:40:16Z</time></trkpt><trkpt lat="43.15552172871806" lon="10.623424055978713"><ele>302.2</ele><time>2026-03-29T08:40:17Z</time></trkpt><trkpt lat="43.15554597812395" lon="10.623266147530234"><ele>299.0</ele><time>2026-03-29T08:40:18Z</time></trkpt><trkpt lat="43.155597560090925" lon="10.623086373560964"><ele>299.0</ele><time>2026-03-29T08:40:19Z</time></trkpt><trkpt lat="43.15568262334693" lon="10.622981663578317"><ele>299.0</ele><time>2026-03-29T08:40:20Z</time></trkpt><trkpt lat="43.15574202788722" lon="10.622869210751631"><ele>299.0</ele><time>2026-03-29T08:40:21Z</time></trkpt><trkpt lat="43.155841563138466" lon="10.622841796843336"><ele>299.0</ele><time>2026-03-29T08:40:22Z</time></trkpt><trkpt lat="43.15599116409468" lon="10.622824414678469"><ele>299.4</ele><time>2026-03-29T08:40:23Z</time></trkpt><trkpt lat="43.15608792922396" lon="10.622813548097815"><ele>299.79999999999995</ele><time>2026-03-29T08:40:24Z</time></trkpt><trkpt lat="43.156168516952924" lon="10.622815534343966"><ele>300.20000000000005</ele><time>2026-03-29T08:40:25Z</time></trkpt><trkpt lat="43.15626342401405" lon="10.622816390997004"><ele>300.6</ele><time>2026-03-29T08:40:26Z</time></trkpt><trkpt lat="43.15636957851554" lon="10.62279161289661"><ele>301.0</ele><time>2026-03-29T08:40:27Z</time></trkpt><trkpt lat="43.15647624673136" lon="10.622729971566311"><ele>299.25</ele><time>2026-03-29T08:40:28Z</time></trkpt><trkpt lat="43.15656447529666" lon="10.622672346279746"><ele>297.5</ele><time>2026-03-29T08:40:29Z</time></trkpt><trkpt lat="43.1566439136291" lon="10.622581581616622"><ele>295.75</ele><time>2026-03-29T08:40:30Z</time></trkpt><trkpt lat="43.15673471562317" lon="10.622437328796911"><ele>294.0</ele><time>2026-03-29T08:40:31Z</time></trkpt><trkpt lat="43.156804258364055" lon="10.622298199435205"><ele>294.0</ele><time>2026-03-29T08:40:32Z</time></trkpt><trkpt lat="43.1569169452339" lon="10.622161047835672"><ele>294.0</ele><time>2026-03-29T08:40:33Z</time></trkpt><trkpt lat="43.15694604860823" lon="10.622073967835952"><ele>294.0</ele><time>2026-03-29T08:40:34Z</time></trkpt><trkpt lat="43.15698896787672" lon="10.622004896892298"><ele>294.0</ele><time>2026-03-29T08:40:35Z</time></trkpt><trkpt lat="43.15702734488975" lon="10.621894077558032"><ele>294.0</ele><time>2026-03-29T08:40:36Z</time></trkpt><trkpt lat="43.157028590825746" lon="10.621776463125157"><ele>294.5</ele><time>2026-03-29T08:40:37Z</time></trkpt><trkpt lat="43.157044079540626" lon="10.621660842651846"><ele>295.0</ele><time>2026-03-29T08:40:38Z</time></trkpt><trkpt lat="43.157041877865865" lon="10.621553430659704"><ele>295.5</ele><time>2026-03-29T08:40:39Z</time></trkpt><trkpt lat="43.15704204427604" lon="10.621453551504807"><ele>296.0</ele><time>2026-03-29T08:40:40Z</time></trkpt><trkpt lat="43.157008077819505" lon="10.621284398549031"><ele>296.5</ele><time>2026-03-29T08:40:42Z</time></trkpt><trkpt lat="43.15695228194874" lon="10.621207758443024"><ele>297.0</ele><time>2026-03-29T08:40:43Z</time></trkpt><trkpt lat="43.15689541738404" lon="10.621136652419818"><ele>293.4</ele><time>2026-03-29T08:40:44Z</time></trkpt><trkpt lat="43.15686627640574" lon="10.621038671916963"><ele>289.79999999999995</ele><time>2026-03-29T08:40:46Z</time></trkpt><trkpt lat="43.156890714887844" lon="10.620898364925276"><ele>286.2</ele><time>2026-03-29T08:40:49Z</time></trkpt><trkpt lat="43.15694891948846" lon="10.620826709224227"><ele>282.59999999999997</ele><time>2026-03-29T08:40:50Z</time></trkpt><trkpt lat="43.15704343315687" lon="10.620766442210684"><ele>279.0</ele><time>2026-03-29T08:40:51Z</time></trkpt><trkpt lat="43.157117825260066" lon="10.620678652516709"><ele>279.0</ele><time>2026-03-29T08:40:52Z</time></trkpt><trkpt lat="43.15718292470003" lon="10.620612742593174"><ele>279.0</ele><time>2026-03-29T08:40:53Z</time></trkpt><trkpt lat="43.157237307782296" lon="10.620512292560917"><ele>279.0</ele><time>2026-03-29T08:40:54Z</time></trkpt><trkpt lat="43.15729055210152" lon="10.62043117965024"><ele>279.0</ele><time>2026-03-29T08:40:55Z</time></trkpt><trkpt lat="43.15732160749211" lon="10.620341234196527"><ele>279.0</ele><time>2026-03-29T08:40:56Z</time></trkpt><trkpt lat="43.15735900136144" lon="10.620248283154305"><ele>279.0</ele><time>2026-03-29T08:40:57Z</time></trkpt><trkpt lat="43.157395726937075" lon="10.620077849270816"><ele>276.8</ele><time>2026-03-29T08:40:59Z</time></trkpt><trkpt lat="43.1573972939266" lon="10.619945691110846"><ele>274.59999999999997</ele><time>2026-03-29T08:41:00Z</time></trkpt><trkpt lat="43.157438782343604" lon="10.619750452485922"><ele>272.4</ele><time>2026-03-29T08:41:02Z</time></trkpt><trkpt lat="43.15747890450977" lon="10.619651718927935"><ele>270.2</ele><time>2026-03-29T08:41:03Z</time></trkpt><trkpt lat="43.15747827408714" lon="10.619556112514687"><ele>268.0</ele><time>2026-03-29T08:41:04Z</time></trkpt><trkpt lat="43.157504089591185" lon="10.619463969898915"><ele>263.2</ele><time>2026-03-29T08:41:05Z</time></trkpt><trkpt lat="43.157539326281835" lon="10.619332445160374"><ele>258.4</ele><time>2026-03-29T08:41:07Z</time></trkpt><trkpt lat="43.157582320816594" lon="10.619179734544911"><ele>253.59999999999997</ele><time>2026-03-29T08:41:09Z</time></trkpt><trkpt lat="43.157665321484416" lon="10.61903643454629"><ele>248.79999999999998</ele><time>2026-03-29T08:41:11Z</time></trkpt><trkpt lat="43.15772342222509" lon="10.618964425842446"><ele>244.0</ele><time>2026-03-29T08:41:12Z</time></trkpt><trkpt lat="43.15777607637354" lon="10.618902476617821"><ele>244.0</ele><time>2026-03-29T08:41:13Z</time></trkpt><trkpt lat="43.157835734110776" lon="10.618844818476793"><ele>243.99999999999997</ele><time>2026-03-29T08:41:14Z</time></trkpt><trkpt lat="43.15794364389762" lon="10.618776369950943"><ele>243.99999999999997</ele><time>2026-03-29T08:41:16Z</time></trkpt><trkpt lat="43.15804084963897" lon="10.61878929892518"><ele>244.0</ele><time>2026-03-29T08:41:18Z</time></trkpt><trkpt lat="43.15811082899502" lon="10.618841048826132"><ele>244.0</ele><time>2026-03-29T08:41:19Z</time></trkpt><trkpt lat="43.158215446569386" lon="10.618895489498243"><ele>243.85714285714283</ele><time>2026-03-29T08:41:20Z</time></trkpt><trkpt lat="43.15826995232301" lon="10.618985994989028"><ele>243.71428571428572</ele><time>2026-03-29T08:41:21Z</time></trkpt><trkpt lat="43.158322313973024" lon="10.61904087094297"><ele>243.57142857142856</ele><time>2026-03-29T08:41:22Z</time></trkpt><trkpt lat="43.15837621395154" lon="10.619086447738676"><ele>243.42857142857142</ele><time>2026-03-29T08:41:23Z</time></trkpt><trkpt lat="43.15844288400534" lon="10.619141053451782"><ele>243.28571428571428</ele><time>2026-03-29T08:41:24Z</time></trkpt><trkpt lat="43.158515490484604" lon="10.619183791409132"><ele>243.14285714285714</ele><time>2026-03-29T08:41:25Z</time></trkpt><trkpt lat="43.15858308984942" lon="10.619227640346994"><ele>243.0</ele><time>2026-03-29T08:41:26Z</time></trkpt><trkpt lat="43.15866281700755" lon="10.619233666037248"><ele>243.0</ele><time>2026-03-29T08:41:27Z</time></trkpt><trkpt lat="43.15876909224231" lon="10.619246120990518"><ele>243.0</ele><time>2026-03-29T08:41:28Z</time></trkpt><trkpt lat="43.15884486267627" lon="10.61931093463044"><ele>243.0</ele><time>2026-03-29T08:41:29Z</time></trkpt><trkpt lat="43.158948386884816" lon="10.61932725098175"><ele>243.0</ele><time>2026-03-29T08:41:30Z</time></trkpt><trkpt lat="43.159023850326044" lon="10.619325284169795"><ele>243.0</ele><time>2026-03-29T08:41:31Z</time></trkpt><trkpt lat="43.15908920907966" lon="10.6193083372174"><ele>243.0</ele><time>2026-03-29T08:41:32Z</time></trkpt><trkpt lat="43.15917600011643" lon="10.619228713307766"><ele>240.33333333333334</ele><time>2026-03-29T08:41:33Z</time></trkpt><trkpt lat="43.15921431979983" lon="10.619137316490036"><ele>237.66666666666669</ele><time>2026-03-29T08:41:34Z</time></trkpt><trkpt lat="43.15924428631503" lon="10.6190491255323"><ele>235.0</ele><time>2026-03-29T08:41:35Z</time></trkpt><trkpt lat="43.15925358150879" lon="10.61896194592256"><ele>232.33333333333334</ele><time>2026-03-29T08:41:36Z</time></trkpt><trkpt lat="43.159301268050015" lon="10.618841394812685"><ele>229.66666666666669</ele><time>2026-03-29T08:41:37Z</time></trkpt><trkpt lat="43.15935555044247" lon="10.618731792678807"><ele>227.0</ele><time>2026-03-29T08:41:38Z</time></trkpt><trkpt lat="43.159376773560865" lon="10.618648892507942"><ele>225.00000000000003</ele><time>2026-03-29T08:41:39Z</time></trkpt><trkpt lat="43.159436235523074" lon="10.6185465872093"><ele>223.0</ele><time>2026-03-29T08:41:40Z</time></trkpt><trkpt lat="43.15946248123673" lon="10.618455264068052"><ele>221.0</ele><time>2026-03-29T08:41:41Z</time></trkpt><trkpt lat="43.15952951956304" lon="10.61830576794291"><ele>219.0</ele><time>2026-03-29T08:41:42.999Z</time></trkpt><trkpt lat="43.15956465699998" lon="10.618232248923855"><ele>217.00000000000003</ele><time>2026-03-29T08:41:44Z</time></trkpt><trkpt lat="43.15959800550506" lon="10.618142325074814"><ele>215.0</ele><time>2026-03-29T08:41:45Z</time></trkpt><trkpt lat="43.15963496584242" lon="10.618045169491928"><ele>215.00000000000003</ele><time>2026-03-29T08:41:46Z</time></trkpt><trkpt lat="43.15968553046042" lon="10.617970001354777"><ele>215.0</ele><time>2026-03-29T08:41:47Z</time></trkpt><trkpt lat="43.15970865079068" lon="10.617887518338302"><ele>215.0</ele><time>2026-03-29T08:41:48Z</time></trkpt><trkpt lat="43.15975589095462" lon="10.617789827288492"><ele>215.0</ele><time>2026-03-29T08:41:49Z</time></trkpt><trkpt lat="43.159800441096465" lon="10.617697605401913"><ele>215.00000000000003</ele><time>2026-03-29T08:41:50Z</time></trkpt><trkpt lat="43.15985812698809" lon="10.617591740529464"><ele>215.0</ele><time>2026-03-29T08:41:51Z</time></trkpt><trkpt lat="43.159907610368364" lon="10.617495810565055"><ele>212.33333333333334</ele><time>2026-03-29T08:41:52Z</time></trkpt><trkpt lat="43.15994905424789" lon="10.61741607433592"><ele>209.66666666666669</ele><time>2026-03-29T08:41:53Z</time></trkpt><trkpt lat="43.15999473734808" lon="10.617335351254543"><ele>207.0</ele><time>2026-03-29T08:41:54Z</time></trkpt><trkpt lat="43.160061823078955" lon="10.617278656411212"><ele>204.33333333333331</ele><time>2026-03-29T08:41:55Z</time></trkpt><trkpt lat="43.160105323119176" lon="10.617208427447165"><ele>201.66666666666666</ele><time>2026-03-29T08:41:56Z</time></trkpt><trkpt lat="43.16015929834362" lon="10.61713805256268"><ele>199.0</ele><time>2026-03-29T08:41:57Z</time></trkpt><trkpt lat="43.16016585782438" lon="10.616997089267013"><ele>196.99999999999997</ele><time>2026-03-29T08:41:59Z</time></trkpt><trkpt lat="43.16011828193965" lon="10.616848286178527"><ele>195.0</ele><time>2026-03-29T08:42:01Z</time></trkpt><trkpt lat="43.1600891749606" lon="10.616764720306037"><ele>193.0</ele><time>2026-03-29T08:42:02Z</time></trkpt><trkpt lat="43.1600537506377" lon="10.616671085160043"><ele>191.0</ele><time>2026-03-29T08:42:03Z</time></trkpt><trkpt lat="43.1600136563368" lon="10.61658858965525"><ele>189.0</ele><time>2026-03-29T08:42:04Z</time></trkpt><trkpt lat="43.159969792795145" lon="10.6165182911539"><ele>187.0</ele><time>2026-03-29T08:42:05Z</time></trkpt><trkpt lat="43.15987898141245" lon="10.616464931071658"><ele>187.0</ele><time>2026-03-29T08:42:07Z</time></trkpt><trkpt lat="43.159807877931826" lon="10.616459867469953"><ele>187.0</ele><time>2026-03-29T08:42:08Z</time></trkpt><trkpt lat="43.15974284755422" lon="10.616469525873725"><ele>187.0</ele><time>2026-03-29T08:42:09Z</time></trkpt><trkpt lat="43.15967175334243" lon="10.616470756569111"><ele>187.0</ele><time>2026-03-29T08:42:11Z</time></trkpt><trkpt lat="43.15968442531941" lon="10.61637227044534"><ele>187.0</ele><time>2026-03-29T08:42:13Z</time></trkpt><trkpt lat="43.159791662896204" lon="10.616347422635943"><ele>187.0</ele><time>2026-03-29T08:42:15Z</time></trkpt><trkpt lat="43.159883298317084" lon="10.616311790483822"><ele>186.66666666666669</ele><time>2026-03-29T08:42:17Z</time></trkpt><trkpt lat="43.159862256880935" lon="10.616147014635525"><ele>186.33333333333334</ele><time>2026-03-29T08:42:20Z</time></trkpt><trkpt lat="43.15977365778577" lon="10.616158265426758"><ele>186.0</ele><time>2026-03-29T08:42:21Z</time></trkpt><trkpt lat="43.15969155794315" lon="10.616114167946794"><ele>185.66666666666666</ele><time>2026-03-29T08:42:22Z</time></trkpt><trkpt lat="43.15961450528005" lon="10.61611796030297"><ele>185.33333333333331</ele><time>2026-03-29T08:42:23Z</time></trkpt><trkpt lat="43.159550877545456" lon="10.616109976254721"><ele>185.0</ele><time>2026-03-29T08:42:24Z</time></trkpt><trkpt lat="43.15947811539328" lon="10.616113248571054"><ele>184.99999999999997</ele><time>2026-03-29T08:42:25Z</time></trkpt><trkpt lat="43.15940325563102" lon="10.616129896565742"><ele>185.0</ele><time>2026-03-29T08:42:26Z</time></trkpt><trkpt lat="43.15933192671012" lon="10.616148565715905"><ele>185.0</ele><time>2026-03-29T08:42:27Z</time></trkpt><trkpt lat="43.159271294395914" lon="10.616182488510079"><ele>185.0</ele><time>2026-03-29T08:42:28Z</time></trkpt><trkpt lat="43.15919228894893" lon="10.616198038820565"><ele>185.0</ele><time>2026-03-29T08:42:30Z</time></trkpt><trkpt lat="43.1592156213798" lon="10.61611690615219"><ele>184.99999999999997</ele><time>2026-03-29T08:42:32Z</time></trkpt><trkpt lat="43.15929944804031" lon="10.61608620419522"><ele>185.0</ele><time>2026-03-29T08:42:33Z</time></trkpt><trkpt lat="43.1593624375881" lon="10.616017334748035"><ele>181.8</ele><time>2026-03-29T08:42:34Z</time></trkpt><trkpt lat="43.15944508381863" lon="10.615928281830625"><ele>178.6</ele><time>2026-03-29T08:42:35Z</time></trkpt><trkpt lat="43.159529085734306" lon="10.615846231833784"><ele>175.39999999999998</ele><time>2026-03-29T08:42:36Z</time></trkpt><trkpt lat="43.15961812535091" lon="10.615770012293092"><ele>172.2</ele><time>2026-03-29T08:42:37Z</time></trkpt><trkpt lat="43.15970207762288" lon="10.615699419048774"><ele>169.0</ele><time>2026-03-29T08:42:38Z</time></trkpt><trkpt lat="43.15979012876983" lon="10.615627982255479"><ele>169.0</ele><time>2026-03-29T08:42:39Z</time></trkpt><trkpt lat="43.159864767354755" lon="10.615554721588197"><ele>169.0</ele><time>2026-03-29T08:42:40Z</time></trkpt><trkpt lat="43.159946910074446" lon="10.615480717336425"><ele>169.0</ele><time>2026-03-29T08:42:41Z</time></trkpt><trkpt lat="43.16003690424032" lon="10.615409847128417"><ele>169.0</ele><time>2026-03-29T08:42:42Z</time></trkpt><trkpt lat="43.16010609522553" lon="10.615339202518168"><ele>169.0</ele><time>2026-03-29T08:42:43Z</time></trkpt><trkpt lat="43.160190615936735" lon="10.615292866680235"><ele>167.16666666666669</ele><time>2026-03-29T08:42:44Z</time></trkpt><trkpt lat="43.160259527366264" lon="10.615215687890798"><ele>165.33333333333334</ele><time>2026-03-29T08:42:45Z</time></trkpt><trkpt lat="43.16034198847614" lon="10.615170028436141"><ele>163.5</ele><time>2026-03-29T08:42:46Z</time></trkpt><trkpt lat="43.1604006669151" lon="10.615123712927709"><ele>161.66666666666666</ele><time>2026-03-29T08:42:47Z</time></trkpt><trkpt lat="43.160473911497114" lon="10.615085641381743"><ele>159.83333333333331</ele><time>2026-03-29T08:42:50Z</time></trkpt><trkpt lat="43.16053163160379" lon="10.615038324053282"><ele>158.0</ele><time>2026-03-29T08:43:48.999Z</time></trkpt><trkpt lat="43.16056751314817" lon="10.614946016418676"><ele>158.0</ele><time>2026-03-29T08:43:51Z</time></trkpt><trkpt lat="43.160567198674144" lon="10.614828503147537"><ele>158.0</ele><time>2026-03-29T08:43:52Z</time></trkpt><trkpt lat="43.1605614286272" lon="10.614721714973797"><ele>158.0</ele><time>2026-03-29T08:43:53Z</time></trkpt><trkpt lat="43.16055921708993" lon="10.614605105431627"><ele>158.0</ele><time>2026-03-29T08:43:54Z</time></trkpt><trkpt lat="43.16054986073286" lon="10.614499800157393"><ele>158.0</ele><time>2026-03-29T08:43:55Z</time></trkpt><trkpt lat="43.16054685774867" lon="10.614371403288898"><ele>158.0</ele><time>2026-03-29T08:43:56Z</time></trkpt><trkpt lat="43.16053707593389" lon="10.614252507701641"><ele>157.6</ele><time>2026-03-29T08:43:57Z</time></trkpt><trkpt lat="43.160527561630296" lon="10.614108741106326"><ele>157.20000000000002</ele><time>2026-03-29T08:43:58Z</time></trkpt><trkpt lat="43.16052544276332" lon="10.613968381804238"><ele>156.8</ele><time>2026-03-29T08:43:59Z</time></trkpt><trkpt lat="43.160526907776465" lon="10.613826444231558"><ele>156.4</ele><time>2026-03-29T08:44:00Z</time></trkpt><trkpt lat="43.16052204014456" lon="10.61368784279243"><ele>156.0</ele><time>2026-03-29T08:44:01Z</time></trkpt><trkpt lat="43.16052182491317" lon="10.613553704427444"><ele>157.25</ele><time>2026-03-29T08:44:02Z</time></trkpt><trkpt lat="43.1605153960815" lon="10.613393273972754"><ele>158.5</ele><time>2026-03-29T08:44:03Z</time></trkpt><trkpt lat="43.160490296895404" lon="10.613251028259734"><ele>159.75</ele><time>2026-03-29T08:44:04Z</time></trkpt><trkpt lat="43.16042961952221" lon="10.613116035022571"><ele>161.0</ele><time>2026-03-29T08:44:05Z</time></trkpt><trkpt lat="43.16034725094663" lon="10.6129276455487"><ele>162.20000000000002</ele><time>2026-03-29T08:44:06Z</time></trkpt><trkpt lat="43.16028181988945" lon="10.612810877745316"><ele>163.4</ele><time>2026-03-29T08:44:07Z</time></trkpt><trkpt lat="43.16022621682364" lon="10.612698404132779"><ele>164.6</ele><time>2026-03-29T08:44:08Z</time></trkpt><trkpt lat="43.160169951597936" lon="10.612614749427905"><ele>165.8</ele><time>2026-03-29T08:44:09Z</time></trkpt><trkpt lat="43.16007072745236" lon="10.612488075943897"><ele>167.0</ele><time>2026-03-29T08:44:10Z</time></trkpt><trkpt lat="43.159967613735986" lon="10.612354514257035"><ele>167.0</ele><time>2026-03-29T08:44:11Z</time></trkpt><trkpt lat="43.15989151668755" lon="10.612218119412459"><ele>167.0</ele><time>2026-03-29T08:44:12Z</time></trkpt><trkpt lat="43.15985186607086" lon="10.61208466974257"><ele>167.0</ele><time>2026-03-29T08:44:13Z</time></trkpt><trkpt lat="43.15979111949795" lon="10.61194497854347"><ele>167.0</ele><time>2026-03-29T08:44:14Z</time></trkpt><trkpt lat="43.15976464949463" lon="10.611801192000433"><ele>164.0</ele><time>2026-03-29T08:44:15Z</time></trkpt><trkpt lat="43.15974247313181" lon="10.611658584086697"><ele>161.0</ele><time>2026-03-29T08:44:16Z</time></trkpt><trkpt lat="43.159720513013596" lon="10.611496794838466"><ele>158.0</ele><time>2026-03-29T08:44:17Z</time></trkpt><trkpt lat="43.15970663354244" lon="10.61134363858672"><ele>155.0</ele><time>2026-03-29T08:44:18Z</time></trkpt><trkpt lat="43.159701835473875" lon="10.611185848683691"><ele>154.25</ele><time>2026-03-29T08:44:19Z</time></trkpt><trkpt lat="43.15970094229291" lon="10.611052540900783"><ele>153.5</ele><time>2026-03-29T08:44:20Z</time></trkpt><trkpt lat="43.15971157042859" lon="10.61091022679538"><ele>152.75</ele><time>2026-03-29T08:44:21Z</time></trkpt><trkpt lat="43.15972819089546" lon="10.610730557982237"><ele>152.0</ele><time>2026-03-29T08:44:22Z</time></trkpt><trkpt lat="43.15975958912577" lon="10.610577307778621"><ele>152.0</ele><time>2026-03-29T08:44:23Z</time></trkpt><trkpt lat="43.15979346765943" lon="10.610426352813992"><ele>152.0</ele><time>2026-03-29T08:44:24Z</time></trkpt><trkpt lat="43.159822362722444" lon="10.610277675938113"><ele>152.0</ele><time>2026-03-29T08:44:25Z</time></trkpt><trkpt lat="43.15984984693683" lon="10.610139483960406"><ele>152.0</ele><time>2026-03-29T08:44:26Z</time></trkpt><trkpt lat="43.15987972023071" lon="10.610013891310278"><ele>152.0</ele><time>2026-03-29T08:44:27Z</time></trkpt><trkpt lat="43.15990033197139" lon="10.60986863524312"><ele>154.8</ele><time>2026-03-29T08:44:28Z</time></trkpt><trkpt lat="43.15991561158415" lon="10.609747670885916"><ele>157.6</ele><time>2026-03-29T08:44:29Z</time></trkpt><trkpt lat="43.15992194804334" lon="10.609613825216696"><ele>160.4</ele><time>2026-03-29T08:44:30Z</time></trkpt><trkpt lat="43.159918624906126" lon="10.609473322107775"><ele>163.20000000000002</ele><time>2026-03-29T08:44:31Z</time></trkpt><trkpt lat="43.15991659383013" lon="10.609350384564626"><ele>166.0</ele><time>2026-03-29T08:44:32Z</time></trkpt><trkpt lat="43.15991183961781" lon="10.609242437521678"><ele>166.0</ele><time>2026-03-29T08:44:33Z</time></trkpt><trkpt lat="43.15989738688169" lon="10.60908648509128"><ele>166.0</ele><time>2026-03-29T08:44:35Z</time></trkpt><trkpt lat="43.159768528826234" lon="10.608975881281062"><ele>166.0</ele><time>2026-03-29T08:44:37Z</time></trkpt><trkpt lat="43.15970167618629" lon="10.608926710801347"><ele>166.0</ele><time>2026-03-29T08:44:38Z</time></trkpt><trkpt lat="43.15963339355644" lon="10.60889049145307"><ele>166.0</ele><time>2026-03-29T08:44:39Z</time></trkpt><trkpt lat="43.15956338050353" lon="10.608884189370643"><ele>162.0</ele><time>2026-03-29T08:44:40Z</time></trkpt><trkpt lat="43.15949727589149" lon="10.608935563781817"><ele>158.0</ele><time>2026-03-29T08:44:41Z</time></trkpt><trkpt lat="43.159414666337675" lon="10.608983953639042"><ele>154.0</ele><time>2026-03-29T08:44:42Z</time></trkpt><trkpt lat="43.15931696478852" lon="10.609027554038661"><ele>150.0</ele><time>2026-03-29T08:44:43Z</time></trkpt><trkpt lat="43.15920696163681" lon="10.609073478931585"><ele>146.0</ele><time>2026-03-29T08:44:44Z</time></trkpt><trkpt lat="43.15908600176535" lon="10.609118383774653"><ele>143.66666666666666</ele><time>2026-03-29T08:44:45Z</time></trkpt><trkpt lat="43.15897226862029" lon="10.609138816727357"><ele>141.33333333333331</ele><time>2026-03-29T08:44:46Z</time></trkpt><trkpt lat="43.15886916897213" lon="10.609181396963475"><ele>139.0</ele><time>2026-03-29T08:44:47Z</time></trkpt><trkpt lat="43.158787629428964" lon="10.609203553488607"><ele>136.66666666666666</ele><time>2026-03-29T08:44:48Z</time></trkpt><trkpt lat="43.15872398536478" lon="10.60922875960889"><ele>134.33333333333334</ele><time>2026-03-29T08:44:49Z</time></trkpt><trkpt lat="43.158657867915956" lon="10.609217790156098"><ele>132.0</ele><time>2026-03-29T08:44:51Z</time></trkpt><trkpt lat="43.1587391492285" lon="10.608926695010505"><ele>132.0</ele><time>2026-03-29T08:44:54Z</time></trkpt><trkpt lat="43.15877038684899" lon="10.60879011497499"><ele>132.0</ele><time>2026-03-29T08:44:55Z</time></trkpt><trkpt lat="43.158779553571925" lon="10.608663327798732"><ele>132.0</ele><time>2026-03-29T08:44:56Z</time></trkpt><trkpt lat="43.15881304168625" lon="10.608573321636921"><ele>132.0</ele><time>2026-03-29T08:44:57Z</time></trkpt><trkpt lat="43.1588273436404" lon="10.608430896001755"><ele>132.0</ele><time>2026-03-29T08:44:59Z</time></trkpt><trkpt lat="43.15874704426121" lon="10.608244126646113"><ele>131.0</ele><time>2026-03-29T08:45:01Z</time></trkpt><trkpt lat="43.158695010469756" lon="10.608142079508974"><ele>130.0</ele><time>2026-03-29T08:45:02Z</time></trkpt><trkpt lat="43.158681790910705" lon="10.608020835329267"><ele>129.0</ele><time>2026-03-29T08:45:03Z</time></trkpt><trkpt lat="43.1587157791006" lon="10.60789046683612"><ele>128.0</ele><time>2026-03-29T08:45:04Z</time></trkpt><trkpt lat="43.15878659681295" lon="10.607766040088103"><ele>127.0</ele><time>2026-03-29T08:45:05Z</time></trkpt><trkpt lat="43.15887473169152" lon="10.607647943040135"><ele>127.5</ele><time>2026-03-29T08:45:06Z</time></trkpt><trkpt lat="43.1589606783907" lon="10.607525522480508"><ele>128.0</ele><time>2026-03-29T08:45:07Z</time></trkpt><trkpt lat="43.15903441855709" lon="10.607381751608704"><ele>128.5</ele><time>2026-03-29T08:45:08Z</time></trkpt><trkpt lat="43.1590827180939" lon="10.607226657787447"><ele>129.0</ele><time>2026-03-29T08:45:09Z</time></trkpt><trkpt lat="43.15908449597967" lon="10.607042470850718"><ele>128.33333333333334</ele><time>2026-03-29T08:45:10Z</time></trkpt><trkpt lat="43.15906204825865" lon="10.606841659728778"><ele>127.66666666666667</ele><time>2026-03-29T08:45:11Z</time></trkpt><trkpt lat="43.15902373139758" lon="10.60664034113415"><ele>127.0</ele><time>2026-03-29T08:45:12Z</time></trkpt><trkpt lat="43.158977735895945" lon="10.606442567398338"><ele>120.66666666666667</ele><time>2026-03-29T08:45:13Z</time></trkpt><trkpt lat="43.15891796431073" lon="10.60625838556661"><ele>114.33333333333334</ele><time>2026-03-29T08:45:14Z</time></trkpt><trkpt lat="43.15882573931729" lon="10.606073609737521"><ele>108.0</ele><time>2026-03-29T08:45:15Z</time></trkpt><trkpt lat="43.15871236333074" lon="10.60588642670099"><ele>107.66666666666666</ele><time>2026-03-29T08:45:16Z</time></trkpt><trkpt lat="43.15859690692678" lon="10.605680949324382"><ele>107.33333333333333</ele><time>2026-03-29T08:45:17Z</time></trkpt><trkpt lat="43.158501049205945" lon="10.60548768716765"><ele>107.0</ele><time>2026-03-29T08:45:18Z</time></trkpt><trkpt lat="43.158416154085494" lon="10.605294874365617"><ele>108.0</ele><time>2026-03-29T08:45:19Z</time></trkpt><trkpt lat="43.15835395226108" lon="10.605109598007306"><ele>109.0</ele><time>2026-03-29T08:45:20Z</time></trkpt><trkpt lat="43.15832241262655" lon="10.604933227864214"><ele>110.0</ele><time>2026-03-29T08:45:21Z</time></trkpt><trkpt lat="43.15833555194086" lon="10.604750402708031"><ele>111.0</ele><time>2026-03-29T08:45:22Z</time></trkpt><trkpt lat="43.15837677809629" lon="10.604564733727457"><ele>107.66666666666666</ele><time>2026-03-29T08:45:23Z</time></trkpt><trkpt lat="43.15847533094999" lon="10.604409828275685"><ele>104.33333333333333</ele><time>2026-03-29T08:45:24Z</time></trkpt><trkpt lat="43.15858167587253" lon="10.604240330216477"><ele>101.0</ele><time>2026-03-29T08:45:25Z</time></trkpt><trkpt lat="43.15869411323936" lon="10.604062318732586"><ele>101.0</ele><time>2026-03-29T08:45:26Z</time></trkpt><trkpt lat="43.15880262894007" lon="10.603867181977504"><ele>101.0</ele><time>2026-03-29T08:45:27Z</time></trkpt><trkpt lat="43.15893661847253" lon="10.603696312506711"><ele>101.0</ele><time>2026-03-29T08:45:28Z</time></trkpt><trkpt lat="43.159063328776405" lon="10.603539042784057"><ele>101.33333333333333</ele><time>2026-03-29T08:45:29Z</time></trkpt><trkpt lat="43.159195039793296" lon="10.603406403809126"><ele>101.66666666666666</ele><time>2026-03-29T08:45:30Z</time></trkpt><trkpt lat="43.15931420544853" lon="10.603259792877687"><ele>102.0</ele><time>2026-03-29T08:45:31Z</time></trkpt><trkpt lat="43.15942233338872" lon="10.603126998257757"><ele>102.0</ele><time>2026-03-29T08:45:32Z</time></trkpt><trkpt lat="43.159515875927475" lon="10.602995487777456"><ele>102.0</ele><time>2026-03-29T08:45:33Z</time></trkpt><trkpt lat="43.15961064853042" lon="10.602921563336722"><ele>102.0</ele><time>2026-03-29T08:45:34Z</time></trkpt><trkpt lat="43.15971977681646" lon="10.602908314917183"><ele>102.0</ele><time>2026-03-29T08:45:35Z</time></trkpt><trkpt lat="43.159831831583034" lon="10.60296234473916"><ele>101.75</ele><time>2026-03-29T08:45:36Z</time></trkpt><trkpt lat="43.159945176467716" lon="10.603059679858468"><ele>101.5</ele><time>2026-03-29T08:45:37Z</time></trkpt><trkpt lat="43.160064220142175" lon="10.603176740993758"><ele>101.25</ele><time>2026-03-29T08:45:38Z</time></trkpt><trkpt lat="43.160185881301025" lon="10.603310257355853"><ele>101.0</ele><time>2026-03-29T08:45:39Z</time></trkpt><trkpt lat="43.160320581218514" lon="10.603430794493297"><ele>101.0</ele><time>2026-03-29T08:45:40Z</time></trkpt><trkpt lat="43.16046450054187" lon="10.60353162207549"><ele>101.0</ele><time>2026-03-29T08:45:41Z</time></trkpt><trkpt lat="43.1606223074775" lon="10.603555025520746"><ele>101.0</ele><time>2026-03-29T08:45:42Z</time></trkpt><trkpt lat="43.16076836438371" lon="10.603584394902926"><ele>101.75</ele><time>2026-03-29T08:45:43Z</time></trkpt><trkpt lat="43.160890098894924" lon="10.603644625541751"><ele>102.5</ele><time>2026-03-29T08:45:43.999Z</time></trkpt><trkpt lat="43.160983021340705" lon="10.603786710012267"><ele>103.25</ele><time>2026-03-29T08:45:44.999Z</time></trkpt><trkpt lat="43.16108996643474" lon="10.603943456156244"><ele>104.0</ele><time>2026-03-29T08:45:45.999Z</time></trkpt><trkpt lat="43.16119071436407" lon="10.604100252505994"><ele>104.0</ele><time>2026-03-29T08:45:46.999Z</time></trkpt><trkpt lat="43.1612996055653" lon="10.604200198861347"><ele>104.0</ele><time>2026-03-29T08:45:47.999Z</time></trkpt><trkpt lat="43.16140886850479" lon="10.60427111140541"><ele>104.0</ele><time>2026-03-29T08:45:48.999Z</time></trkpt><trkpt lat="43.16155444296486" lon="10.60424578416299"><ele>104.0</ele><time>2026-03-29T08:45:49.999Z</time></trkpt><trkpt lat="43.161683507320646" lon="10.604204919174432"><ele>101.0</ele><time>2026-03-29T08:45:50.999Z</time></trkpt><trkpt lat="43.161800495222586" lon="10.604144486045467"><ele>98.0</ele><time>2026-03-29T08:45:51.999Z</time></trkpt><trkpt lat="43.161882470179066" lon="10.603987258404864"><ele>95.0</ele><time>2026-03-29T08:45:52.999Z</time></trkpt><trkpt lat="43.16195700301678" lon="10.603798960195371"><ele>92.0</ele><time>2026-03-29T08:45:53.999Z</time></trkpt><trkpt lat="43.16202301524257" lon="10.603578358319297"><ele>88.0</ele><time>2026-03-29T08:45:54.999Z</time></trkpt><trkpt lat="43.16209223824127" lon="10.603352419042634"><ele>84.0</ele><time>2026-03-29T08:45:56Z</time></trkpt><trkpt lat="43.16218012905663" lon="10.603164660239916"><ele>80.0</ele><time>2026-03-29T08:45:57Z</time></trkpt><trkpt lat="43.162281968156705" lon="10.60299829258228"><ele>79.0</ele><time>2026-03-29T08:45:58Z</time></trkpt><trkpt lat="43.162391328408816" lon="10.60282184002898"><ele>78.0</ele><time>2026-03-29T08:45:59Z</time></trkpt><trkpt lat="43.16253720524842" lon="10.602682177780974"><ele>77.0</ele><time>2026-03-29T08:46:00Z</time></trkpt><trkpt lat="43.16270574619712" lon="10.602577517492476"><ele>77.0</ele><time>2026-03-29T08:46:01Z</time></trkpt><trkpt lat="43.162849147572054" lon="10.60245576037711"><ele>77.0</ele><time>2026-03-29T08:46:02Z</time></trkpt><trkpt lat="43.16299355549384" lon="10.602366556252594"><ele>77.0</ele><time>2026-03-29T08:46:03Z</time></trkpt><trkpt lat="43.16312442086145" lon="10.602317564093362"><ele>77.6</ele><time>2026-03-29T08:46:04Z</time></trkpt><trkpt lat="43.16323341561043" lon="10.602284019806556"><ele>78.2</ele><time>2026-03-29T08:46:05Z</time></trkpt><trkpt lat="43.163336495779085" lon="10.602276768806156"><ele>78.8</ele><time>2026-03-29T08:46:06Z</time></trkpt><trkpt lat="43.163392232762604" lon="10.602192360498908"><ele>79.4</ele><time>2026-03-29T08:46:07Z</time></trkpt><trkpt lat="43.16342538170787" lon="10.602083608938862"><ele>80.0</ele><time>2026-03-29T08:46:08Z</time></trkpt><trkpt lat="43.163414896364735" lon="10.601932318751658"><ele>77.8</ele><time>2026-03-29T08:46:09Z</time></trkpt><trkpt lat="43.16336693195324" lon="10.601824013052704"><ele>75.6</ele><time>2026-03-29T08:46:10Z</time></trkpt><trkpt lat="43.1632818595094" lon="10.601752157600728"><ele>73.4</ele><time>2026-03-29T08:46:11Z</time></trkpt><trkpt lat="43.16317502526642" lon="10.601726785390117"><ele>71.2</ele><time>2026-03-29T08:46:12Z</time></trkpt><trkpt lat="43.16304567500312" lon="10.601729580452217"><ele>69.0</ele><time>2026-03-29T08:46:13Z</time></trkpt><trkpt lat="43.162918014751824" lon="10.601744702133301"><ele>68.83333333333333</ele><time>2026-03-29T08:46:14Z</time></trkpt><trkpt lat="43.16280318802935" lon="10.601742502473357"><ele>68.66666666666667</ele><time>2026-03-29T08:46:15Z</time></trkpt><trkpt lat="43.16270982828916" lon="10.6017244157885"><ele>68.5</ele><time>2026-03-29T08:46:16Z</time></trkpt><trkpt lat="43.16263914376568" lon="10.601676812982399"><ele>68.33333333333334</ele><time>2026-03-29T08:46:17Z</time></trkpt><trkpt lat="43.162599295477705" lon="10.60157684663677"><ele>68.16666666666667</ele><time>2026-03-29T08:46:18Z</time></trkpt><trkpt lat="43.16260581413518" lon="10.601469703191876"><ele>68.0</ele><time>2026-03-29T08:46:19Z</time></trkpt><trkpt lat="43.16264313319723" lon="10.601364625326207"><ele>68.0</ele><time>2026-03-29T08:46:20Z</time></trkpt><trkpt lat="43.162722428772824" lon="10.60129270194111"><ele>68.0</ele><time>2026-03-29T08:46:21Z</time></trkpt><trkpt lat="43.16279461818437" lon="10.601200735506"><ele>68.0</ele><time>2026-03-29T08:46:22Z</time></trkpt><trkpt lat="43.162867648579514" lon="10.60110969867524"><ele>68.0</ele><time>2026-03-29T08:46:23Z</time></trkpt><trkpt lat="43.16294091847134" lon="10.601019056769262"><ele>68.0</ele><time>2026-03-29T08:46:24Z</time></trkpt><trkpt lat="43.16300639792482" lon="10.600938052388733"><ele>67.0</ele><time>2026-03-29T08:46:25Z</time></trkpt><trkpt lat="43.16307184570061" lon="10.600857087193738"><ele>66.0</ele><time>2026-03-29T08:46:26Z</time></trkpt><trkpt lat="43.16314044171252" lon="10.600748759776414"><ele>65.0</ele><time>2026-03-29T08:46:27Z</time></trkpt><trkpt lat="43.163231598328494" lon="10.600645876530873"><ele>64.0</ele><time>2026-03-29T08:46:28Z</time></trkpt><trkpt lat="43.16332354492408" lon="10.600519392727962"><ele>63.0</ele><time>2026-03-29T08:46:29Z</time></trkpt><trkpt lat="43.1634231441921" lon="10.600402073994339"><ele>61.5</ele><time>2026-03-29T08:46:30Z</time></trkpt><trkpt lat="43.16351501138176" lon="10.600280662487405"><ele>60.0</ele><time>2026-03-29T08:46:31Z</time></trkpt><trkpt lat="43.16360224578141" lon="10.600166083701804"><ele>58.5</ele><time>2026-03-29T08:46:32Z</time></trkpt><trkpt lat="43.16370206720886" lon="10.60006242186017"><ele>57.0</ele><time>2026-03-29T08:46:33Z</time></trkpt><trkpt lat="43.16380062062886" lon="10.599945896617582"><ele>57.0</ele><time>2026-03-29T08:46:34Z</time></trkpt><trkpt lat="43.16389459242978" lon="10.599836099353512"><ele>57.0</ele><time>2026-03-29T08:46:35Z</time></trkpt><trkpt lat="43.163978116974654" lon="10.599727383018871"><ele>57.0</ele><time>2026-03-29T08:46:36Z</time></trkpt><trkpt lat="43.16405503815424" lon="10.59962888853437"><ele>57.0</ele><time>2026-03-29T08:46:37Z</time></trkpt><trkpt lat="43.16412697198495" lon="10.599540999022954"><ele>57.0</ele><time>2026-03-29T08:46:38Z</time></trkpt><trkpt lat="43.16419094723955" lon="10.59946545522552"><ele>55.666666666666664</ele><time>2026-03-29T08:46:39Z</time></trkpt><trkpt lat="43.16424972656604" lon="10.599389573310619"><ele>54.33333333333333</ele><time>2026-03-29T08:46:40Z</time></trkpt><trkpt lat="43.164303992747975" lon="10.599313293164625"><ele>53.0</ele><time>2026-03-29T08:46:41Z</time></trkpt><trkpt lat="43.164373446310464" lon="10.599232349126416"><ele>51.666666666666664</ele><time>2026-03-29T08:46:42Z</time></trkpt><trkpt lat="43.164440130578114" lon="10.599148393859116"><ele>50.33333333333333</ele><time>2026-03-29T08:46:43Z</time></trkpt><trkpt lat="43.16451146185578" lon="10.599058517320392"><ele>49.0</ele><time>2026-03-29T08:46:44Z</time></trkpt><trkpt lat="43.164581700443456" lon="10.598970216129583"><ele>49.0</ele><time>2026-03-29T08:46:45Z</time></trkpt><trkpt lat="43.16465314981977" lon="10.598876442846159"><ele>49.0</ele><time>2026-03-29T08:46:46Z</time></trkpt><trkpt lat="43.16473304077341" lon="10.598781748183084"><ele>49.0</ele><time>2026-03-29T08:46:47Z</time></trkpt><trkpt lat="43.16481771890357" lon="10.59867524997834"><ele>49.0</ele><time>2026-03-29T08:46:48Z</time></trkpt><trkpt lat="43.16492362167418" lon="10.598560752227375"><ele>48.0</ele><time>2026-03-29T08:46:49Z</time></trkpt><trkpt lat="43.16502820751751" lon="10.598415913632076"><ele>47.0</ele><time>2026-03-29T08:46:50Z</time></trkpt><trkpt lat="43.16514058337744" lon="10.598251338413188"><ele>46.0</ele><time>2026-03-29T08:46:51Z</time></trkpt><trkpt lat="43.16524711836268" lon="10.598084857627834"><ele>46.0</ele><time>2026-03-29T08:46:52Z</time></trkpt><trkpt lat="43.16535959478345" lon="10.59791193400131"><ele>46.0</ele><time>2026-03-29T08:46:53Z</time></trkpt><trkpt lat="43.16548128235043" lon="10.597730729236991"><ele>46.0</ele><time>2026-03-29T08:46:54Z</time></trkpt><trkpt lat="43.16561207916923" lon="10.597530736507434"><ele>45.66666666666667</ele><time>2026-03-29T08:46:55Z</time></trkpt><trkpt lat="43.165754659435514" lon="10.59731172237659"><ele>45.333333333333336</ele><time>2026-03-29T08:46:56Z</time></trkpt><trkpt lat="43.1658938278583" lon="10.597096401814985"><ele>45.0</ele><time>2026-03-29T08:46:57Z</time></trkpt><trkpt lat="43.16603064793781" lon="10.596891992817406"><ele>45.0</ele><time>2026-03-29T08:46:58Z</time></trkpt><trkpt lat="43.16616036064706" lon="10.596698961362275"><ele>45.0</ele><time>2026-03-29T08:46:59Z</time></trkpt><trkpt lat="43.166281835250594" lon="10.596508540829547"><ele>45.0</ele><time>2026-03-29T08:47:00Z</time></trkpt><trkpt lat="43.16641390172451" lon="10.596337563256567"><ele>44.333333333333336</ele><time>2026-03-29T08:47:01Z</time></trkpt><trkpt lat="43.1665313663641" lon="10.596157804973855"><ele>43.66666666666667</ele><time>2026-03-29T08:47:02Z</time></trkpt><trkpt lat="43.166638208368674" lon="10.595963515863618"><ele>43.0</ele><time>2026-03-29T08:47:03Z</time></trkpt><trkpt lat="43.16671121471092" lon="10.595737706770713"><ele>43.0</ele><time>2026-03-29T08:47:04Z</time></trkpt><trkpt lat="43.166757627635995" lon="10.595493209633727"><ele>43.0</ele><time>2026-03-29T08:47:05Z</time></trkpt><trkpt lat="43.166780966157184" lon="10.595248329454165"><ele>43.0</ele><time>2026-03-29T08:47:06Z</time></trkpt><trkpt lat="43.16675999695653" lon="10.594988164832154"><ele>42.333333333333336</ele><time>2026-03-29T08:47:07Z</time></trkpt><trkpt lat="43.16673013182102" lon="10.594720265229762"><ele>41.666666666666664</ele><time>2026-03-29T08:47:08Z</time></trkpt><trkpt lat="43.166703637013185" lon="10.594442661438285"><ele>41.0</ele><time>2026-03-29T08:47:09Z</time></trkpt><trkpt lat="43.16669236687167" lon="10.594160868249242"><ele>41.0</ele><time>2026-03-29T08:47:10Z</time></trkpt><trkpt lat="43.1667042847513" lon="10.593891251926122"><ele>41.0</ele><time>2026-03-29T08:47:11Z</time></trkpt><trkpt lat="43.16673315220253" lon="10.593634369888871"><ele>41.0</ele><time>2026-03-29T08:47:12Z</time></trkpt><trkpt lat="43.16675879776958" lon="10.593380585794854"><ele>41.0</ele><time>2026-03-29T08:47:13Z</time></trkpt><trkpt lat="43.16678846569191" lon="10.593120479024655"><ele>41.0</ele><time>2026-03-29T08:47:14Z</time></trkpt><trkpt lat="43.16681553318408" lon="10.592847100937382"><ele>41.0</ele><time>2026-03-29T08:47:15Z</time></trkpt><trkpt lat="43.16685570525747" lon="10.592573831894615"><ele>41.0</ele><time>2026-03-29T08:47:16Z</time></trkpt><trkpt lat="43.16691458330652" lon="10.59229077182918"><ele>41.0</ele><time>2026-03-29T08:47:17Z</time></trkpt><trkpt lat="43.16699669139634" lon="10.591998351541738"><ele>41.0</ele><time>2026-03-29T08:47:18Z</time></trkpt><trkpt lat="43.167084703532375" lon="10.591696158075026"><ele>41.0</ele><time>2026-03-29T08:47:19Z</time></trkpt><trkpt lat="43.167175837951525" lon="10.591400700208302"><ele>41.0</ele><time>2026-03-29T08:47:20Z</time></trkpt><trkpt lat="43.16726882837157" lon="10.591114212894508"><ele>40.666666666666664</ele><time>2026-03-29T08:47:21Z</time></trkpt><trkpt lat="43.16735506498558" lon="10.590827132380122"><ele>40.333333333333336</ele><time>2026-03-29T08:47:22Z</time></trkpt><trkpt lat="43.167438304530606" lon="10.590547144508697"><ele>40.0</ele><time>2026-03-29T08:47:23Z</time></trkpt><trkpt lat="43.16751748617154" lon="10.590272597212143"><ele>40.0</ele><time>2026-03-29T08:47:24Z</time></trkpt><trkpt lat="43.16760857572527" lon="10.589996090712855"><ele>40.0</ele><time>2026-03-29T08:47:25Z</time></trkpt><trkpt lat="43.16769361188893" lon="10.589735375323881"><ele>40.0</ele><time>2026-03-29T08:47:26Z</time></trkpt><trkpt lat="43.167780151476094" lon="10.589485266604889"><ele>40.0</ele><time>2026-03-29T08:47:27Z</time></trkpt><trkpt lat="43.16788951955363" lon="10.589251899188463"><ele>40.0</ele><time>2026-03-29T08:47:28Z</time></trkpt><trkpt lat="43.168014591772824" lon="10.589033456046455"><ele>40.0</ele><time>2026-03-29T08:47:29Z</time></trkpt><trkpt lat="43.16813165091169" lon="10.588815304781964"><ele>39.66666666666667</ele><time>2026-03-29T08:47:30Z</time></trkpt><trkpt lat="43.1682236061801" lon="10.588588287433437"><ele>39.333333333333336</ele><time>2026-03-29T08:47:31Z</time></trkpt><trkpt lat="43.16827483360447" lon="10.588324898010866"><ele>39.0</ele><time>2026-03-29T08:47:32Z</time></trkpt><trkpt lat="43.16829987989798" lon="10.588035106660932"><ele>38.666666666666664</ele><time>2026-03-29T08:47:33Z</time></trkpt><trkpt lat="43.16833171316353" lon="10.58773352008107"><ele>38.33333333333333</ele><time>2026-03-29T08:47:34Z</time></trkpt><trkpt lat="43.16836430713478" lon="10.58742840339446"><ele>38.0</ele><time>2026-03-29T08:47:35Z</time></trkpt><trkpt lat="43.16839425305169" lon="10.587129939695796"><ele>37.666666666666664</ele><time>2026-03-29T08:47:36Z</time></trkpt><trkpt lat="43.168426915469524" lon="10.586835398629239"><ele>37.333333333333336</ele><time>2026-03-29T08:47:37Z</time></trkpt><trkpt lat="43.168462766561426" lon="10.586540388927583"><ele>37.0</ele><time>2026-03-29T08:47:38Z</time></trkpt><trkpt lat="43.16850098010572" lon="10.58625077712873"><ele>36.66666666666667</ele><time>2026-03-29T08:47:39Z</time></trkpt><trkpt lat="43.16853942240332" lon="10.58596437652163"><ele>36.333333333333336</ele><time>2026-03-29T08:47:40Z</time></trkpt><trkpt lat="43.168569166278935" lon="10.585675581167962"><ele>36.0</ele><time>2026-03-29T08:47:41Z</time></trkpt><trkpt lat="43.168596640825136" lon="10.585392544549839"><ele>35.0</ele><time>2026-03-29T08:47:42Z</time></trkpt><trkpt lat="43.16862526565729" lon="10.585117007722165"><ele>34.0</ele><time>2026-03-29T08:47:43Z</time></trkpt><trkpt lat="43.16865453170662" lon="10.58485573061473"><ele>33.0</ele><time>2026-03-29T08:47:44Z</time></trkpt><trkpt lat="43.16867962821142" lon="10.584610126707211"><ele>34.0</ele><time>2026-03-29T08:47:45Z</time></trkpt><trkpt lat="43.16870699651468" lon="10.584378421778673"><ele>35.0</ele><time>2026-03-29T08:47:46Z</time></trkpt><trkpt lat="43.16872501877164" lon="10.584152782370053"><ele>36.0</ele><time>2026-03-29T08:47:47Z</time></trkpt><trkpt lat="43.16874843607065" lon="10.583946501244608"><ele>36.0</ele><time>2026-03-29T08:47:48Z</time></trkpt><trkpt lat="43.16877277105978" lon="10.583749299996052"><ele>36.0</ele><time>2026-03-29T08:47:49Z</time></trkpt><trkpt lat="43.168789235810145" lon="10.583559469134618"><ele>36.0</ele><time>2026-03-29T08:47:50Z</time></trkpt><trkpt lat="43.168813449536955" lon="10.583379257250428"><ele>36.0</ele><time>2026-03-29T08:47:51Z</time></trkpt><trkpt lat="43.16883684634745" lon="10.583214265146879"><ele>36.0</ele><time>2026-03-29T08:47:52Z</time></trkpt><trkpt lat="43.168854663574976" lon="10.583054070355555"><ele>36.0</ele><time>2026-03-29T08:47:53Z</time></trkpt><trkpt lat="43.168878582638435" lon="10.582893671139145"><ele>36.0</ele><time>2026-03-29T08:47:54Z</time></trkpt><trkpt lat="43.16889716832077" lon="10.582735765424754"><ele>36.0</ele><time>2026-03-29T08:47:54.999Z</time></trkpt><trkpt lat="43.16891887490315" lon="10.582577519950506"><ele>36.5</ele><time>2026-03-29T08:47:55.999Z</time></trkpt><trkpt lat="43.16895394610596" lon="10.582422526462823"><ele>37.0</ele><time>2026-03-29T08:47:56.999Z</time></trkpt><trkpt lat="43.16897556652963" lon="10.582257926030191"><ele>37.5</ele><time>2026-03-29T08:47:57.999Z</time></trkpt><trkpt lat="43.16899860608511" lon="10.582079450705807"><ele>38.0</ele><time>2026-03-29T08:47:58.999Z</time></trkpt><trkpt lat="43.16900962015629" lon="10.58187370544007"><ele>36.0</ele><time>2026-03-29T08:47:59.999Z</time></trkpt><trkpt lat="43.16903948959463" lon="10.581660684493547"><ele>34.0</ele><time>2026-03-29T08:48:00.999Z</time></trkpt><trkpt lat="43.16906962973496" lon="10.581437350234578"><ele>32.0</ele><time>2026-03-29T08:48:02Z</time></trkpt><trkpt lat="43.169102236828415" lon="10.581200969664515"><ele>31.333333333333332</ele><time>2026-03-29T08:48:03Z</time></trkpt><trkpt lat="43.16914090513105" lon="10.580969064381307"><ele>30.666666666666664</ele><time>2026-03-29T08:48:04Z</time></trkpt><trkpt lat="43.1691820904675" lon="10.580753987615829"><ele>30.0</ele><time>2026-03-29T08:48:05Z</time></trkpt><trkpt lat="43.169220665218084" lon="10.580542106252217"><ele>30.0</ele><time>2026-03-29T08:48:06Z</time></trkpt><trkpt lat="43.16925935274779" lon="10.580342291238345"><ele>30.0</ele><time>2026-03-29T08:48:07Z</time></trkpt><trkpt lat="43.16929663006163" lon="10.580144340572042"><ele>30.0</ele><time>2026-03-29T08:48:08Z</time></trkpt><trkpt lat="43.169335252593974" lon="10.579952806866741"><ele>30.0</ele><time>2026-03-29T08:48:09Z</time></trkpt><trkpt lat="43.16937233830828" lon="10.579758320710742"><ele>30.0</ele><time>2026-03-29T08:48:10Z</time></trkpt><trkpt lat="43.16940634781215" lon="10.579567710033642"><ele>30.0</ele><time>2026-03-29T08:48:11Z</time></trkpt><trkpt lat="43.169439416450935" lon="10.579371190816723"><ele>30.0</ele><time>2026-03-29T08:48:12Z</time></trkpt><trkpt lat="43.169485885415675" lon="10.579182493079816"><ele>30.0</ele><time>2026-03-29T08:48:13Z</time></trkpt><trkpt lat="43.16955477728101" lon="10.578987557812459"><ele>30.0</ele><time>2026-03-29T08:48:14Z</time></trkpt><trkpt lat="43.16964854074591" lon="10.578808620823294"><ele>30.0</ele><time>2026-03-29T08:48:15Z</time></trkpt><trkpt lat="43.169743559460976" lon="10.578640233945158"><ele>30.0</ele><time>2026-03-29T08:48:16Z</time></trkpt><trkpt lat="43.169843559755726" lon="10.578484420244198"><ele>29.75</ele><time>2026-03-29T08:48:17Z</time></trkpt><trkpt lat="43.16994294432913" lon="10.578331777207005"><ele>29.5</ele><time>2026-03-29T08:48:18Z</time></trkpt><trkpt lat="43.17003896941359" lon="10.578191825569908"><ele>29.25</ele><time>2026-03-29T08:48:19Z</time></trkpt><trkpt lat="43.170128252398854" lon="10.578052251717663"><ele>29.0</ele><time>2026-03-29T08:48:20Z</time></trkpt><trkpt lat="43.17021017673738" lon="10.577916118015464"><ele>28.75</ele><time>2026-03-29T08:48:21Z</time></trkpt><trkpt lat="43.17029349985369" lon="10.577790717869412"><ele>28.5</ele><time>2026-03-29T08:48:22Z</time></trkpt><trkpt lat="43.17037819025694" lon="10.577667403628196"><ele>28.25</ele><time>2026-03-29T08:48:23Z</time></trkpt><trkpt lat="43.17046087045048" lon="10.577545130923326"><ele>28.0</ele><time>2026-03-29T08:48:24Z</time></trkpt><trkpt lat="43.17054731170457" lon="10.577422690587055"><ele>28.0</ele><time>2026-03-29T08:48:25Z</time></trkpt><trkpt lat="43.170634732324324" lon="10.577293194031082"><ele>28.0</ele><time>2026-03-29T08:48:26Z</time></trkpt><trkpt lat="43.17072187374499" lon="10.577160459406715"><ele>28.0</ele><time>2026-03-29T08:48:27Z</time></trkpt><trkpt lat="43.170802957343604" lon="10.577025715381366"><ele>28.0</ele><time>2026-03-29T08:48:28Z</time></trkpt><trkpt lat="43.170888112385605" lon="10.576890690138171"><ele>27.5</ele><time>2026-03-29T08:48:29Z</time></trkpt><trkpt lat="43.170976520405105" lon="10.576756208683292"><ele>27.0</ele><time>2026-03-29T08:48:30Z</time></trkpt><trkpt lat="43.17106306289901" lon="10.576617019588515"><ele>26.5</ele><time>2026-03-29T08:48:31Z</time></trkpt><trkpt lat="43.17115064865876" lon="10.576479500087105"><ele>26.0</ele><time>2026-03-29T08:48:32Z</time></trkpt><trkpt lat="43.17123609667028" lon="10.576350262797312"><ele>26.0</ele><time>2026-03-29T08:48:33Z</time></trkpt><trkpt lat="43.17131696094564" lon="10.57622085955269"><ele>26.0</ele><time>2026-03-29T08:48:34Z</time></trkpt><trkpt lat="43.17139873174669" lon="10.576105857641371"><ele>26.0</ele><time>2026-03-29T08:48:35Z</time></trkpt><trkpt lat="43.17147218043892" lon="10.575995331206022"><ele>26.0</ele><time>2026-03-29T08:48:36Z</time></trkpt><trkpt lat="43.17154276398513" lon="10.575892191666345"><ele>25.833333333333332</ele><time>2026-03-29T08:48:37Z</time></trkpt><trkpt lat="43.17161112218887" lon="10.575809247247959"><ele>25.666666666666664</ele><time>2026-03-29T08:48:38Z</time></trkpt><trkpt lat="43.17167824642245" lon="10.575744838754897"><ele>25.5</ele><time>2026-03-29T08:48:39Z</time></trkpt><trkpt lat="43.171738762510365" lon="10.575685688355902"><ele>25.333333333333336</ele><time>2026-03-29T08:48:40Z</time></trkpt><trkpt lat="43.17180628093429" lon="10.575636880116482"><ele>25.166666666666668</ele><time>2026-03-29T08:48:41Z</time></trkpt><trkpt lat="43.17187149282096" lon="10.575576518222203"><ele>25.0</ele><time>2026-03-29T08:48:42Z</time></trkpt><trkpt lat="43.17195221037267" lon="10.57549732594573"><ele>25.0</ele><time>2026-03-29T08:48:43Z</time></trkpt><trkpt lat="43.17203688741104" lon="10.57539474969598"><ele>25.0</ele><time>2026-03-29T08:48:44Z</time></trkpt><trkpt lat="43.17213968867319" lon="10.575285766731161"><ele>25.0</ele><time>2026-03-29T08:48:45Z</time></trkpt><trkpt lat="43.17225739291549" lon="10.575188691702454"><ele>25.0</ele><time>2026-03-29T08:48:46Z</time></trkpt><trkpt lat="43.17237503719305" lon="10.575084833207129"><ele>25.0</ele><time>2026-03-29T08:48:47Z</time></trkpt><trkpt lat="43.17249546416197" lon="10.574984483030253"><ele>25.0</ele><time>2026-03-29T08:48:48Z</time></trkpt><trkpt lat="43.172618057422405" lon="10.57486932388638"><ele>25.0</ele><time>2026-03-29T08:48:49Z</time></trkpt><trkpt lat="43.17274468617731" lon="10.574749191910074"><ele>25.0</ele><time>2026-03-29T08:48:50Z</time></trkpt><trkpt lat="43.172870989842586" lon="10.574633370512878"><ele>25.0</ele><time>2026-03-29T08:48:51Z</time></trkpt><trkpt lat="43.17300097884033" lon="10.574513289220976"><ele>25.0</ele><time>2026-03-29T08:48:52Z</time></trkpt><trkpt lat="43.17313155985575" lon="10.5743893091056"><ele>25.0</ele><time>2026-03-29T08:48:53Z</time></trkpt><trkpt lat="43.17326127294974" lon="10.574270602449714"><ele>25.0</ele><time>2026-03-29T08:48:54Z</time></trkpt><trkpt lat="43.173410988181175" lon="10.574181330292609"><ele>25.0</ele><time>2026-03-29T08:48:55Z</time></trkpt><trkpt lat="43.17354436535144" lon="10.574059395820013"><ele>25.0</ele><time>2026-03-29T08:48:56Z</time></trkpt><trkpt lat="43.17368128656799" lon="10.573934221332912"><ele>25.0</ele><time>2026-03-29T08:48:57Z</time></trkpt><trkpt lat="43.17381945930344" lon="10.573807872447365"><ele>25.0</ele><time>2026-03-29T08:48:58Z</time></trkpt><trkpt lat="43.17395706946585" lon="10.573682019379008"><ele>25.0</ele><time>2026-03-29T08:48:59Z</time></trkpt><trkpt lat="43.17409691127919" lon="10.573554125240564"><ele>24.333333333333336</ele><time>2026-03-29T08:49:00Z</time></trkpt><trkpt lat="43.17423783587289" lon="10.573425240839052"><ele>23.666666666666668</ele><time>2026-03-29T08:49:01Z</time></trkpt><trkpt lat="43.174381289996575" lon="10.573294043026822"><ele>23.0</ele><time>2026-03-29T08:49:02Z</time></trkpt><trkpt lat="43.17453013224581" lon="10.573157917397275"><ele>23.0</ele><time>2026-03-29T08:49:03Z</time></trkpt><trkpt lat="43.17468067791438" lon="10.57302023394449"><ele>23.0</ele><time>2026-03-29T08:49:04Z</time></trkpt><trkpt lat="43.17482453427342" lon="10.572888668243369"><ele>23.0</ele><time>2026-03-29T08:49:05Z</time></trkpt><trkpt lat="43.17498132238086" lon="10.57274459736277"><ele>22.666666666666668</ele><time>2026-03-29T08:49:06Z</time></trkpt><trkpt lat="43.17512893212488" lon="10.572608850415591"><ele>22.333333333333332</ele><time>2026-03-29T08:49:07Z</time></trkpt><trkpt lat="43.17527734889202" lon="10.5724723613011"><ele>22.0</ele><time>2026-03-29T08:49:08Z</time></trkpt><trkpt lat="43.17542827590447" lon="10.572333563658248"><ele>22.0</ele><time>2026-03-29T08:49:09Z</time></trkpt><trkpt lat="43.1755899114113" lon="10.572184918108217"><ele>22.0</ele><time>2026-03-29T08:49:10Z</time></trkpt><trkpt lat="43.175746209550375" lon="10.572015473948372"><ele>22.0</ele><time>2026-03-29T08:49:11Z</time></trkpt><trkpt lat="43.17592553963119" lon="10.571852246768398"><ele>21.666666666666664</ele><time>2026-03-29T08:49:12Z</time></trkpt><trkpt lat="43.17609974692802" lon="10.571690424493271"><ele>21.333333333333332</ele><time>2026-03-29T08:49:13Z</time></trkpt><trkpt lat="43.17627817313939" lon="10.571551969089997"><ele>21.0</ele><time>2026-03-29T08:49:14Z</time></trkpt><trkpt lat="43.17645024569433" lon="10.571393725305825"><ele>20.333333333333332</ele><time>2026-03-29T08:49:15Z</time></trkpt><trkpt lat="43.17662165846996" lon="10.571236088247622"><ele>19.666666666666664</ele><time>2026-03-29T08:49:16Z</time></trkpt><trkpt lat="43.176795820935794" lon="10.571075922500558"><ele>19.0</ele><time>2026-03-29T08:49:17Z</time></trkpt><trkpt lat="43.176961970008556" lon="10.57092213892474"><ele>18.666666666666664</ele><time>2026-03-29T08:49:18Z</time></trkpt><trkpt lat="43.177133214210436" lon="10.570765605777881"><ele>18.333333333333332</ele><time>2026-03-29T08:49:19Z</time></trkpt><trkpt lat="43.17730604773592" lon="10.570607026662636"><ele>18.0</ele><time>2026-03-29T08:49:20Z</time></trkpt><trkpt lat="43.17746990615338" lon="10.570430920436253"><ele>17.333333333333332</ele><time>2026-03-29T08:49:21Z</time></trkpt><trkpt lat="43.17764656009379" lon="10.570295654554707"><ele>16.666666666666664</ele><time>2026-03-29T08:49:22Z</time></trkpt><trkpt lat="43.177813112912055" lon="10.570144011997419"><ele>16.0</ele><time>2026-03-29T08:49:23Z</time></trkpt><trkpt lat="43.177972877375225" lon="10.569997668315132"><ele>16.0</ele><time>2026-03-29T08:49:24Z</time></trkpt><trkpt lat="43.17812810691765" lon="10.569831623168033"><ele>16.0</ele><time>2026-03-29T08:49:25Z</time></trkpt><trkpt lat="43.178250590973974" lon="10.56962022681896"><ele>16.0</ele><time>2026-03-29T08:49:26Z</time></trkpt><trkpt lat="43.1783808249731" lon="10.569414891139477"><ele>17.0</ele><time>2026-03-29T08:49:27Z</time></trkpt><trkpt lat="43.17850328993228" lon="10.569208436019002"><ele>18.0</ele><time>2026-03-29T08:49:28Z</time></trkpt><trkpt lat="43.178624440338346" lon="10.569008641260478"><ele>19.0</ele><time>2026-03-29T08:49:29Z</time></trkpt><trkpt lat="43.178744019528594" lon="10.568817932505716"><ele>18.666666666666664</ele><time>2026-03-29T08:49:30Z</time></trkpt><trkpt lat="43.17885922794091" lon="10.568632701107196"><ele>18.333333333333332</ele><time>2026-03-29T08:49:31Z</time></trkpt><trkpt lat="43.17897699290925" lon="10.568449778997522"><ele>18.0</ele><time>2026-03-29T08:49:32Z</time></trkpt><trkpt lat="43.179085144936515" lon="10.568275683471569"><ele>18.0</ele><time>2026-03-29T08:49:33Z</time></trkpt><trkpt lat="43.17919497114078" lon="10.568108191567024"><ele>18.0</ele><time>2026-03-29T08:49:34Z</time></trkpt><trkpt lat="43.17928364628272" lon="10.567937252014291"><ele>18.0</ele><time>2026-03-29T08:49:35Z</time></trkpt><trkpt lat="43.17938543983748" lon="10.56780576557515"><ele>18.0</ele><time>2026-03-29T08:49:36Z</time></trkpt><trkpt lat="43.179451092271265" lon="10.567634736890202"><ele>18.0</ele><time>2026-03-29T08:49:37Z</time></trkpt><trkpt lat="43.179522938925096" lon="10.567498350751102"><ele>18.0</ele><time>2026-03-29T08:49:38Z</time></trkpt><trkpt lat="43.17958713461542" lon="10.5673869301519"><ele>18.0</ele><time>2026-03-29T08:49:39Z</time></trkpt><trkpt lat="43.179666111505846" lon="10.567291431341229"><ele>18.0</ele><time>2026-03-29T08:49:40Z</time></trkpt><trkpt lat="43.17975242294405" lon="10.567225947378672"><ele>18.0</ele><time>2026-03-29T08:49:41Z</time></trkpt><trkpt lat="43.17986775016991" lon="10.567205936462162"><ele>18.0</ele><time>2026-03-29T08:49:42Z</time></trkpt><trkpt lat="43.18001677031292" lon="10.567185803936114"><ele>18.0</ele><time>2026-03-29T08:49:43Z</time></trkpt><trkpt lat="43.18018574876257" lon="10.567144148683328"><ele>16.333333333333332</ele><time>2026-03-29T08:49:44Z</time></trkpt><trkpt lat="43.180379187198135" lon="10.56711535375732"><ele>14.666666666666666</ele><time>2026-03-29T08:49:45Z</time></trkpt><trkpt lat="43.180590480434674" lon="10.567087247775373"><ele>13.0</ele><time>2026-03-29T08:49:46Z</time></trkpt><trkpt lat="43.180818511802585" lon="10.56706211931565"><ele>12.5</ele><time>2026-03-29T08:49:47Z</time></trkpt><trkpt lat="43.18105931799419" lon="10.567046108573097"><ele>12.0</ele><time>2026-03-29T08:49:48Z</time></trkpt><trkpt lat="43.181290278940615" lon="10.567015040821575"><ele>12.5</ele><time>2026-03-29T08:49:49Z</time></trkpt><trkpt lat="43.18151841984714" lon="10.566985331440641"><ele>13.0</ele><time>2026-03-29T08:49:50Z</time></trkpt><trkpt lat="43.18174029123086" lon="10.566956248002057"><ele>13.0</ele><time>2026-03-29T08:49:51Z</time></trkpt><trkpt lat="43.18196176384881" lon="10.566927210856589"><ele>13.0</ele><time>2026-03-29T08:49:52Z</time></trkpt><trkpt lat="43.18217828116591" lon="10.566898823436366"><ele>13.0</ele><time>2026-03-29T08:49:53Z</time></trkpt><trkpt lat="43.18239686548349" lon="10.566869222581948"><ele>12.666666666666666</ele><time>2026-03-29T08:49:54Z</time></trkpt><trkpt lat="43.18261510320848" lon="10.566839705939717"><ele>12.333333333333332</ele><time>2026-03-29T08:49:54.999Z</time></trkpt><trkpt lat="43.182827844356034" lon="10.566789997205243"><ele>12.0</ele><time>2026-03-29T08:49:55.999Z</time></trkpt><trkpt lat="43.183037674643955" lon="10.566765247571933"><ele>11.0</ele><time>2026-03-29T08:49:56.999Z</time></trkpt><trkpt lat="43.18325338180152" lon="10.566735781522917"><ele>10.0</ele><time>2026-03-29T08:49:57.999Z</time></trkpt><trkpt lat="43.183464698046976" lon="10.566707122347506"><ele>9.0</ele><time>2026-03-29T08:49:58.999Z</time></trkpt><trkpt lat="43.183683273672486" lon="10.566680718422583"><ele>9.0</ele><time>2026-03-29T08:49:59.999Z</time></trkpt><trkpt lat="43.18389875063673" lon="10.566650658703384"><ele>9.0</ele><time>2026-03-29T08:50:00.999Z</time></trkpt><trkpt lat="43.184115151515336" lon="10.566624164775119"><ele>9.0</ele><time>2026-03-29T08:50:01.999Z</time></trkpt><trkpt lat="43.184334723726266" lon="10.566594153262649"><ele>9.5</ele><time>2026-03-29T08:50:02.999Z</time></trkpt><trkpt lat="43.18456030267593" lon="10.566568093738077"><ele>10.0</ele><time>2026-03-29T08:50:03.999Z</time></trkpt><trkpt lat="43.18478989736313" lon="10.566540743370542"><ele>9.0</ele><time>2026-03-29T08:50:04.999Z</time></trkpt><trkpt lat="43.185027011060015" lon="10.566509849735787"><ele>8.0</ele><time>2026-03-29T08:50:05.999Z</time></trkpt><trkpt lat="43.185255634778244" lon="10.56648331888364"><ele>8.0</ele><time>2026-03-29T08:50:06.999Z</time></trkpt><trkpt lat="43.18548658484557" lon="10.566455407148789"><ele>8.0</ele><time>2026-03-29T08:50:08Z</time></trkpt><trkpt lat="43.1856874443179" lon="10.566432314704384"><ele>8.0</ele><time>2026-03-29T08:50:09Z</time></trkpt><trkpt lat="43.185924065707546" lon="10.566392821212398"><ele>7.666666666666666</ele><time>2026-03-29T08:50:10Z</time></trkpt><trkpt lat="43.18613940736626" lon="10.566359442228725"><ele>7.333333333333334</ele><time>2026-03-29T08:50:11Z</time></trkpt><trkpt lat="43.18633933170995" lon="10.566326099889835"><ele>7.0</ele><time>2026-03-29T08:50:12Z</time></trkpt><trkpt lat="43.18652765289931" lon="10.566298682832462"><ele>7.0</ele><time>2026-03-29T08:50:13Z</time></trkpt><trkpt lat="43.18670384795575" lon="10.566276158754636"><ele>7.0</ele><time>2026-03-29T08:50:14Z</time></trkpt><trkpt lat="43.18687917742383" lon="10.566255231934765"><ele>7.0</ele><time>2026-03-29T08:50:15Z</time></trkpt><trkpt lat="43.187054870571586" lon="10.56623590422814"><ele>7.0</ele><time>2026-03-29T08:50:16Z</time></trkpt><trkpt lat="43.187249508036864" lon="10.566220579526794"><ele>7.0</ele><time>2026-03-29T08:50:17Z</time></trkpt><trkpt lat="43.18745488015172" lon="10.566193789783087"><ele>7.0</ele><time>2026-03-29T08:50:18Z</time></trkpt><trkpt lat="43.18763987374095" lon="10.566167253875006"><ele>6.666666666666667</ele><time>2026-03-29T08:50:19Z</time></trkpt><trkpt lat="43.18782083116081" lon="10.566142438360544"><ele>6.333333333333334</ele><time>2026-03-29T08:50:20Z</time></trkpt><trkpt lat="43.187996776219244" lon="10.566119269215767"><ele>6.0</ele><time>2026-03-29T08:50:21Z</time></trkpt><trkpt lat="43.18817556978951" lon="10.566091621135206"><ele>6.0</ele><time>2026-03-29T08:50:22Z</time></trkpt><trkpt lat="43.18835299290113" lon="10.566067064394913"><ele>6.0</ele><time>2026-03-29T08:50:23Z</time></trkpt><trkpt lat="43.188529010052314" lon="10.566045167723006"><ele>6.0</ele><time>2026-03-29T08:50:24Z</time></trkpt><trkpt lat="43.18871828800837" lon="10.56602324732801"><ele>6.0</ele><time>2026-03-29T08:50:25Z</time></trkpt><trkpt lat="43.188906613074536" lon="10.566000718562195"><ele>6.0</ele><time>2026-03-29T08:50:26Z</time></trkpt><trkpt lat="43.189100370069866" lon="10.565971035592971"><ele>6.0</ele><time>2026-03-29T08:50:27Z</time></trkpt><trkpt lat="43.189299174627685" lon="10.565942761111895"><ele>5.666666666666667</ele><time>2026-03-29T08:50:28Z</time></trkpt><trkpt lat="43.18949490045403" lon="10.565923479385756"><ele>5.333333333333334</ele><time>2026-03-29T08:50:29Z</time></trkpt><trkpt lat="43.189692239964124" lon="10.56589805885072"><ele>5.0</ele><time>2026-03-29T08:50:30Z</time></trkpt><trkpt lat="43.189907823030566" lon="10.565869113396058"><ele>6.0</ele><time>2026-03-29T08:50:31Z</time></trkpt><trkpt lat="43.19017443201044" lon="10.565828767110142"><ele>7.0</ele><time>2026-03-29T08:50:32Z</time></trkpt><trkpt lat="43.19046085147003" lon="10.565786910763798"><ele>7.0</ele><time>2026-03-29T08:50:33Z</time></trkpt><trkpt lat="43.1907498418338" lon="10.565749247577571"><ele>7.0</ele><time>2026-03-29T08:50:34Z</time></trkpt><trkpt lat="43.191070578409374" lon="10.56570522799528"><ele>7.0</ele><time>2026-03-29T08:50:35Z</time></trkpt><trkpt lat="43.19141219143652" lon="10.565658230392886"><ele>7.0</ele><time>2026-03-29T08:50:36Z</time></trkpt><trkpt lat="43.19175237557485" lon="10.565611274378812"><ele>7.0</ele><time>2026-03-29T08:50:37Z</time></trkpt><trkpt lat="43.19205778008426" lon="10.565569380990206"><ele>7.0</ele><time>2026-03-29T08:50:38Z</time></trkpt><trkpt lat="43.192328874619456" lon="10.565530746424693"><ele>6.0</ele><time>2026-03-29T08:50:39Z</time></trkpt><trkpt lat="43.19257920946927" lon="10.565502122722505"><ele>5.0</ele><time>2026-03-29T08:50:40Z</time></trkpt><trkpt lat="43.192810528622125" lon="10.565474387963837"><ele>5.0</ele><time>2026-03-29T08:50:41Z</time></trkpt><trkpt lat="43.19302547806807" lon="10.565448896577506"><ele>5.0</ele><time>2026-03-29T08:50:42Z</time></trkpt><trkpt lat="43.193227781381125" lon="10.56542525685726"><ele>5.0</ele><time>2026-03-29T08:50:43Z</time></trkpt><trkpt lat="43.193434631511" lon="10.565398168358227"><ele>4.666666666666667</ele><time>2026-03-29T08:50:44Z</time></trkpt><trkpt lat="43.19363661757397" lon="10.565371584991672"><ele>4.333333333333333</ele><time>2026-03-29T08:50:45Z</time></trkpt><trkpt lat="43.19384535334844" lon="10.565339848969396"><ele>4.0</ele><time>2026-03-29T08:50:46Z</time></trkpt><trkpt lat="43.19405875768774" lon="10.565303309058418"><ele>5.5</ele><time>2026-03-29T08:50:47Z</time></trkpt><trkpt lat="43.19428303314501" lon="10.56526104936018"><ele>7.0</ele><time>2026-03-29T08:50:48Z</time></trkpt><trkpt lat="43.194512633833014" lon="10.565222373171517"><ele>7.0</ele><time>2026-03-29T08:50:49Z</time></trkpt><trkpt lat="43.194742867361086" lon="10.565199567716189"><ele>7.0</ele><time>2026-03-29T08:50:50Z</time></trkpt><trkpt lat="43.19496019680674" lon="10.565177661465013"><ele>7.0</ele><time>2026-03-29T08:50:51Z</time></trkpt><trkpt lat="43.195171025505914" lon="10.565155787409203"><ele>6.666666666666667</ele><time>2026-03-29T08:50:52Z</time></trkpt><trkpt lat="43.195373571180276" lon="10.565132884537688"><ele>6.333333333333334</ele><time>2026-03-29T08:50:53Z</time></trkpt><trkpt lat="43.195559469818036" lon="10.565101025356952"><ele>6.0</ele><time>2026-03-29T08:50:54Z</time></trkpt><trkpt lat="43.195725539035415" lon="10.565070902223814"><ele>5.8</ele><time>2026-03-29T08:50:55Z</time></trkpt><trkpt lat="43.19585604223436" lon="10.565058563729224"><ele>5.6</ele><time>2026-03-29T08:50:56Z</time></trkpt><trkpt lat="43.195944669856736" lon="10.565058362041711"><ele>5.4</ele><time>2026-03-29T08:50:57Z</time></trkpt><trkpt lat="43.196036061372126" lon="10.565086488307179"><ele>5.2</ele><time>2026-03-29T08:50:59Z</time></trkpt><trkpt lat="43.196079020082585" lon="10.565171181997266"><ele>5.0</ele><time>2026-03-29T08:51:01Z</time></trkpt><trkpt lat="43.1961330019297" lon="10.565248793503242"><ele>5.0</ele><time>2026-03-29T08:51:04Z</time></trkpt><trkpt lat="43.19612160638503" lon="10.565335192684428"><ele>5.0</ele><time>2026-03-29T08:51:05Z</time></trkpt><trkpt lat="43.19610371580124" lon="10.565446756908152"><ele>5.0</ele><time>2026-03-29T08:51:06Z</time></trkpt><trkpt lat="43.19612639896026" lon="10.565569371426982"><ele>5.0</ele><time>2026-03-29T08:51:07Z</time></trkpt><trkpt lat="43.1961595565053" lon="10.56570508427762"><ele>5.0</ele><time>2026-03-29T08:51:08Z</time></trkpt><trkpt lat="43.196193240184584" lon="10.565885722320797"><ele>5.0</ele><time>2026-03-29T08:51:09Z</time></trkpt><trkpt lat="43.19623502643747" lon="10.566113219535929"><ele>5.0</ele><time>2026-03-29T08:51:10Z</time></trkpt><trkpt lat="43.196285460102914" lon="10.566387561903335"><ele>5.0</ele><time>2026-03-29T08:51:11Z</time></trkpt><trkpt lat="43.19634580028264" lon="10.566703379227"><ele>5.0</ele><time>2026-03-29T08:51:12Z</time></trkpt><trkpt lat="43.19640302648503" lon="10.567000228781666"><ele>5.0</ele><time>2026-03-29T08:51:13Z</time></trkpt><trkpt lat="43.19645020940981" lon="10.567248481931173"><ele>5.0</ele><time>2026-03-29T08:51:14Z</time></trkpt><trkpt lat="43.196495418214845" lon="10.567486451172185"><ele>4.666666666666667</ele><time>2026-03-29T08:51:15Z</time></trkpt><trkpt lat="43.196538148952975" lon="10.567710938541566"><ele>4.333333333333333</ele><time>2026-03-29T08:51:16Z</time></trkpt><trkpt lat="43.19657705708747" lon="10.56791946854567"><ele>4.0</ele><time>2026-03-29T08:51:17Z</time></trkpt><trkpt lat="43.19661411789945" lon="10.568118823432101"><ele>4.6</ele><time>2026-03-29T08:51:18Z</time></trkpt><trkpt lat="43.196645005227936" lon="10.56829186843623"><ele>5.2</ele><time>2026-03-29T08:51:19Z</time></trkpt><trkpt lat="43.196663324097386" lon="10.568413915474359"><ele>5.799999999999999</ele><time>2026-03-29T08:51:20Z</time></trkpt><trkpt lat="43.19667854814456" lon="10.56851090963146"><ele>6.3999999999999995</ele><time>2026-03-29T08:51:21Z</time></trkpt><trkpt lat="43.19672723115895" lon="10.568616071387499"><ele>7.0</ele><time>2026-03-29T08:51:23Z</time></trkpt><trkpt lat="43.196838678369645" lon="10.568601297506126"><ele>7.0</ele><time>2026-03-29T08:51:25Z</time></trkpt><trkpt lat="43.196897852068204" lon="10.56852738540824"><ele>7.0</ele><time>2026-03-29T08:51:26Z</time></trkpt><trkpt lat="43.19695147463565" lon="10.568394048061004"><ele>7.0</ele><time>2026-03-29T08:51:27Z</time></trkpt><trkpt lat="43.197023073862965" lon="10.568231480728006"><ele>7.0</ele><time>2026-03-29T08:51:28Z</time></trkpt><trkpt lat="43.19709214297605" lon="10.56807837850368"><ele>7.0</ele><time>2026-03-29T08:51:29Z</time></trkpt><trkpt lat="43.19714572265007" lon="10.56794831656701"><ele>6.999999999999999</ele><time>2026-03-29T08:51:30Z</time></trkpt><trkpt lat="43.19721585814276" lon="10.567824824183871"><ele>6.999999999999999</ele><time>2026-03-29T08:51:31Z</time></trkpt><trkpt lat="43.19730021339308" lon="10.567754991027625"><ele>7.0</ele><time>2026-03-29T08:51:32Z</time></trkpt><trkpt lat="43.1973635254918" lon="10.56766270475134"><ele>7.0</ele><time>2026-03-29T08:51:33Z</time></trkpt><trkpt lat="43.19742914582542" lon="10.56758855653173"><ele>7.0</ele><time>2026-03-29T08:51:34Z</time></trkpt><trkpt lat="43.19749043539679" lon="10.567548865267009"><ele>6.999999999999999</ele><time>2026-03-29T08:51:35Z</time></trkpt><trkpt lat="43.19758099077981" lon="10.567503509960247"><ele>6.999999999999999</ele><time>2026-03-29T08:51:36Z</time></trkpt><trkpt lat="43.197672588007144" lon="10.567512234657807"><ele>7.0</ele><time>2026-03-29T08:51:37Z</time></trkpt><trkpt lat="43.19777067748485" lon="10.567544279649079"><ele>7.0</ele><time>2026-03-29T08:51:38Z</time></trkpt><trkpt lat="43.197877489825196" lon="10.56759276281863"><ele>7.0</ele><time>2026-03-29T08:51:39Z</time></trkpt><trkpt lat="43.19798310297695" lon="10.56763879061104"><ele>6.999999999999999</ele><time>2026-03-29T08:51:40Z</time></trkpt><trkpt lat="43.19809403559867" lon="10.567666397553864"><ele>6.999999999999999</ele><time>2026-03-29T08:51:41Z</time></trkpt><trkpt lat="43.19818704293293" lon="10.567687374644596"><ele>7.0</ele><time>2026-03-29T08:51:42Z</time></trkpt><trkpt lat="43.198266980981764" lon="10.567739680907795"><ele>7.0</ele><time>2026-03-29T08:51:43Z</time></trkpt><trkpt lat="43.198370590185654" lon="10.567771818772558"><ele>6.8</ele><time>2026-03-29T08:51:45Z</time></trkpt><trkpt lat="43.19842705699553" lon="10.567618242313987"><ele>6.6</ele><time>2026-03-29T08:51:46Z</time></trkpt><trkpt lat="43.19845896907147" lon="10.567530789021827"><ele>6.3999999999999995</ele><time>2026-03-29T08:51:47Z</time></trkpt><trkpt lat="43.198501565713826" lon="10.567466760326557"><ele>6.199999999999999</ele><time>2026-03-29T08:51:48Z</time></trkpt><trkpt lat="43.19862645355485" lon="10.567523086472844"><ele>6.0</ele><time>2026-03-29T08:51:50Z</time></trkpt><trkpt lat="43.198733085877" lon="10.567582663039987"><ele>6.0</ele><time>2026-03-29T08:51:51Z</time></trkpt><trkpt lat="43.19887399758379" lon="10.567656819973541"><ele>6.0</ele><time>2026-03-29T08:51:52Z</time></trkpt><trkpt lat="43.19904773689268" lon="10.567733878843978"><ele>6.0</ele><time>2026-03-29T08:51:53Z</time></trkpt><trkpt lat="43.19920168826205" lon="10.567822730806173"><ele>6.0</ele><time>2026-03-29T08:51:54Z</time></trkpt><trkpt lat="43.19933578313897" lon="10.567898022536133"><ele>6.0</ele><time>2026-03-29T08:51:55Z</time></trkpt><trkpt lat="43.19944053748076" lon="10.56795062913469"><ele>6.0</ele><time>2026-03-29T08:51:56Z</time></trkpt><trkpt lat="43.199512570529215" lon="10.567984966334386"><ele>6.0</ele><time>2026-03-29T08:51:57Z</time></trkpt><trkpt lat="43.19958143859385" lon="10.568018121026142"><ele>6.0</ele><time>2026-03-29T08:51:58.999Z</time></trkpt><trkpt lat="43.199644474275715" lon="10.567830395766595"><ele>6.4</ele><time>2026-03-29T08:51:59.999Z</time></trkpt><trkpt lat="43.199691034298354" lon="10.567700573558556"><ele>6.8</ele><time>2026-03-29T08:52:00.999Z</time></trkpt><trkpt lat="43.19974514775574" lon="10.567546174652955"><ele>7.200000000000001</ele><time>2026-03-29T08:52:01.999Z</time></trkpt><trkpt lat="43.19978924065879" lon="10.567414580405051"><ele>7.6000000000000005</ele><time>2026-03-29T08:52:02.999Z</time></trkpt><trkpt lat="43.19985437923294" lon="10.567333415020936"><ele>8.0</ele><time>2026-03-29T08:52:03.999Z</time></trkpt><trkpt lat="43.200021583887676" lon="10.567307432422272"><ele>8.200000000000001</ele><time>2026-03-29T08:52:05.999Z</time></trkpt><trkpt lat="43.200114906525044" lon="10.56732801021612"><ele>8.4</ele><time>2026-03-29T08:52:06.999Z</time></trkpt><trkpt lat="43.20023332928267" lon="10.567366573532698"><ele>8.600000000000001</ele><time>2026-03-29T08:52:07.999Z</time></trkpt><trkpt lat="43.20033863640108" lon="10.567398550064658"><ele>8.8</ele><time>2026-03-29T08:52:08.999Z</time></trkpt><trkpt lat="43.20045202999628" lon="10.56743298204319"><ele>9.0</ele><time>2026-03-29T08:52:09.999Z</time></trkpt><trkpt lat="43.20058338841373" lon="10.567459480776337"><ele>8.25</ele><time>2026-03-29T08:52:10.999Z</time></trkpt><trkpt lat="43.20071632282706" lon="10.567511127096816"><ele>7.5</ele><time>2026-03-29T08:52:11.999Z</time></trkpt><trkpt lat="43.20084032222307" lon="10.567555135766167"><ele>6.75</ele><time>2026-03-29T08:52:12.999Z</time></trkpt><trkpt lat="43.20097223090948" lon="10.567607295319561"><ele>6.0</ele><time>2026-03-29T08:52:14Z</time></trkpt><trkpt lat="43.20109480044803" lon="10.567656097282047"><ele>6.0</ele><time>2026-03-29T08:52:15Z</time></trkpt><trkpt lat="43.20120425747122" lon="10.567688481580081"><ele>6.0</ele><time>2026-03-29T08:52:16Z</time></trkpt><trkpt lat="43.20129867931872" lon="10.567718633935344"><ele>6.0</ele><time>2026-03-29T08:52:17Z</time></trkpt><trkpt lat="43.20137465662665" lon="10.567756855485204"><ele>6.0</ele><time>2026-03-29T08:52:18Z</time></trkpt><trkpt lat="43.20144205929199" lon="10.567773568980973"><ele>6.0</ele><time>2026-03-29T08:52:19Z</time></trkpt><trkpt lat="43.20151058728424" lon="10.567798047010967"><ele>6.0</ele><time>2026-03-29T08:52:20Z</time></trkpt><trkpt lat="43.20163547254052" lon="10.567749498987695"><ele>6.4</ele><time>2026-03-29T08:52:22Z</time></trkpt><trkpt lat="43.201674140792846" lon="10.567656223778485"><ele>6.8</ele><time>2026-03-29T08:52:23Z</time></trkpt><trkpt lat="43.201726551008484" lon="10.56756875707821"><ele>7.200000000000001</ele><time>2026-03-29T08:52:24Z</time></trkpt><trkpt lat="43.20176812315875" lon="10.567499378084616"><ele>7.6000000000000005</ele><time>2026-03-29T08:52:25Z</time></trkpt><trkpt lat="43.20178950265617" lon="10.567274581455012"><ele>8.0</ele><time>2026-03-29T08:52:27Z</time></trkpt><trkpt lat="43.20177109492163" lon="10.567118007131103"><ele>8.0</ele><time>2026-03-29T08:52:29Z</time></trkpt><trkpt lat="43.20176097510055" lon="10.567031928936915"><ele>8.0</ele><time>2026-03-29T08:52:47Z</time></trkpt><trkpt lat="43.20162300077393" lon="10.56702208198881"><ele>7.0</ele><time>2026-03-29T08:53:13Z</time></trkpt></trkseg></trk></gpx>